Wetterdaten: Sonntag, 26.05.2019
Datum Zeit Temp. A. Pool Temp. Temp. 5cm Feuchte A. Luftdruck Regen Wind Richtung Richtung Sonnenschein ET UV Solar Taupunkt Windchill Windben Empfang
26.05.2019 00:00 14,7 C 18,9 C 13,9 C 83 % 1014,0 hPa 0,0 l/m 5,5 km/h (1 Bft) W 271 0 min 0,000 mm 0,0 UV-I 0 W/m 11,8 C 14,7 C 9,7 km/h (2 Bft) 100,00 %
26.05.2019 00:02 14,7 C 18,9 C 13,9 C 82 % 1014,1 hPa 0,0 l/m 7,8 km/h (2 Bft) W 267 0 min 0,000 mm 0,0 UV-I 0 W/m 11,7 C 13,9 C 12,9 km/h (3 Bft) 95,74 %
26.05.2019 00:04 14,7 C 18,9 C 13,9 C 82 % 1014,1 hPa 0,0 l/m 5,9 km/h (2 Bft) W 264 0 min 0,000 mm 0,0 UV-I 0 W/m 11,7 C 14,7 C 9,7 km/h (2 Bft) 100,00 %
26.05.2019 00:06 14,7 C 19,4 C 13,9 C 82 % 1014,1 hPa 0,0 l/m 6,4 km/h (2 Bft) W 273 0 min 0,000 mm 0,0 UV-I 0 W/m 11,7 C 14,7 C 9,7 km/h (2 Bft) 97,87 %
26.05.2019 00:08 14,7 C 19,4 C 13,9 C 82 % 1014,0 hPa 0,0 l/m 6,1 km/h (2 Bft) W 275 0 min 0,000 mm 0,0 UV-I 0 W/m 11,7 C 14,7 C 12,9 km/h (3 Bft) 100,00 %
26.05.2019 00:10 14,8 C 19,4 C 13,9 C 82 % 1014,0 hPa 0,0 l/m 6,6 km/h (2 Bft) W 263 0 min 0,000 mm 0,0 UV-I 0 W/m 11,8 C 14,7 C 9,7 km/h (2 Bft) 97,87 %
26.05.2019 00:12 14,8 C 18,9 C 13,9 C 82 % 1014,1 hPa 0,0 l/m 9,1 km/h (2 Bft) W-NW 287 0 min 0,000 mm 0,0 UV-I 0 W/m 11,8 C 13,3 C 14,5 km/h (3 Bft) 95,74 %
26.05.2019 00:14 14,8 C 18,9 C 13,9 C 82 % 1014,1 hPa 0,0 l/m 7,0 km/h (2 Bft) W 266 0 min 0,000 mm 0,0 UV-I 0 W/m 11,8 C 14,5 C 11,3 km/h (2 Bft) 98,11 %
26.05.2019 00:16 14,8 C 18,9 C 13,9 C 82 % 1014,0 hPa 0,0 l/m 8,4 km/h (2 Bft) W 270 0 min 0,000 mm 0,0 UV-I 0 W/m 11,8 C 13,7 C 14,5 km/h (3 Bft) 97,87 %
26.05.2019 00:18 14,8 C 18,9 C 13,9 C 81 % 1014,0 hPa 0,0 l/m 11,0 km/h (2 Bft) W-SW 256 0 min 0,000 mm 0,0 UV-I 0 W/m 11,6 C 12,5 C 17,7 km/h (3 Bft) 97,87 %
26.05.2019 00:20 14,8 C 18,9 C 13,9 C 81 % 1014,0 hPa 0,0 l/m 11,3 km/h (2 Bft) W 265 0 min 0,000 mm 0,0 UV-I 0 W/m 11,6 C 12,3 C 20,9 km/h (4 Bft) 98,00 %
26.05.2019 00:22 14,8 C 18,9 C 13,9 C 81 % 1014,0 hPa 0,0 l/m 11,9 km/h (2 Bft) W 259 0 min 0,000 mm 0,0 UV-I 0 W/m 11,6 C 12,1 C 16,1 km/h (3 Bft) 95,74 %
26.05.2019 00:24 14,8 C 18,9 C 13,9 C 81 % 1014,0 hPa 0,0 l/m 11,8 km/h (2 Bft) W 269 0 min 0,000 mm 0,0 UV-I 0 W/m 11,6 C 12,1 C 16,1 km/h (3 Bft) 95,74 %
26.05.2019 00:26 14,7 C 18,9 C 13,9 C 81 % 1014,0 hPa 0,0 l/m 11,8 km/h (2 Bft) W 277 0 min 0,000 mm 0,0 UV-I 0 W/m 11,5 C 12,0 C 16,1 km/h (3 Bft) 97,87 %
26.05.2019 00:28 14,8 C 18,9 C 13,9 C 81 % 1014,0 hPa 0,0 l/m 11,2 km/h (2 Bft) W 265 0 min 0,000 mm 0,0 UV-I 0 W/m 11,6 C 12,4 C 16,1 km/h (3 Bft) 97,44 %
26.05.2019 00:30 14,8 C 18,9 C 13,9 C 81 % 1013,9 hPa 0,0 l/m 10,5 km/h (2 Bft) W 268 0 min 0,000 mm 0,0 UV-I 0 W/m 11,6 C 12,7 C 14,5 km/h (3 Bft) 96,00 %
26.05.2019 00:32 14,8 C 18,9 C 13,9 C 81 % 1013,9 hPa 0,0 l/m 10,4 km/h (2 Bft) W-SW 257 0 min 0,000 mm 0,0 UV-I 0 W/m 11,6 C 12,7 C 17,7 km/h (3 Bft) 97,87 %
26.05.2019 00:34 14,8 C 18,9 C 13,9 C 81 % 1013,9 hPa 0,0 l/m 12,1 km/h (2 Bft) W 267 0 min 0,000 mm 0,0 UV-I 0 W/m 11,6 C 12,0 C 17,7 km/h (3 Bft) 97,87 %
26.05.2019 00:36 14,7 C 18,9 C 13,9 C 81 % 1013,9 hPa 0,0 l/m 8,6 km/h (2 Bft) W 264 0 min 0,000 mm 0,0 UV-I 0 W/m 11,5 C 13,5 C 12,9 km/h (3 Bft) 97,92 %
26.05.2019 00:38 14,7 C 18,9 C 13,9 C 82 % 1013,9 hPa 0,0 l/m 7,6 km/h (2 Bft) W-SW 238 0 min 0,000 mm 0,0 UV-I 0 W/m 11,7 C 14,0 C 11,3 km/h (2 Bft) 97,87 %
26.05.2019 00:40 14,7 C 18,9 C 13,9 C 82 % 1014,0 hPa 0,0 l/m 10,3 km/h (2 Bft) W-SW 253 0 min 0,000 mm 0,0 UV-I 0 W/m 11,7 C 12,6 C 14,5 km/h (3 Bft) 98,00 %
26.05.2019 00:42 14,7 C 18,9 C 13,9 C 82 % 1014,0 hPa 0,0 l/m 10,7 km/h (2 Bft) W 269 0 min 0,000 mm 0,0 UV-I 0 W/m 11,7 C 12,5 C 16,1 km/h (3 Bft) 89,47 %
26.05.2019 00:44 14,6 C 18,9 C 13,9 C 82 % 1014,1 hPa 0,0 l/m 7,8 km/h (2 Bft) W-SW 252 0 min 0,000 mm 0,0 UV-I 0 W/m 11,6 C 13,8 C 14,5 km/h (3 Bft) 95,74 %
26.05.2019 00:46 14,6 C 18,9 C 13,9 C 83 % 1014,1 hPa 0,0 l/m 8,6 km/h (2 Bft) W-SW 258 0 min 0,000 mm 0,0 UV-I 0 W/m 11,7 C 13,4 C 12,9 km/h (3 Bft) 96,00 %
26.05.2019 00:48 14,6 C 18,9 C 13,9 C 83 % 1014,1 hPa 0,0 l/m 7,8 km/h (2 Bft) W 268 0 min 0,000 mm 0,0 UV-I 0 W/m 11,7 C 13,8 C 12,9 km/h (3 Bft) 94,00 %
26.05.2019 00:50 14,5 C 18,9 C 13,9 C 83 % 1014,0 hPa 0,0 l/m 9,3 km/h (2 Bft) W 273 0 min 0,000 mm 0,0 UV-I 0 W/m 11,6 C 12,9 C 14,5 km/h (3 Bft) 93,62 %
26.05.2019 00:52 14,5 C 18,9 C 13,9 C 83 % 1014,1 hPa 0,0 l/m 11,1 km/h (2 Bft) W 259 0 min 0,000 mm 0,0 UV-I 0 W/m 11,6 C 12,1 C 14,5 km/h (3 Bft) 91,49 %
26.05.2019 00:54 14,5 C 18,9 C 13,9 C 84 % 1014,0 hPa 0,0 l/m 9,0 km/h (2 Bft) W 270 0 min 0,000 mm 0,0 UV-I 0 W/m 11,8 C 13,1 C 12,9 km/h (3 Bft) 94,74 %
26.05.2019 00:56 14,5 C 18,9 C 13,9 C 83 % 1014,0 hPa 0,0 l/m 10,5 km/h (2 Bft) W 275 0 min 0,000 mm 0,0 UV-I 0 W/m 11,6 C 12,3 C 14,5 km/h (3 Bft) 89,36 %
26.05.2019 00:58 14,5 C 18,9 C 13,9 C 84 % 1014,0 hPa 0,0 l/m 8,3 km/h (2 Bft) W-SW 257 0 min 0,000 mm 0,0 UV-I 0 W/m 11,8 C 13,4 C 11,3 km/h (2 Bft) 90,00 %
26.05.2019 01:00 14,4 C 18,9 C 13,9 C 84 % 1014,0 hPa 0,0 l/m 7,4 km/h (2 Bft) W 259 0 min 0,025 mm 0,0 UV-I 0 W/m 11,7 C 13,8 C 11,3 km/h (2 Bft) 93,62 %
26.05.2019 01:02 14,4 C 18,9 C 13,9 C 84 % 1014,0 hPa 0,0 l/m 9,7 km/h (2 Bft) W 273 0 min 0,000 mm 0,0 UV-I 0 W/m 11,7 C 12,6 C 14,5 km/h (3 Bft) 92,00 %
26.05.2019 01:04 14,4 C 18,9 C 13,9 C 84 % 1014,0 hPa 0,0 l/m 9,1 km/h (2 Bft) W 270 0 min 0,000 mm 0,0 UV-I 0 W/m 11,7 C 12,9 C 14,5 km/h (3 Bft) 93,62 %
26.05.2019 01:06 14,5 C 18,9 C 13,9 C 84 % 1014,1 hPa 0,0 l/m 6,7 km/h (2 Bft) W-SW 258 0 min 0,000 mm 0,0 UV-I 0 W/m 11,8 C 14,3 C 11,3 km/h (2 Bft) 93,62 %
26.05.2019 01:08 14,5 C 18,9 C 13,9 C 84 % 1014,0 hPa 0,0 l/m 7,6 km/h (2 Bft) W 276 0 min 0,000 mm 0,0 UV-I 0 W/m 11,8 C 13,8 C 14,5 km/h (3 Bft) 93,75 %
26.05.2019 01:10 14,5 C 18,9 C 13,9 C 84 % 1014,0 hPa 0,0 l/m 8,3 km/h (2 Bft) W 267 0 min 0,000 mm 0,0 UV-I 0 W/m 11,8 C 13,4 C 12,9 km/h (3 Bft) 91,49 %
26.05.2019 01:12 14,5 C 18,9 C 13,9 C 84 % 1013,9 hPa 0,0 l/m 5,6 km/h (1 Bft) W 281 0 min 0,000 mm 0,0 UV-I 0 W/m 11,8 C 14,5 C 11,3 km/h (2 Bft) 93,62 %
26.05.2019 01:14 14,5 C 18,9 C 13,9 C 84 % 1014,0 hPa 0,0 l/m 6,4 km/h (2 Bft) W 273 0 min 0,000 mm 0,0 UV-I 0 W/m 11,8 C 14,5 C 11,3 km/h (2 Bft) 92,00 %
26.05.2019 01:16 14,5 C 18,9 C 13,9 C 84 % 1014,0 hPa 0,0 l/m 4,1 km/h (1 Bft) W-SW 257 0 min 0,000 mm 0,0 UV-I 0 W/m 11,8 C 14,5 C 6,4 km/h (2 Bft) 97,37 %
26.05.2019 01:18 14,4 C 18,9 C 13,9 C 84 % 1014,0 hPa 0,0 l/m 7,3 km/h (2 Bft) W 265 0 min 0,000 mm 0,0 UV-I 0 W/m 11,7 C 13,9 C 11,3 km/h (2 Bft) 96,00 %
26.05.2019 01:20 14,4 C 18,9 C 13,9 C 84 % 1014,0 hPa 0,0 l/m 5,0 km/h (1 Bft) W-NW 286 0 min 0,000 mm 0,0 UV-I 0 W/m 11,7 C 14,4 C 9,7 km/h (2 Bft) 100,00 %
26.05.2019 01:22 14,4 C 18,9 C 13,9 C 84 % 1014,0 hPa 0,0 l/m 5,6 km/h (1 Bft) W-SW 258 0 min 0,000 mm 0,0 UV-I 0 W/m 11,7 C 14,4 C 11,3 km/h (2 Bft) 97,87 %
26.05.2019 01:24 14,4 C 18,9 C 13,9 C 84 % 1013,9 hPa 0,0 l/m 9,4 km/h (2 Bft) W 263 0 min 0,000 mm 0,0 UV-I 0 W/m 11,7 C 12,7 C 12,9 km/h (3 Bft) 95,74 %
26.05.2019 01:26 14,5 C 18,9 C 13,9 C 84 % 1013,9 hPa 0,0 l/m 7,4 km/h (2 Bft) W 261 0 min 0,000 mm 0,0 UV-I 0 W/m 11,8 C 13,9 C 12,9 km/h (3 Bft) 97,87 %
26.05.2019 01:28 14,4 C 18,9 C 13,9 C 84 % 1013,9 hPa 0,0 l/m 6,9 km/h (2 Bft) W 264 0 min 0,000 mm 0,0 UV-I 0 W/m 11,7 C 14,1 C 11,3 km/h (2 Bft) 100,00 %
26.05.2019 01:30 14,4 C 18,9 C 13,9 C 84 % 1013,9 hPa 0,0 l/m 5,4 km/h (1 Bft) W 265 0 min 0,000 mm 0,0 UV-I 0 W/m 11,7 C 14,4 C 9,7 km/h (2 Bft) 97,92 %
26.05.2019 01:32 14,4 C 18,9 C 13,9 C 84 % 1013,9 hPa 0,0 l/m 4,8 km/h (1 Bft) W 261 0 min 0,000 mm 0,0 UV-I 0 W/m 11,7 C 14,4 C 9,7 km/h (2 Bft) 100,00 %
26.05.2019 01:34 14,4 C 18,9 C 13,9 C 84 % 1013,9 hPa 0,0 l/m 4,1 km/h (1 Bft) W 259 0 min 0,000 mm 0,0 UV-I 0 W/m 11,7 C 14,4 C 6,4 km/h (2 Bft) 100,00 %
26.05.2019 01:36 14,4 C 18,9 C 13,9 C 84 % 1013,9 hPa 0,0 l/m 4,1 km/h (1 Bft) W 260 0 min 0,000 mm 0,0 UV-I 0 W/m 11,7 C 14,4 C 6,4 km/h (2 Bft) 97,87 %
26.05.2019 01:38 14,4 C 18,9 C 13,9 C 84 % 1014,0 hPa 0,0 l/m 4,0 km/h (1 Bft) W 269 0 min 0,000 mm 0,0 UV-I 0 W/m 11,7 C 14,4 C 6,4 km/h (2 Bft) 100,00 %
26.05.2019 01:40 14,3 C 18,9 C 13,9 C 84 % 1014,0 hPa 0,0 l/m 5,0 km/h (1 Bft) W 269 0 min 0,000 mm 0,0 UV-I 0 W/m 11,6 C 14,3 C 9,7 km/h (2 Bft) 100,00 %
26.05.2019 01:42 14,3 C 18,9 C 13,9 C 85 % 1014,0 hPa 0,0 l/m 5,5 km/h (1 Bft) W-SW 252 0 min 0,000 mm 0,0 UV-I 0 W/m 11,8 C 14,3 C 9,7 km/h (2 Bft) 100,00 %
26.05.2019 01:44 14,3 C 18,9 C 13,9 C 84 % 1014,0 hPa 0,0 l/m 5,9 km/h (2 Bft) W 266 0 min 0,000 mm 0,0 UV-I 0 W/m 11,6 C 14,3 C 9,7 km/h (2 Bft) 100,00 %
26.05.2019 01:46 14,3 C 18,9 C 13,9 C 84 % 1014,0 hPa 0,0 l/m 7,7 km/h (2 Bft) W-NW 293 0 min 0,000 mm 0,0 UV-I 0 W/m 11,6 C 13,5 C 12,9 km/h (3 Bft) 100,00 %
26.05.2019 01:48 14,3 C 18,9 C 13,9 C 84 % 1014,0 hPa 0,0 l/m 7,0 km/h (2 Bft) W 276 0 min 0,000 mm 0,0 UV-I 0 W/m 11,6 C 13,9 C 11,3 km/h (2 Bft) 100,00 %
26.05.2019 01:50 14,3 C 18,9 C 13,9 C 85 % 1014,0 hPa 0,0 l/m 8,0 km/h (2 Bft) W-SW 257 0 min 0,000 mm 0,0 UV-I 0 W/m 11,8 C 13,4 C 12,9 km/h (3 Bft) 95,74 %
26.05.2019 01:52 14,3 C 18,9 C 13,9 C 85 % 1014,0 hPa 0,0 l/m 7,6 km/h (2 Bft) W-SW 256 0 min 0,000 mm 0,0 UV-I 0 W/m 11,8 C 13,6 C 11,3 km/h (2 Bft) 100,00 %
26.05.2019 01:54 14,3 C 18,9 C 13,9 C 85 % 1014,0 hPa 0,0 l/m 6,7 km/h (2 Bft) SW 232 0 min 0,000 mm 0,0 UV-I 0 W/m 11,8 C 14,1 C 11,3 km/h (2 Bft) 100,00 %
26.05.2019 01:56 14,3 C 18,9 C 13,9 C 85 % 1014,0 hPa 0,0 l/m 7,8 km/h (2 Bft) W-SW 241 0 min 0,000 mm 0,0 UV-I 0 W/m 11,8 C 13,5 C 12,9 km/h (3 Bft) 100,00 %
26.05.2019 01:58 14,2 C 18,9 C 13,3 C 85 % 1014,0 hPa 0,0 l/m 9,5 km/h (2 Bft) W 261 0 min 0,000 mm 0,0 UV-I 0 W/m 11,7 C 12,5 C 16,1 km/h (3 Bft) 100,00 %
26.05.2019 02:00 14,2 C 18,9 C 13,3 C 85 % 1014,0 hPa 0,0 l/m 9,8 km/h (2 Bft) SW 235 0 min 0,026 mm 0,0 UV-I 0 W/m 11,7 C 12,3 C 16,1 km/h (3 Bft) 100,00 %
26.05.2019 02:02 14,2 C 18,9 C 13,3 C 86 % 1014,0 hPa 0,0 l/m 11,9 km/h (2 Bft) SW 234 0 min 0,000 mm 0,0 UV-I 0 W/m 11,9 C 11,4 C 16,1 km/h (3 Bft) 97,87 %
26.05.2019 02:04 14,2 C 18,9 C 13,3 C 86 % 1014,0 hPa 0,0 l/m 8,3 km/h (2 Bft) W 267 0 min 0,000 mm 0,0 UV-I 0 W/m 11,9 C 13,1 C 11,3 km/h (2 Bft) 100,00 %
26.05.2019 02:06 14,2 C 18,9 C 13,3 C 85 % 1013,9 hPa 0,0 l/m 11,4 km/h (2 Bft) W 269 0 min 0,000 mm 0,0 UV-I 0 W/m 11,7 C 11,6 C 19,3 km/h (3 Bft) 100,00 %
26.05.2019 02:08 14,2 C 18,9 C 13,3 C 85 % 1013,9 hPa 0,0 l/m 9,8 km/h (2 Bft) W-SW 254 0 min 0,000 mm 0,0 UV-I 0 W/m 11,7 C 12,3 C 14,5 km/h (3 Bft) 97,37 %
26.05.2019 02:10 14,2 C 18,9 C 13,3 C 85 % 1014,0 hPa 0,0 l/m 9,1 km/h (2 Bft) W-SW 246 0 min 0,000 mm 0,0 UV-I 0 W/m 11,7 C 12,7 C 14,5 km/h (3 Bft) 100,00 %
26.05.2019 02:12 14,2 C 18,9 C 13,3 C 85 % 1014,0 hPa 0,0 l/m 9,9 km/h (2 Bft) W 259 0 min 0,000 mm 0,0 UV-I 0 W/m 11,7 C 12,3 C 14,5 km/h (3 Bft) 97,87 %
26.05.2019 02:14 14,2 C 18,9 C 13,3 C 84 % 1014,0 hPa 0,0 l/m 10,5 km/h (2 Bft) W 267 0 min 0,000 mm 0,0 UV-I 0 W/m 11,5 C 12,0 C 17,7 km/h (3 Bft) 97,87 %
26.05.2019 02:16 14,2 C 18,9 C 13,3 C 85 % 1014,0 hPa 0,0 l/m 11,4 km/h (2 Bft) W-SW 253 0 min 0,000 mm 0,0 UV-I 0 W/m 11,7 C 11,6 C 16,1 km/h (3 Bft) 97,87 %
26.05.2019 02:18 14,2 C 18,9 C 13,3 C 85 % 1014,0 hPa 0,0 l/m 8,6 km/h (2 Bft) W 266 0 min 0,000 mm 0,0 UV-I 0 W/m 11,7 C 12,9 C 12,9 km/h (3 Bft) 98,00 %
26.05.2019 02:20 14,1 C 18,9 C 13,3 C 85 % 1013,9 hPa 0,0 l/m 10,5 km/h (2 Bft) W 265 0 min 0,000 mm 0,0 UV-I 0 W/m 11,6 C 11,9 C 14,5 km/h (3 Bft) 93,75 %
26.05.2019 02:22 14,1 C 18,9 C 13,3 C 85 % 1013,9 hPa 0,0 l/m 7,2 km/h (2 Bft) W 262 0 min 0,000 mm 0,0 UV-I 0 W/m 11,6 C 13,6 C 11,3 km/h (2 Bft) 97,96 %
26.05.2019 02:24 14,1 C 18,9 C 13,3 C 85 % 1013,9 hPa 0,0 l/m 9,6 km/h (2 Bft) W 269 0 min 0,000 mm 0,0 UV-I 0 W/m 11,6 C 12,3 C 16,1 km/h (3 Bft) 97,87 %
26.05.2019 02:26 14,1 C 18,9 C 13,3 C 85 % 1013,9 hPa 0,0 l/m 8,1 km/h (2 Bft) W 264 0 min 0,000 mm 0,0 UV-I 0 W/m 11,6 C 13,1 C 12,9 km/h (3 Bft) 95,83 %
26.05.2019 02:28 14,1 C 18,9 C 13,3 C 85 % 1013,9 hPa 0,0 l/m 9,0 km/h (2 Bft) W 273 0 min 0,000 mm 0,0 UV-I 0 W/m 11,6 C 12,6 C 12,9 km/h (3 Bft) 97,87 %
26.05.2019 02:30 14,0 C 18,9 C 13,3 C 86 % 1013,9 hPa 0,0 l/m 8,0 km/h (2 Bft) W 267 0 min 0,000 mm 0,0 UV-I 0 W/m 11,7 C 13,1 C 12,9 km/h (3 Bft) 94,74 %
26.05.2019 02:32 14,0 C 18,9 C 13,3 C 85 % 1013,9 hPa 0,0 l/m 9,4 km/h (2 Bft) W-SW 248 0 min 0,000 mm 0,0 UV-I 0 W/m 11,5 C 12,3 C 12,9 km/h (3 Bft) 97,87 %
26.05.2019 02:34 13,9 C 18,9 C 13,3 C 85 % 1013,9 hPa 0,0 l/m 7,4 km/h (2 Bft) W-SW 258 0 min 0,000 mm 0,0 UV-I 0 W/m 11,4 C 13,3 C 14,5 km/h (3 Bft) 97,87 %
26.05.2019 02:36 13,9 C 18,9 C 13,3 C 86 % 1013,9 hPa 0,0 l/m 6,4 km/h (2 Bft) W 261 0 min 0,000 mm 0,0 UV-I 0 W/m 11,6 C 13,9 C 11,3 km/h (2 Bft) 97,87 %
26.05.2019 02:38 13,9 C 18,9 C 13,3 C 86 % 1013,9 hPa 0,0 l/m 5,7 km/h (1 Bft) W 259 0 min 0,000 mm 0,0 UV-I 0 W/m 11,6 C 13,9 C 11,3 km/h (2 Bft) 96,00 %
26.05.2019 02:40 13,9 C 18,9 C 13,3 C 86 % 1013,9 hPa 0,0 l/m 4,3 km/h (1 Bft) W 265 0 min 0,000 mm 0,0 UV-I 0 W/m 11,6 C 13,9 C 6,4 km/h (2 Bft) 100,00 %
26.05.2019 02:42 13,9 C 18,9 C 13,3 C 87 % 1013,9 hPa 0,0 l/m 3,2 km/h (1 Bft) NW 325 0 min 0,000 mm 0,0 UV-I 0 W/m 11,8 C 13,9 C 4,8 km/h (1 Bft) 97,87 %
26.05.2019 02:44 13,9 C 18,9 C 13,3 C 87 % 1013,9 hPa 0,0 l/m 3,5 km/h (1 Bft) W 280 0 min 0,000 mm 0,0 UV-I 0 W/m 11,8 C 13,9 C 6,4 km/h (2 Bft) 97,87 %
26.05.2019 02:46 13,9 C 18,9 C 13,3 C 86 % 1013,9 hPa 0,0 l/m 4,0 km/h (1 Bft) W-NW 289 0 min 0,000 mm 0,0 UV-I 0 W/m 11,6 C 13,9 C 9,7 km/h (2 Bft) 93,62 %
26.05.2019 02:48 13,9 C 18,9 C 13,3 C 86 % 1013,8 hPa 0,0 l/m 3,9 km/h (1 Bft) W-NW 288 0 min 0,000 mm 0,0 UV-I 0 W/m 11,6 C 13,9 C 4,8 km/h (1 Bft) 97,87 %
26.05.2019 02:50 13,9 C 18,9 C 13,3 C 86 % 1013,8 hPa 0,0 l/m 2,9 km/h (1 Bft) W 272 0 min 0,000 mm 0,0 UV-I 0 W/m 11,6 C 13,9 C 6,4 km/h (2 Bft) 97,87 %
26.05.2019 02:52 13,9 C 18,9 C 13,3 C 86 % 1013,8 hPa 0,0 l/m 3,8 km/h (1 Bft) W-SW 243 0 min 0,000 mm 0,0 UV-I 0 W/m 11,6 C 13,9 C 4,8 km/h (1 Bft) 98,00 %
26.05.2019 02:54 13,9 C 18,9 C 13,3 C 86 % 1013,9 hPa 0,0 l/m 5,4 km/h (1 Bft) SW 229 0 min 0,000 mm 0,0 UV-I 0 W/m 11,6 C 13,9 C 8,0 km/h (2 Bft) 97,87 %
26.05.2019 02:56 13,8 C 18,9 C 13,3 C 86 % 1013,8 hPa 0,0 l/m 5,4 km/h (1 Bft) SW 221 0 min 0,000 mm 0,0 UV-I 0 W/m 11,5 C 13,8 C 8,0 km/h (2 Bft) 97,22 %
26.05.2019 02:58 13,8 C 18,9 C 13,3 C 86 % 1013,9 hPa 0,0 l/m 4,5 km/h (1 Bft) SW 222 0 min 0,000 mm 0,0 UV-I 0 W/m 11,5 C 13,8 C 6,4 km/h (2 Bft) 97,87 %
26.05.2019 03:00 13,7 C 18,9 C 13,3 C 87 % 1013,9 hPa 0,0 l/m 6,6 km/h (2 Bft) S-SW 203 0 min 0,025 mm 0,0 UV-I 0 W/m 11,6 C 13,6 C 9,7 km/h (2 Bft) 97,87 %
26.05.2019 03:02 13,7 C 18,9 C 13,3 C 87 % 1013,8 hPa 0,0 l/m 7,4 km/h (2 Bft) SW 236 0 min 0,000 mm 0,0 UV-I 0 W/m 11,6 C 13,1 C 11,3 km/h (2 Bft) 93,62 %
26.05.2019 03:04 13,7 C 18,9 C 13,3 C 88 % 1013,9 hPa 0,0 l/m 6,1 km/h (2 Bft) SW 218 0 min 0,000 mm 0,0 UV-I 0 W/m 11,7 C 13,7 C 8,0 km/h (2 Bft) 95,74 %
26.05.2019 03:06 13,7 C 18,9 C 13,3 C 88 % 1013,9 hPa 0,0 l/m 7,6 km/h (2 Bft) SW 225 0 min 0,000 mm 0,0 UV-I 0 W/m 11,7 C 13,0 C 11,3 km/h (2 Bft) 97,87 %
26.05.2019 03:08 13,6 C 18,9 C 12,8 C 88 % 1013,9 hPa 0,0 l/m 6,2 km/h (2 Bft) SW 233 0 min 0,000 mm 0,0 UV-I 0 W/m 11,6 C 13,6 C 9,7 km/h (2 Bft) 96,00 %
26.05.2019 03:10 13,6 C 18,9 C 12,8 C 88 % 1013,9 hPa 0,0 l/m 6,2 km/h (2 Bft) SW 221 0 min 0,000 mm 0,0 UV-I 0 W/m 11,6 C 13,6 C 8,0 km/h (2 Bft) 97,87 %
26.05.2019 03:12 13,6 C 18,9 C 12,8 C 88 % 1013,9 hPa 0,0 l/m 5,8 km/h (2 Bft) W-SW 250 0 min 0,000 mm 0,0 UV-I 0 W/m 11,6 C 13,6 C 9,7 km/h (2 Bft) 95,74 %
26.05.2019 03:14 13,6 C 18,9 C 12,8 C 88 % 1013,9 hPa 0,0 l/m 6,3 km/h (2 Bft) W-SW 237 0 min 0,000 mm 0,0 UV-I 0 W/m 11,6 C 13,6 C 9,7 km/h (2 Bft) 97,87 %
26.05.2019 03:16 13,6 C 18,9 C 12,8 C 88 % 1013,9 hPa 0,0 l/m 7,5 km/h (2 Bft) S-SW 207 0 min 0,000 mm 0,0 UV-I 0 W/m 11,6 C 12,9 C 11,3 km/h (2 Bft) 97,87 %
26.05.2019 03:18 13,6 C 18,9 C 12,8 C 88 % 1013,9 hPa 0,0 l/m 7,6 km/h (2 Bft) W-SW 253 0 min 0,000 mm 0,0 UV-I 0 W/m 11,6 C 12,9 C 14,5 km/h (3 Bft) 95,74 %
26.05.2019 03:20 13,6 C 18,9 C 13,3 C 88 % 1014,0 hPa 0,0 l/m 7,2 km/h (2 Bft) SW 219 0 min 0,000 mm 0,0 UV-I 0 W/m 11,6 C 13,1 C 9,7 km/h (2 Bft) 98,00 %
26.05.2019 03:22 13,6 C 18,9 C 13,3 C 89 % 1014,0 hPa 0,0 l/m 5,6 km/h (1 Bft) W-SW 240 0 min 0,000 mm 0,0 UV-I 0 W/m 11,8 C 13,6 C 8,0 km/h (2 Bft) 95,74 %
26.05.2019 03:24 13,6 C 18,9 C 13,3 C 89 % 1014,0 hPa 0,0 l/m 5,4 km/h (1 Bft) SW 227 0 min 0,000 mm 0,0 UV-I 0 W/m 11,8 C 13,6 C 8,0 km/h (2 Bft) 97,87 %
26.05.2019 03:26 13,6 C 18,9 C 13,3 C 89 % 1014,0 hPa 0,0 l/m 5,1 km/h (1 Bft) S-SW 201 0 min 0,000 mm 0,0 UV-I 0 W/m 11,8 C 13,6 C 8,0 km/h (2 Bft) 100,00 %
26.05.2019 03:28 13,6 C 18,9 C 13,3 C 89 % 1014,0 hPa 0,0 l/m 4,8 km/h (1 Bft) S-SW 203 0 min 0,000 mm 0,0 UV-I 0 W/m 11,8 C 13,6 C 8,0 km/h (2 Bft) 100,00 %
26.05.2019 03:30 13,6 C 18,9 C 13,3 C 89 % 1014,0 hPa 0,0 l/m 6,7 km/h (2 Bft) SW 235 0 min 0,000 mm 0,0 UV-I 0 W/m 11,8 C 13,4 C 11,3 km/h (2 Bft) 95,74 %
26.05.2019 03:32 13,6 C 18,9 C 13,3 C 89 % 1014,0 hPa 0,0 l/m 6,5 km/h (2 Bft) SW 226 0 min 0,000 mm 0,0 UV-I 0 W/m 11,8 C 13,6 C 9,7 km/h (2 Bft) 100,00 %
26.05.2019 03:34 13,6 C 18,9 C 13,3 C 89 % 1014,0 hPa 0,0 l/m 6,4 km/h (2 Bft) SW 234 0 min 0,000 mm 0,0 UV-I 0 W/m 11,8 C 13,6 C 9,7 km/h (2 Bft) 97,87 %
26.05.2019 03:36 13,6 C 18,9 C 13,3 C 89 % 1014,0 hPa 0,0 l/m 5,4 km/h (1 Bft) SW 234 0 min 0,000 mm 0,0 UV-I 0 W/m 11,8 C 13,6 C 8,0 km/h (2 Bft) 97,87 %
26.05.2019 03:38 13,6 C 18,9 C 13,3 C 89 % 1014,0 hPa 0,0 l/m 7,5 km/h (2 Bft) W-SW 246 0 min 0,000 mm 0,0 UV-I 0 W/m 11,8 C 12,9 C 11,3 km/h (2 Bft) 100,00 %
26.05.2019 03:40 13,6 C 18,9 C 13,3 C 89 % 1014,0 hPa 0,0 l/m 7,6 km/h (2 Bft) SW 225 0 min 0,000 mm 0,0 UV-I 0 W/m 11,8 C 12,9 C 9,7 km/h (2 Bft) 100,00 %
26.05.2019 03:42 13,6 C 18,9 C 13,3 C 89 % 1014,0 hPa 0,0 l/m 6,4 km/h (2 Bft) SW 231 0 min 0,000 mm 0,0 UV-I 0 W/m 11,8 C 13,6 C 8,0 km/h (2 Bft) 95,74 %
26.05.2019 03:44 13,7 C 18,9 C 13,3 C 89 % 1014,0 hPa 0,0 l/m 6,3 km/h (2 Bft) W-SW 241 0 min 0,000 mm 0,0 UV-I 0 W/m 11,9 C 13,7 C 9,7 km/h (2 Bft) 96,00 %
26.05.2019 03:46 13,7 C 18,9 C 13,3 C 89 % 1014,0 hPa 0,0 l/m 7,1 km/h (2 Bft) W-SW 240 0 min 0,000 mm 0,0 UV-I 0 W/m 11,9 C 13,3 C 9,7 km/h (2 Bft) 97,87 %
26.05.2019 03:48 13,7 C 18,9 C 13,3 C 89 % 1013,9 hPa 0,0 l/m 6,5 km/h (2 Bft) W-SW 238 0 min 0,000 mm 0,0 UV-I 0 W/m 11,9 C 13,7 C 9,7 km/h (2 Bft) 95,74 %
26.05.2019 03:50 13,7 C 18,9 C 12,8 C 89 % 1014,0 hPa 0,0 l/m 6,5 km/h (2 Bft) W-SW 253 0 min 0,000 mm 0,0 UV-I 0 W/m 11,9 C 13,7 C 11,3 km/h (2 Bft) 97,73 %
26.05.2019 03:52 13,7 C 18,9 C 12,8 C 89 % 1014,0 hPa 0,0 l/m 7,6 km/h (2 Bft) W-SW 246 0 min 0,000 mm 0,0 UV-I 0 W/m 11,9 C 13,0 C 12,9 km/h (3 Bft) 97,87 %
26.05.2019 03:54 13,7 C 18,9 C 12,8 C 88 % 1014,0 hPa 0,0 l/m 7,6 km/h (2 Bft) SW 227 0 min 0,000 mm 0,0 UV-I 0 W/m 11,7 C 13,0 C 12,9 km/h (3 Bft) 98,00 %
26.05.2019 03:56 13,7 C 18,9 C 12,8 C 89 % 1014,0 hPa 0,0 l/m 7,7 km/h (2 Bft) W-SW 239 0 min 0,000 mm 0,0 UV-I 0 W/m 11,9 C 12,9 C 12,9 km/h (3 Bft) 97,37 %
26.05.2019 03:58 13,7 C 18,9 C 12,8 C 89 % 1014,0 hPa 0,0 l/m 7,9 km/h (2 Bft) W-SW 243 0 min 0,000 mm 0,0 UV-I 0 W/m 11,9 C 12,8 C 12,9 km/h (3 Bft) 94,00 %
26.05.2019 04:00 13,7 C 18,9 C 12,8 C 89 % 1014,0 hPa 0,0 l/m 9,1 km/h (2 Bft) SW 235 0 min 0,000 mm 0,0 UV-I 0 W/m 11,9 C 12,1 C 12,9 km/h (3 Bft) 95,74 %
26.05.2019 04:05 13,7 C 18,9 C 12,8 C 89 % 1014,0 hPa 0,0 l/m 7,1 km/h (2 Bft) SW 220 0 min 0,000 mm 0,0 UV-I 0 W/m 11,9 C 13,3 C 14,5 km/h (3 Bft) 96,72 %
26.05.2019 04:06 13,6 C 18,9 C 12,8 C 89 % 1014,0 hPa 0,0 l/m 7,5 km/h (2 Bft) W-SW 244 0 min 0,000 mm 0,0 UV-I 0 W/m 11,8 C 12,9 C 11,3 km/h (2 Bft) 96,15 %
26.05.2019 04:08 13,6 C 18,9 C 12,8 C 89 % 1014,0 hPa 0,0 l/m 8,2 km/h (2 Bft) SW 229 0 min 0,000 mm 0,0 UV-I 0 W/m 11,8 C 12,5 C 14,5 km/h (3 Bft) 95,74 %
26.05.2019 04:10 13,6 C 18,9 C 12,8 C 89 % 1014,0 hPa 0,0 l/m 8,2 km/h (2 Bft) W-SW 242 0 min 0,000 mm 0,0 UV-I 0 W/m 11,8 C 12,5 C 12,9 km/h (3 Bft) 95,74 %
26.05.2019 04:12 13,6 C 18,9 C 12,8 C 89 % 1014,0 hPa 0,0 l/m 7,8 km/h (2 Bft) SW 236 0 min 0,000 mm 0,0 UV-I 0 W/m 11,8 C 12,7 C 11,3 km/h (2 Bft) 97,44 %
26.05.2019 04:14 13,6 C 18,9 C 12,8 C 89 % 1014,0 hPa 0,0 l/m 7,3 km/h (2 Bft) W-SW 248 0 min 0,000 mm 0,0 UV-I 0 W/m 11,8 C 13,0 C 12,9 km/h (3 Bft) 97,87 %
26.05.2019 04:16 13,6 C 18,9 C 12,8 C 89 % 1014,0 hPa 0,0 l/m 6,5 km/h (2 Bft) SW 233 0 min 0,000 mm 0,0 UV-I 0 W/m 11,8 C 13,6 C 9,7 km/h (2 Bft) 97,87 %
26.05.2019 04:18 13,6 C 18,9 C 12,8 C 89 % 1014,0 hPa 0,0 l/m 9,1 km/h (2 Bft) W-SW 242 0 min 0,000 mm 0,0 UV-I 0 W/m 11,8 C 12,0 C 12,9 km/h (3 Bft) 91,49 %
26.05.2019 04:20 13,6 C 18,9 C 12,8 C 89 % 1014,0 hPa 0,0 l/m 7,6 km/h (2 Bft) W-SW 248 0 min 0,000 mm 0,0 UV-I 0 W/m 11,8 C 12,9 C 12,9 km/h (3 Bft) 95,74 %
26.05.2019 04:22 13,6 C 18,9 C 12,8 C 89 % 1014,0 hPa 0,0 l/m 7,9 km/h (2 Bft) W-SW 240 0 min 0,000 mm 0,0 UV-I 0 W/m 11,8 C 12,7 C 14,5 km/h (3 Bft) 97,87 %
26.05.2019 04:24 13,6 C 18,9 C 12,8 C 89 % 1014,0 hPa 0,0 l/m 8,3 km/h (2 Bft) SW 232 0 min 0,000 mm 0,0 UV-I 0 W/m 11,8 C 12,5 C 11,3 km/h (2 Bft) 95,74 %
26.05.2019 04:26 13,6 C 18,9 C 12,8 C 89 % 1014,0 hPa 0,0 l/m 8,5 km/h (2 Bft) W-SW 246 0 min 0,000 mm 0,0 UV-I 0 W/m 11,8 C 12,4 C 12,9 km/h (3 Bft) 97,87 %
26.05.2019 04:28 13,6 C 18,9 C 12,8 C 89 % 1014,0 hPa 0,0 l/m 9,9 km/h (2 Bft) SW 228 0 min 0,000 mm 0,0 UV-I 0 W/m 11,8 C 11,6 C 12,9 km/h (3 Bft) 94,00 %
26.05.2019 04:30 13,6 C 18,9 C 12,8 C 89 % 1014,0 hPa 0,0 l/m 8,5 km/h (2 Bft) W-SW 240 0 min 0,000 mm 0,0 UV-I 0 W/m 11,8 C 12,4 C 12,9 km/h (3 Bft) 95,74 %
26.05.2019 04:32 13,5 C 18,9 C 12,8 C 89 % 1014,0 hPa 0,0 l/m 9,7 km/h (2 Bft) W-SW 238 0 min 0,000 mm 0,0 UV-I 0 W/m 11,7 C 11,6 C 14,5 km/h (3 Bft) 95,74 %
26.05.2019 04:34 13,4 C 18,9 C 12,8 C 89 % 1014,0 hPa 0,0 l/m 8,2 km/h (2 Bft) SW 227 0 min 0,000 mm 0,0 UV-I 0 W/m 11,6 C 12,3 C 12,9 km/h (3 Bft) 97,87 %
26.05.2019 04:36 13,4 C 18,9 C 12,2 C 89 % 1014,0 hPa 0,0 l/m 10,7 km/h (2 Bft) S-SW 192 0 min 0,000 mm 0,0 UV-I 0 W/m 11,6 C 11,0 C 14,5 km/h (3 Bft) 97,87 %
26.05.2019 04:38 13,4 C 18,9 C 12,2 C 89 % 1014,0 hPa 0,0 l/m 8,6 km/h (2 Bft) SW 221 0 min 0,000 mm 0,0 UV-I 0 W/m 11,6 C 12,1 C 11,3 km/h (2 Bft) 97,87 %
26.05.2019 04:40 13,4 C 18,9 C 12,2 C 89 % 1014,1 hPa 0,0 l/m 11,2 km/h (2 Bft) SW 230 0 min 0,000 mm 0,0 UV-I 0 W/m 11,6 C 10,8 C 16,1 km/h (3 Bft) 95,74 %
26.05.2019 04:42 13,3 C 18,9 C 12,2 C 89 % 1014,1 hPa 0,0 l/m 10,3 km/h (2 Bft) W-SW 242 0 min 0,000 mm 0,0 UV-I 0 W/m 11,5 C 11,1 C 14,5 km/h (3 Bft) 97,87 %
26.05.2019 04:44 13,3 C 18,9 C 12,2 C 89 % 1014,1 hPa 0,0 l/m 7,5 km/h (2 Bft) SW 225 0 min 0,000 mm 0,0 UV-I 0 W/m 11,5 C 12,6 C 12,9 km/h (3 Bft) 97,37 %
26.05.2019 04:46 13,3 C 18,9 C 12,2 C 89 % 1014,1 hPa 0,0 l/m 9,3 km/h (2 Bft) W-SW 244 0 min 0,000 mm 0,0 UV-I 0 W/m 11,5 C 11,6 C 12,9 km/h (3 Bft) 93,75 %
26.05.2019 04:48 13,2 C 18,9 C 12,2 C 89 % 1014,1 hPa 0,0 l/m 10,2 km/h (2 Bft) SW 232 0 min 0,000 mm 0,0 UV-I 0 W/m 11,4 C 11,0 C 14,5 km/h (3 Bft) 95,74 %
26.05.2019 04:50 13,2 C 18,9 C 12,2 C 89 % 1014,1 hPa 0,0 l/m 10,8 km/h (2 Bft) W-SW 240 0 min 0,000 mm 0,0 UV-I 0 W/m 11,4 C 10,7 C 16,1 km/h (3 Bft) 95,74 %
26.05.2019 04:52 13,2 C 18,9 C 12,2 C 89 % 1014,1 hPa 0,0 l/m 8,6 km/h (2 Bft) W-SW 244 0 min 0,000 mm 0,0 UV-I 0 W/m 11,4 C 11,9 C 12,9 km/h (3 Bft) 94,00 %
26.05.2019 04:54 13,2 C 18,9 C 12,2 C 90 % 1014,1 hPa 0,0 l/m 9,3 km/h (2 Bft) SW 231 0 min 0,000 mm 0,0 UV-I 0 W/m 11,6 C 11,5 C 16,1 km/h (3 Bft) 94,00 %
26.05.2019 04:56 13,1 C 18,9 C 12,2 C 90 % 1014,1 hPa 0,0 l/m 9,7 km/h (2 Bft) W-SW 240 0 min 0,000 mm 0,0 UV-I 0 W/m 11,5 C 11,2 C 14,5 km/h (3 Bft) 93,62 %
26.05.2019 04:58 13,1 C 18,9 C 12,2 C 90 % 1014,2 hPa 0,0 l/m 9,4 km/h (2 Bft) W-SW 244 0 min 0,000 mm 0,0 UV-I 0 W/m 11,5 C 11,3 C 14,5 km/h (3 Bft) 96,00 %
26.05.2019 05:00 13,1 C 18,9 C 11,7 C 90 % 1014,2 hPa 0,0 l/m 9,4 km/h (2 Bft) W-SW 238 0 min 0,026 mm 0,0 UV-I 3 W/m 11,5 C 11,3 C 14,5 km/h (3 Bft) 97,87 %
26.05.2019 05:02 13,1 C 18,9 C 12,2 C 89 % 1014,2 hPa 0,0 l/m 10,1 km/h (2 Bft) W-SW 240 0 min 0,000 mm 0,0 UV-I 5 W/m 11,3 C 11,0 C 14,5 km/h (3 Bft) 97,37 %
26.05.2019 05:04 13,1 C 18,9 C 11,7 C 89 % 1014,2 hPa 0,0 l/m 8,8 km/h (2 Bft) SW 234 0 min 0,000 mm 0,0 UV-I 5 W/m 11,3 C 11,7 C 14,5 km/h (3 Bft) 97,87 %
26.05.2019 05:06 13,1 C 18,9 C 11,7 C 89 % 1014,2 hPa 0,0 l/m 8,9 km/h (2 Bft) W-SW 237 0 min 0,000 mm 0,0 UV-I 5 W/m 11,3 C 11,6 C 14,5 km/h (3 Bft) 95,74 %
26.05.2019 05:08 13,0 C 18,9 C 11,7 C 89 % 1014,2 hPa 0,0 l/m 8,4 km/h (2 Bft) W-SW 252 0 min 0,000 mm 0,0 UV-I 5 W/m 11,2 C 11,8 C 14,5 km/h (3 Bft) 95,74 %
26.05.2019 05:10 13,0 C 18,9 C 11,7 C 89 % 1014,1 hPa 0,0 l/m 8,7 km/h (2 Bft) W-SW 254 0 min 0,000 mm 0,0 UV-I 5 W/m 11,2 C 11,6 C 14,5 km/h (3 Bft) 97,87 %
26.05.2019 05:12 13,0 C 18,9 C 11,7 C 89 % 1014,2 hPa 0,0 l/m 7,8 km/h (2 Bft) W-SW 239 0 min 0,000 mm 0,0 UV-I 5 W/m 11,2 C 12,1 C 11,3 km/h (2 Bft) 95,74 %
26.05.2019 05:14 13,0 C 18,9 C 11,7 C 89 % 1014,1 hPa 0,0 l/m 8,5 km/h (2 Bft) W-SW 240 0 min 0,000 mm 0,0 UV-I 6 W/m 11,2 C 11,7 C 14,5 km/h (3 Bft) 95,74 %
26.05.2019 05:16 13,1 C 18,9 C 11,7 C 89 % 1014,2 hPa 0,0 l/m 9,3 km/h (2 Bft) W-SW 240 0 min 0,000 mm 0,0 UV-I 7 W/m 11,3 C 11,4 C 14,5 km/h (3 Bft) 96,00 %
26.05.2019 05:18 13,1 C 18,9 C 11,7 C 89 % 1014,2 hPa 0,0 l/m 11,2 km/h (2 Bft) SW 226 0 min 0,000 mm 0,0 UV-I 7 W/m 11,3 C 10,4 C 16,1 km/h (3 Bft) 91,84 %
26.05.2019 05:20 13,1 C 18,9 C 11,7 C 89 % 1014,2 hPa 0,0 l/m 9,9 km/h (2 Bft) W-SW 244 0 min 0,000 mm 0,0 UV-I 8 W/m 11,3 C 11,1 C 14,5 km/h (3 Bft) 95,74 %
26.05.2019 05:22 13,1 C 18,9 C 12,2 C 89 % 1014,2 hPa 0,0 l/m 10,0 km/h (2 Bft) W-SW 240 0 min 0,000 mm 0,0 UV-I 9 W/m 11,3 C 11,0 C 14,5 km/h (3 Bft) 95,74 %
26.05.2019 05:24 13,1 C 18,9 C 12,2 C 89 % 1014,2 hPa 0,0 l/m 10,1 km/h (2 Bft) W 259 0 min 0,000 mm 0,0 UV-I 9 W/m 11,3 C 11,0 C 14,5 km/h (3 Bft) 95,74 %
26.05.2019 05:26 13,1 C 18,9 C 12,2 C 89 % 1014,2 hPa 0,0 l/m 13,1 km/h (3 Bft) W-SW 241 2 min 0,000 mm 0,0 UV-I 11 W/m 11,3 C 9,6 C 17,7 km/h (3 Bft) 100,00 %
26.05.2019 05:28 13,1 C 18,9 C 12,2 C 88 % 1014,2 hPa 0,0 l/m 10,2 km/h (2 Bft) SW 216 0 min 0,000 mm 0,0 UV-I 11 W/m 11,2 C 10,9 C 16,1 km/h (3 Bft) 95,74 %
26.05.2019 05:30 13,2 C 18,9 C 12,2 C 88 % 1014,2 hPa 0,0 l/m 13,2 km/h (3 Bft) W-SW 241 0 min 0,000 mm 0,0 UV-I 11 W/m 11,3 C 9,7 C 17,7 km/h (3 Bft) 97,87 %
26.05.2019 05:32 13,2 C 18,9 C 12,2 C 88 % 1014,3 hPa 0,0 l/m 11,7 km/h (2 Bft) SW 229 0 min 0,000 mm 0,0 UV-I 12 W/m 11,3 C 10,3 C 17,7 km/h (3 Bft) 98,00 %
26.05.2019 05:34 13,2 C 18,9 C 12,2 C 88 % 1014,2 hPa 0,0 l/m 11,7 km/h (2 Bft) W-SW 242 0 min 0,000 mm 0,0 UV-I 12 W/m 11,3 C 10,3 C 17,7 km/h (3 Bft) 97,87 %
26.05.2019 05:36 13,3 C 18,9 C 12,8 C 88 % 1014,3 hPa 0,0 l/m 9,8 km/h (2 Bft) W-SW 253 0 min 0,000 mm 0,0 UV-I 13 W/m 11,4 C 11,3 C 16,1 km/h (3 Bft) 100,00 %
26.05.2019 05:38 13,3 C 18,9 C 12,8 C 88 % 1014,3 hPa 0,0 l/m 11,6 km/h (2 Bft) SW 231 0 min 0,000 mm 0,0 UV-I 15 W/m 11,4 C 10,5 C 16,1 km/h (3 Bft) 100,00 %
26.05.2019 05:40 13,3 C 18,9 C 12,8 C 87 % 1014,3 hPa 0,0 l/m 12,3 km/h (3 Bft) SW 235 0 min 0,000 mm 0,0 UV-I 16 W/m 11,2 C 10,2 C 17,7 km/h (3 Bft) 100,00 %
26.05.2019 05:42 13,3 C 18,9 C 12,8 C 87 % 1014,3 hPa 0,0 l/m 10,7 km/h (2 Bft) W 259 0 min 0,000 mm 0,0 UV-I 18 W/m 11,2 C 10,9 C 19,3 km/h (3 Bft) 100,00 %
26.05.2019 05:44 13,4 C 18,9 C 12,8 C 87 % 1014,3 hPa 0,0 l/m 9,6 km/h (2 Bft) W-SW 256 0 min 0,000 mm 0,0 UV-I 18 W/m 11,3 C 11,6 C 17,7 km/h (3 Bft) 100,00 %
26.05.2019 05:46 13,4 C 18,9 C 12,8 C 87 % 1014,3 hPa 0,0 l/m 10,1 km/h (2 Bft) SW 236 0 min 0,000 mm 0,0 UV-I 19 W/m 11,3 C 11,3 C 17,7 km/h (3 Bft) 97,87 %
26.05.2019 05:48 13,4 C 18,9 C 12,8 C 87 % 1014,4 hPa 0,0 l/m 14,3 km/h (3 Bft) SW 231 0 min 0,000 mm 0,0 UV-I 21 W/m 11,3 C 9,5 C 22,5 km/h (4 Bft) 100,00 %
26.05.2019 05:50 13,4 C 18,9 C 12,8 C 87 % 1014,3 hPa 0,0 l/m 10,8 km/h (2 Bft) SW 225 0 min 0,000 mm 0,0 UV-I 21 W/m 11,3 C 11,0 C 16,1 km/h (3 Bft) 96,00 %
26.05.2019 05:52 13,4 C 18,9 C 12,8 C 87 % 1014,3 hPa 0,0 l/m 11,8 km/h (2 Bft) SW 222 0 min 0,000 mm 0,0 UV-I 22 W/m 11,3 C 10,5 C 17,7 km/h (3 Bft) 100,00 %
26.05.2019 05:54 13,4 C 18,9 C 12,8 C 87 % 1014,3 hPa 0,0 l/m 13,6 km/h (3 Bft) W 275 0 min 0,000 mm 0,0 UV-I 23 W/m 11,3 C 9,8 C 19,3 km/h (3 Bft) 98,00 %
26.05.2019 05:56 13,4 C 18,9 C 12,8 C 87 % 1014,3 hPa 0,0 l/m 12,0 km/h (2 Bft) W-SW 254 0 min 0,000 mm 0,0 UV-I 26 W/m 11,3 C 10,4 C 17,7 km/h (3 Bft) 97,87 %
26.05.2019 05:58 13,4 C 18,9 C 12,8 C 87 % 1014,3 hPa 0,0 l/m 13,4 km/h (3 Bft) SW 228 0 min 0,000 mm 0,0 UV-I 34 W/m 11,3 C 9,9 C 19,3 km/h (3 Bft) 100,00 %
26.05.2019 06:00 13,4 C 18,9 C 12,8 C 86 % 1014,3 hPa 0,0 l/m 13,0 km/h (3 Bft) W-SW 240 0 min 0,025 mm 0,0 UV-I 40 W/m 11,1 C 10,0 C 17,7 km/h (3 Bft) 97,87 %
26.05.2019 06:02 13,5 C 18,9 C 12,8 C 86 % 1014,3 hPa 0,0 l/m 14,7 km/h (3 Bft) SW 229 0 min 0,000 mm 0,0 UV-I 39 W/m 11,2 C 9,5 C 19,3 km/h (3 Bft) 100,00 %
26.05.2019 06:04 13,5 C 18,9 C 12,8 C 86 % 1014,3 hPa 0,0 l/m 11,1 km/h (2 Bft) W 262 0 min 0,000 mm 0,0 UV-I 40 W/m 11,2 C 10,9 C 16,1 km/h (3 Bft) 98,00 %
26.05.2019 06:06 13,5 C 18,9 C 12,8 C 86 % 1014,4 hPa 0,0 l/m 10,4 km/h (2 Bft) W-SW 240 0 min 0,000 mm 0,0 UV-I 44 W/m 11,2 C 11,3 C 16,1 km/h (3 Bft) 100,00 %
26.05.2019 06:08 13,4 C 18,9 C 12,8 C 86 % 1014,4 hPa 0,0 l/m 10,4 km/h (2 Bft) W-SW 248 0 min 0,000 mm 0,0 UV-I 49 W/m 11,1 C 11,2 C 17,7 km/h (3 Bft) 100,00 %
26.05.2019 06:10 13,4 C 18,9 C 12,8 C 86 % 1014,3 hPa 0,0 l/m 10,5 km/h (2 Bft) W-SW 240 0 min 0,000 mm 0,0 UV-I 54 W/m 11,1 C 11,1 C 16,1 km/h (3 Bft) 97,92 %
26.05.2019 06:12 13,4 C 18,9 C 12,8 C 86 % 1014,4 hPa 0,0 l/m 11,6 km/h (2 Bft) SW 231 0 min 0,000 mm 0,0 UV-I 55 W/m 11,1 C 10,6 C 17,7 km/h (3 Bft) 100,00 %
26.05.2019 06:14 13,5 C 18,9 C 12,8 C 86 % 1014,4 hPa 0,0 l/m 11,3 km/h (2 Bft) W-SW 246 0 min 0,000 mm 0,0 UV-I 57 W/m 11,2 C 10,9 C 16,1 km/h (3 Bft) 100,00 %
26.05.2019 06:16 13,5 C 18,9 C 12,8 C 86 % 1014,4 hPa 0,0 l/m 11,3 km/h (2 Bft) W-SW 257 0 min 0,000 mm 0,0 UV-I 65 W/m 11,2 C 10,9 C 17,7 km/h (3 Bft) 100,00 %
26.05.2019 06:18 13,5 C 18,9 C 12,8 C 86 % 1014,4 hPa 0,0 l/m 9,9 km/h (2 Bft) SW 227 0 min 0,000 mm 0,0 UV-I 69 W/m 11,2 C 11,5 C 16,1 km/h (3 Bft) 95,74 %
26.05.2019 06:20 13,6 C 18,9 C 12,8 C 86 % 1014,4 hPa 0,0 l/m 10,8 km/h (2 Bft) W-SW 242 0 min 0,000 mm 0,0 UV-I 68 W/m 11,3 C 11,2 C 16,1 km/h (3 Bft) 97,87 %
26.05.2019 06:22 13,6 C 18,9 C 12,8 C 86 % 1014,4 hPa 0,0 l/m 8,9 km/h (2 Bft) W-SW 249 0 min 0,000 mm 0,0 UV-I 68 W/m 11,3 C 12,1 C 14,5 km/h (3 Bft) 100,00 %
26.05.2019 06:24 13,6 C 18,9 C 13,3 C 86 % 1014,4 hPa 0,0 l/m 12,8 km/h (3 Bft) W-SW 244 0 min 0,000 mm 0,0 UV-I 64 W/m 11,3 C 10,3 C 19,3 km/h (3 Bft) 100,00 %
26.05.2019 06:26 13,7 C 18,9 C 13,3 C 86 % 1014,4 hPa 0,0 l/m 10,4 km/h (2 Bft) SW 219 0 min 0,000 mm 0,0 UV-I 68 W/m 11,4 C 11,5 C 16,1 km/h (3 Bft) 100,00 %
26.05.2019 06:28 13,7 C 18,9 C 13,3 C 86 % 1014,4 hPa 0,0 l/m 10,5 km/h (2 Bft) W-SW 243 0 min 0,000 mm 0,0 UV-I 72 W/m 11,4 C 11,4 C 17,7 km/h (3 Bft) 100,00 %
26.05.2019 06:30 13,7 C 18,9 C 13,3 C 86 % 1014,4 hPa 0,0 l/m 12,0 km/h (2 Bft) W 263 0 min 0,000 mm 0,0 UV-I 79 W/m 11,4 C 10,8 C 17,7 km/h (3 Bft) 97,87 %
26.05.2019 06:32 13,7 C 18,9 C 13,3 C 86 % 1014,4 hPa 0,0 l/m 11,4 km/h (2 Bft) W-SW 242 0 min 0,000 mm 0,0 UV-I 87 W/m 11,4 C 11,0 C 19,3 km/h (3 Bft) 97,96 %
26.05.2019 06:34 13,8 C 18,9 C 13,9 C 85 % 1014,5 hPa 0,0 l/m 11,0 km/h (2 Bft) W 279 0 min 0,000 mm 0,0 UV-I 92 W/m 11,3 C 11,3 C 16,1 km/h (3 Bft) 97,87 %
26.05.2019 06:36 13,8 C 18,9 C 13,9 C 85 % 1014,5 hPa 0,0 l/m 14,7 km/h (3 Bft) W-SW 241 0 min 0,000 mm 0,0 UV-I 100 W/m 11,3 C 9,8 C 24,1 km/h (4 Bft) 97,87 %
26.05.2019 06:38 13,9 C 18,9 C 13,9 C 85 % 1014,5 hPa 0,0 l/m 14,8 km/h (3 Bft) W-SW 241 0 min 0,000 mm 0,0 UV-I 108 W/m 11,4 C 9,9 C 19,3 km/h (3 Bft) 98,00 %
26.05.2019 06:40 13,9 C 18,9 C 14,4 C 85 % 1014,5 hPa 0,0 l/m 11,9 km/h (2 Bft) W-SW 257 2 min 0,000 mm 0,0 UV-I 118 W/m 11,4 C 11,0 C 16,1 km/h (3 Bft) 93,62 %
26.05.2019 06:42 14,0 C 18,9 C 14,4 C 85 % 1014,5 hPa 0,0 l/m 10,7 km/h (2 Bft) W-SW 254 2 min 0,000 mm 0,0 UV-I 151 W/m 11,5 C 11,7 C 17,7 km/h (3 Bft) 100,00 %
26.05.2019 06:44 14,1 C 18,9 C 14,4 C 84 % 1014,5 hPa 0,0 l/m 12,8 km/h (3 Bft) SW 225 2 min 0,000 mm 0,0 UV-I 186 W/m 11,4 C 10,9 C 20,9 km/h (4 Bft) 93,75 %
26.05.2019 06:46 14,2 C 18,9 C 14,4 C 84 % 1014,5 hPa 0,0 l/m 13,7 km/h (3 Bft) SW 236 2 min 0,000 mm 0,0 UV-I 175 W/m 11,5 C 10,7 C 19,3 km/h (3 Bft) 95,74 %
26.05.2019 06:48 14,3 C 18,9 C 15,0 C 84 % 1014,5 hPa 0,0 l/m 9,1 km/h (2 Bft) W-SW 238 2 min 0,000 mm 0,0 UV-I 189 W/m 11,6 C 12,8 C 14,5 km/h (3 Bft) 95,74 %
26.05.2019 06:50 14,3 C 18,9 C 15,0 C 83 % 1014,5 hPa 0,0 l/m 12,6 km/h (3 Bft) SW 232 2 min 0,000 mm 0,0 UV-I 196 W/m 11,5 C 11,2 C 20,9 km/h (4 Bft) 97,14 %
26.05.2019 06:52 14,4 C 18,9 C 15,0 C 83 % 1014,5 hPa 0,0 l/m 10,1 km/h (2 Bft) W-SW 242 2 min 0,000 mm 0,0 UV-I 200 W/m 11,5 C 12,4 C 14,5 km/h (3 Bft) 94,00 %
26.05.2019 06:54 14,4 C 18,9 C 15,0 C 83 % 1014,5 hPa 0,0 l/m 13,5 km/h (3 Bft) W 259 2 min 0,000 mm 0,0 UV-I 204 W/m 11,5 C 11,0 C 19,3 km/h (3 Bft) 95,74 %
26.05.2019 06:56 14,5 C 18,9 C 15,0 C 83 % 1014,5 hPa 0,0 l/m 13,4 km/h (3 Bft) W-SW 238 2 min 0,000 mm 0,0 UV-I 204 W/m 11,6 C 11,2 C 19,3 km/h (3 Bft) 98,00 %
26.05.2019 06:58 14,6 C 18,9 C 15,0 C 83 % 1014,5 hPa 0,0 l/m 13,3 km/h (3 Bft) W-SW 238 2 min 0,000 mm 0,0 UV-I 213 W/m 11,7 C 11,3 C 19,3 km/h (3 Bft) 95,74 %
26.05.2019 07:00 14,6 C 18,9 C 15,0 C 82 % 1014,5 hPa 0,0 l/m 13,8 km/h (3 Bft) W 269 2 min 0,076 mm 0,0 UV-I 220 W/m 11,6 C 11,1 C 17,7 km/h (3 Bft) 95,74 %
26.05.2019 07:02 14,7 C 18,9 C 15,6 C 82 % 1014,6 hPa 0,0 l/m 14,8 km/h (3 Bft) W-SW 239 2 min 0,000 mm 0,0 UV-I 228 W/m 11,7 C 10,9 C 22,5 km/h (4 Bft) 96,00 %
26.05.2019 07:04 14,8 C 18,9 C 15,6 C 82 % 1014,6 hPa 0,0 l/m 10,6 km/h (2 Bft) W 274 2 min 0,000 mm 0,0 UV-I 231 W/m 11,8 C 12,6 C 14,5 km/h (3 Bft) 97,87 %
26.05.2019 07:06 14,9 C 18,9 C 15,6 C 82 % 1014,6 hPa 0,0 l/m 8,5 km/h (2 Bft) W 275 2 min 0,000 mm 0,0 UV-I 236 W/m 11,9 C 13,7 C 14,5 km/h (3 Bft) 98,00 %
26.05.2019 07:08 15,0 C 18,9 C 15,6 C 82 % 1014,6 hPa 0,0 l/m 9,6 km/h (2 Bft) W-SW 250 2 min 0,000 mm 0,0 UV-I 247 W/m 12,0 C 13,3 C 16,1 km/h (3 Bft) 97,87 %
26.05.2019 07:10 15,0 C 18,9 C 15,6 C 82 % 1014,6 hPa 0,0 l/m 14,0 km/h (3 Bft) W 261 2 min 0,000 mm 0,0 UV-I 257 W/m 12,0 C 11,5 C 19,3 km/h (3 Bft) 95,74 %
26.05.2019 07:12 15,1 C 18,9 C 16,1 C 81 % 1014,6 hPa 0,0 l/m 9,1 km/h (2 Bft) SW 231 2 min 0,000 mm 0,0 UV-I 268 W/m 11,9 C 13,6 C 14,5 km/h (3 Bft) 97,87 %
26.05.2019 07:14 15,1 C 18,9 C 16,1 C 81 % 1014,6 hPa 0,0 l/m 17,5 km/h (3 Bft) W 261 2 min 0,000 mm 0,0 UV-I 274 W/m 11,9 C 10,5 C 27,4 km/h (4 Bft) 97,14 %
26.05.2019 07:16 15,1 C 18,9 C 16,1 C 81 % 1014,7 hPa 0,0 l/m 13,5 km/h (3 Bft) W-SW 253 2 min 0,000 mm 0,0 UV-I 278 W/m 11,9 C 11,8 C 20,9 km/h (4 Bft) 96,15 %
26.05.2019 07:18 15,2 C 18,9 C 16,1 C 81 % 1014,7 hPa 0,0 l/m 10,1 km/h (2 Bft) SW 221 2 min 0,000 mm 0,0 UV-I 281 W/m 12,0 C 13,3 C 17,7 km/h (3 Bft) 98,00 %
26.05.2019 07:20 15,2 C 18,9 C 16,1 C 80 % 1014,6 hPa 0,0 l/m 15,7 km/h (3 Bft) W-SW 251 2 min 0,000 mm 0,0 UV-I 276 W/m 11,8 C 11,2 C 25,7 km/h (4 Bft) 100,00 %
26.05.2019 07:22 15,3 C 18,9 C 16,7 C 80 % 1014,7 hPa 0,0 l/m 13,6 km/h (3 Bft) W-SW 243 2 min 0,000 mm 0,0 UV-I 287 W/m 11,9 C 12,0 C 20,9 km/h (4 Bft) 100,00 %
26.05.2019 07:24 15,3 C 18,9 C 16,7 C 80 % 1014,7 hPa 0,0 l/m 14,2 km/h (3 Bft) W-SW 244 2 min 0,000 mm 0,0 UV-I 285 W/m 11,9 C 11,8 C 24,1 km/h (4 Bft) 93,62 %
26.05.2019 07:26 15,3 C 18,9 C 16,7 C 80 % 1014,7 hPa 0,0 l/m 13,0 km/h (3 Bft) W 261 2 min 0,000 mm 0,0 UV-I 261 W/m 11,9 C 12,2 C 24,1 km/h (4 Bft) 100,00 %
26.05.2019 07:28 15,4 C 18,9 C 16,7 C 80 % 1014,7 hPa 0,0 l/m 10,0 km/h (2 Bft) SW 228 2 min 0,000 mm 0,1 UV-I 284 W/m 12,0 C 13,6 C 16,1 km/h (3 Bft) 100,00 %
26.05.2019 07:30 15,4 C 18,9 C 16,7 C 79 % 1014,6 hPa 0,0 l/m 13,1 km/h (3 Bft) W-SW 242 2 min 0,000 mm 0,5 UV-I 285 W/m 11,8 C 12,3 C 19,3 km/h (3 Bft) 100,00 %
26.05.2019 07:32 15,4 C 18,9 C 16,7 C 79 % 1014,7 hPa 0,0 l/m 12,3 km/h (3 Bft) W 267 2 min 0,000 mm 0,5 UV-I 205 W/m 11,8 C 12,6 C 16,1 km/h (3 Bft) 100,00 %
26.05.2019 07:34 15,4 C 18,9 C 16,7 C 79 % 1014,7 hPa 0,0 l/m 15,8 km/h (3 Bft) W 263 2 min 0,000 mm 0,5 UV-I 275 W/m 11,8 C 11,4 C 20,9 km/h (4 Bft) 98,00 %
26.05.2019 07:36 15,4 C 18,9 C 16,7 C 79 % 1014,7 hPa 0,0 l/m 13,9 km/h (3 Bft) W-SW 245 2 min 0,000 mm 0,5 UV-I 317 W/m 11,8 C 12,0 C 24,1 km/h (4 Bft) 97,87 %
26.05.2019 07:38 15,4 C 18,9 C 16,7 C 79 % 1014,7 hPa 0,0 l/m 15,6 km/h (3 Bft) W-SW 252 2 min 0,000 mm 0,5 UV-I 262 W/m 11,8 C 11,5 C 24,1 km/h (4 Bft) 95,74 %
26.05.2019 07:40 15,4 C 18,9 C 16,7 C 79 % 1014,8 hPa 0,0 l/m 17,8 km/h (3 Bft) W-SW 257 2 min 0,000 mm 0,5 UV-I 214 W/m 11,8 C 10,8 C 25,7 km/h (4 Bft) 95,74 %
26.05.2019 07:42 15,3 C 18,9 C 16,7 C 79 % 1014,8 hPa 0,0 l/m 14,8 km/h (3 Bft) SW 223 2 min 0,000 mm 0,5 UV-I 209 W/m 11,7 C 11,6 C 19,3 km/h (3 Bft) 98,00 %
26.05.2019 07:44 15,3 C 18,9 C 16,7 C 79 % 1014,8 hPa 0,0 l/m 14,5 km/h (3 Bft) W 259 2 min 0,000 mm 0,5 UV-I 214 W/m 11,7 C 11,7 C 19,3 km/h (3 Bft) 93,62 %
26.05.2019 07:46 15,2 C 18,9 C 16,7 C 79 % 1014,8 hPa 0,0 l/m 13,9 km/h (3 Bft) W-SW 254 2 min 0,000 mm 0,6 UV-I 223 W/m 11,6 C 11,8 C 20,9 km/h (4 Bft) 95,74 %
26.05.2019 07:48 15,2 C 18,9 C 17,2 C 80 % 1014,8 hPa 0,0 l/m 12,7 km/h (3 Bft) W-SW 238 2 min 0,000 mm 0,6 UV-I 233 W/m 11,8 C 12,2 C 22,5 km/h (4 Bft) 98,00 %
26.05.2019 07:50 15,2 C 18,9 C 16,7 C 80 % 1014,8 hPa 0,0 l/m 20,0 km/h (4 Bft) W-SW 253 2 min 0,000 mm 0,6 UV-I 265 W/m 11,8 C 10,0 C 25,7 km/h (4 Bft) 97,87 %
26.05.2019 07:52 15,3 C 18,9 C 16,7 C 80 % 1014,7 hPa 0,0 l/m 13,4 km/h (3 Bft) SW 236 2 min 0,000 mm 0,6 UV-I 293 W/m 11,9 C 12,1 C 19,3 km/h (3 Bft) 97,22 %
26.05.2019 07:54 15,3 C 18,9 C 16,7 C 80 % 1014,7 hPa 0,0 l/m 12,8 km/h (3 Bft) W-SW 244 2 min 0,000 mm 0,7 UV-I 295 W/m 11,9 C 12,3 C 17,7 km/h (3 Bft) 93,62 %
26.05.2019 07:56 15,4 C 18,9 C 16,7 C 79 % 1014,8 hPa 0,0 l/m 13,5 km/h (3 Bft) W 275 2 min 0,000 mm 0,7 UV-I 365 W/m 11,8 C 12,2 C 19,3 km/h (3 Bft) 98,00 %
26.05.2019 07:58 15,4 C 18,9 C 16,7 C 79 % 1014,7 hPa 0,0 l/m 14,8 km/h (3 Bft) W 269 2 min 0,000 mm 0,7 UV-I 380 W/m 11,8 C 11,7 C 20,9 km/h (4 Bft) 94,29 %
26.05.2019 08:00 15,6 C 18,9 C 17,2 C 80 % 1014,7 hPa 0,0 l/m 9,2 km/h (2 Bft) W 260 2 min 0,178 mm 0,7 UV-I 383 W/m 12,2 C 14,1 C 16,1 km/h (3 Bft) 95,38 %
26.05.2019 08:02 15,7 C 18,9 C 17,2 C 79 % 1014,8 hPa 0,0 l/m 13,0 km/h (3 Bft) W-SW 244 2 min 0,000 mm 0,8 UV-I 389 W/m 12,1 C 12,7 C 16,1 km/h (3 Bft) 95,74 %
26.05.2019 08:04 15,8 C 18,9 C 17,2 C 78 % 1014,8 hPa 0,0 l/m 14,7 km/h (3 Bft) SW 236 2 min 0,000 mm 0,8 UV-I 404 W/m 12,0 C 12,3 C 19,3 km/h (3 Bft) 95,74 %
26.05.2019 08:06 15,8 C 18,9 C 17,2 C 78 % 1014,8 hPa 0,0 l/m 11,0 km/h (2 Bft) W-SW 240 2 min 0,000 mm 0,8 UV-I 407 W/m 12,0 C 13,6 C 22,5 km/h (4 Bft) 92,11 %
26.05.2019 08:08 15,8 C 18,9 C 17,2 C 78 % 1014,8 hPa 0,0 l/m 14,2 km/h (3 Bft) W 281 2 min 0,000 mm 0,8 UV-I 414 W/m 12,0 C 12,4 C 19,3 km/h (3 Bft) 95,74 %
26.05.2019 08:10 15,8 C 18,9 C 17,8 C 78 % 1014,8 hPa 0,0 l/m 13,6 km/h (3 Bft) W 265 2 min 0,000 mm 0,8 UV-I 421 W/m 12,0 C 12,6 C 17,7 km/h (3 Bft) 94,00 %
26.05.2019 08:12 15,9 C 18,9 C 17,8 C 78 % 1014,8 hPa 0,0 l/m 9,5 km/h (2 Bft) W 262 2 min 0,000 mm 0,9 UV-I 416 W/m 12,1 C 14,3 C 12,9 km/h (3 Bft) 96,23 %
26.05.2019 08:14 15,9 C 18,9 C 17,8 C 78 % 1014,8 hPa 0,0 l/m 11,6 km/h (2 Bft) W 259 2 min 0,000 mm 0,9 UV-I 403 W/m 12,1 C 13,5 C 19,3 km/h (3 Bft) 94,74 %
26.05.2019 08:16 16,1 C 18,9 C 17,8 C 77 % 1014,8 hPa 0,0 l/m 12,2 km/h (2 Bft) W-SW 246 2 min 0,000 mm 0,9 UV-I 429 W/m 12,1 C 13,5 C 17,7 km/h (3 Bft) 94,00 %
26.05.2019 08:18 16,1 C 18,9 C 17,8 C 76 % 1014,8 hPa 0,0 l/m 12,3 km/h (3 Bft) W-NW 288 2 min 0,000 mm 0,9 UV-I 400 W/m 11,9 C 13,4 C 16,1 km/h (3 Bft) 94,00 %
26.05.2019 08:20 16,2 C 18,9 C 18,3 C 77 % 1014,8 hPa 0,0 l/m 11,0 km/h (2 Bft) W 276 2 min 0,000 mm 1,0 UV-I 436 W/m 12,2 C 14,0 C 16,1 km/h (3 Bft) 92,11 %
26.05.2019 08:22 16,2 C 18,9 C 18,3 C 76 % 1014,8 hPa 0,0 l/m 11,3 km/h (2 Bft) W-SW 254 2 min 0,000 mm 1,0 UV-I 395 W/m 12,0 C 13,9 C 17,7 km/h (3 Bft) 94,00 %
26.05.2019 08:24 16,2 C 18,9 C 18,3 C 76 % 1014,8 hPa 0,0 l/m 10,8 km/h (2 Bft) W 266 2 min 0,000 mm 1,0 UV-I 411 W/m 12,0 C 14,1 C 19,3 km/h (3 Bft) 93,62 %
26.05.2019 08:26 16,3 C 18,9 C 18,3 C 76 % 1014,8 hPa 0,0 l/m 9,6 km/h (2 Bft) SW 218 2 min 0,000 mm 1,0 UV-I 435 W/m 12,1 C 14,7 C 16,1 km/h (3 Bft) 95,74 %
26.05.2019 08:28 16,3 C 18,9 C 18,9 C 76 % 1014,8 hPa 0,0 l/m 11,7 km/h (2 Bft) SW 235 2 min 0,000 mm 1,1 UV-I 449 W/m 12,1 C 13,9 C 22,5 km/h (4 Bft) 97,87 %
26.05.2019 08:30 16,3 C 18,9 C 18,9 C 75 % 1014,9 hPa 0,0 l/m 14,8 km/h (3 Bft) SW 232 2 min 0,000 mm 1,1 UV-I 432 W/m 11,9 C 12,8 C 22,5 km/h (4 Bft) 100,00 %
26.05.2019 08:32 16,2 C 18,9 C 18,3 C 74 % 1014,9 hPa 0,0 l/m 17,0 km/h (3 Bft) W-SW 238 2 min 0,000 mm 1,0 UV-I 345 W/m 11,6 C 12,1 C 27,4 km/h (4 Bft) 100,00 %
26.05.2019 08:34 16,0 C 18,9 C 18,9 C 75 % 1014,9 hPa 0,0 l/m 18,1 km/h (3 Bft) W-SW 257 2 min 0,000 mm 1,1 UV-I 310 W/m 11,6 C 11,5 C 24,1 km/h (4 Bft) 100,00 %
26.05.2019 08:36 16,1 C 18,9 C 20,0 C 76 % 1015,0 hPa 0,0 l/m 17,6 km/h (3 Bft) W-SW 240 2 min 0,000 mm 0,7 UV-I 480 W/m 11,9 C 11,8 C 27,4 km/h (4 Bft) 98,11 %
26.05.2019 08:38 16,2 C 18,9 C 21,1 C 76 % 1014,9 hPa 0,0 l/m 18,0 km/h (3 Bft) W-NW 290 2 min 0,000 mm 1,2 UV-I 504 W/m 12,0 C 11,8 C 24,1 km/h (4 Bft) 100,00 %
26.05.2019 08:40 16,2 C 18,9 C 21,1 C 76 % 1014,9 hPa 0,0 l/m 14,0 km/h (3 Bft) W-SW 240 2 min 0,000 mm 1,2 UV-I 456 W/m 12,0 C 13,0 C 20,9 km/h (4 Bft) 97,22 %
26.05.2019 08:42 16,2 C 18,9 C 21,7 C 75 % 1014,9 hPa 0,0 l/m 15,3 km/h (3 Bft) SW 236 2 min 0,000 mm 1,1 UV-I 383 W/m 11,8 C 12,6 C 20,9 km/h (4 Bft) 98,00 %
26.05.2019 08:44 16,1 C 18,9 C 20,6 C 75 % 1014,9 hPa 0,0 l/m 18,2 km/h (3 Bft) SW 221 2 min 0,000 mm 1,1 UV-I 319 W/m 11,7 C 11,6 C 24,1 km/h (4 Bft) 97,87 %
26.05.2019 08:46 16,1 C 18,9 C 20,6 C 75 % 1014,9 hPa 0,0 l/m 15,9 km/h (3 Bft) S-SW 212 2 min 0,000 mm 1,2 UV-I 323 W/m 11,7 C 12,3 C 22,5 km/h (4 Bft) 95,74 %
26.05.2019 08:48 15,9 C 18,9 C 20,0 C 75 % 1014,9 hPa 0,0 l/m 14,3 km/h (3 Bft) W-NW 284 0 min 0,000 mm 1,2 UV-I 287 W/m 11,5 C 12,5 C 20,9 km/h (4 Bft) 100,00 %
26.05.2019 08:50 15,9 C 18,9 C 20,6 C 76 % 1014,9 hPa 0,0 l/m 11,1 km/h (2 Bft) W-SW 255 0 min 0,000 mm 1,2 UV-I 298 W/m 11,7 C 13,7 C 19,3 km/h (3 Bft) 97,14 %
26.05.2019 08:52 15,9 C 18,9 C 20,6 C 75 % 1014,9 hPa 0,0 l/m 13,9 km/h (3 Bft) W 265 0 min 0,000 mm 1,2 UV-I 282 W/m 11,5 C 12,6 C 20,9 km/h (4 Bft) 98,39 %
26.05.2019 08:54 15,9 C 18,9 C 21,1 C 75 % 1014,9 hPa 0,0 l/m 13,5 km/h (3 Bft) SW 223 2 min 0,000 mm 1,3 UV-I 351 W/m 11,5 C 12,8 C 22,5 km/h (4 Bft) 97,87 %
26.05.2019 08:56 16,2 C 18,9 C 23,9 C 77 % 1014,9 hPa 0,0 l/m 10,8 km/h (2 Bft) W 260 2 min 0,000 mm 1,5 UV-I 518 W/m 12,2 C 14,1 C 17,7 km/h (3 Bft) 92,11 %
26.05.2019 08:58 16,4 C 18,9 C 25,6 C 75 % 1014,8 hPa 0,0 l/m 10,7 km/h (2 Bft) W 268 2 min 0,000 mm 1,5 UV-I 591 W/m 12,0 C 14,4 C 19,3 km/h (3 Bft) 97,87 %
26.05.2019 09:00 16,6 C 18,9 C 26,1 C 74 % 1014,9 hPa 0,0 l/m 9,3 km/h (2 Bft) W 265 2 min 0,000 mm 1,6 UV-I 583 W/m 11,9 C 15,2 C 19,3 km/h (3 Bft) 97,87 %
26.05.2019 09:02 16,6 C 18,9 C 26,1 C 73 % 1014,8 hPa 0,0 l/m 13,6 km/h (3 Bft) W-SW 243 2 min 0,254 mm 1,5 UV-I 584 W/m 11,7 C 13,6 C 19,3 km/h (3 Bft) 96,00 %
26.05.2019 09:04 16,6 C 18,9 C 27,2 C 73 % 1014,9 hPa 0,0 l/m 9,8 km/h (2 Bft) W-SW 242 2 min 0,000 mm 1,3 UV-I 583 W/m 11,7 C 15,0 C 17,7 km/h (3 Bft) 94,00 %
26.05.2019 09:06 16,5 C 18,9 C 27,2 C 74 % 1014,9 hPa 0,0 l/m 13,6 km/h (3 Bft) W-SW 255 2 min 0,000 mm 1,7 UV-I 578 W/m 11,8 C 13,4 C 17,7 km/h (3 Bft) 95,74 %
26.05.2019 09:08 16,4 C 18,9 C 26,1 C 73 % 1014,9 hPa 0,0 l/m 14,8 km/h (3 Bft) W 261 2 min 0,000 mm 1,6 UV-I 555 W/m 11,5 C 12,9 C 19,3 km/h (3 Bft) 97,87 %
26.05.2019 09:10 16,4 C 18,9 C 26,1 C 73 % 1014,9 hPa 0,0 l/m 12,6 km/h (3 Bft) W-NW 298 2 min 0,000 mm 1,6 UV-I 512 W/m 11,5 C 13,7 C 20,9 km/h (4 Bft) 97,44 %
26.05.2019 09:12 16,4 C 18,9 C 26,7 C 73 % 1014,9 hPa 0,0 l/m 12,0 km/h (2 Bft) W 266 2 min 0,000 mm 1,7 UV-I 528 W/m 11,5 C 13,9 C 20,9 km/h (4 Bft) 98,00 %
26.05.2019 09:14 16,5 C 18,9 C 27,2 C 74 % 1014,9 hPa 0,0 l/m 11,3 km/h (2 Bft) W-SW 256 2 min 0,000 mm 1,8 UV-I 560 W/m 11,8 C 14,3 C 16,1 km/h (3 Bft) 98,00 %
26.05.2019 09:16 16,6 C 18,9 C 27,8 C 75 % 1014,9 hPa 0,0 l/m 8,6 km/h (2 Bft) W 263 2 min 0,000 mm 1,8 UV-I 567 W/m 12,1 C 15,5 C 14,5 km/h (3 Bft) 98,00 %
26.05.2019 09:18 16,7 C 18,9 C 28,3 C 73 % 1014,9 hPa 0,0 l/m 7,1 km/h (2 Bft) W 264 2 min 0,000 mm 1,8 UV-I 575 W/m 11,8 C 16,3 C 12,9 km/h (3 Bft) 97,87 %
26.05.2019 09:20 16,7 C 18,9 C 27,8 C 73 % 1014,9 hPa 0,0 l/m 9,2 km/h (2 Bft) W 275 2 min 0,000 mm 1,9 UV-I 582 W/m 11,8 C 15,3 C 19,3 km/h (3 Bft) 95,74 %
26.05.2019 09:22 16,7 C 18,9 C 27,8 C 73 % 1014,9 hPa 0,0 l/m 13,7 km/h (3 Bft) W-SW 250 2 min 0,000 mm 1,9 UV-I 591 W/m 11,8 C 13,7 C 19,3 km/h (3 Bft) 100,00 %
26.05.2019 09:24 16,9 C 18,9 C 28,3 C 75 % 1014,9 hPa 0,0 l/m 9,7 km/h (2 Bft) W-SW 246 2 min 0,000 mm 2,0 UV-I 599 W/m 12,4 C 15,3 C 22,5 km/h (4 Bft) 98,00 %
26.05.2019 09:26 17,2 C 18,9 C 28,9 C 74 % 1015,0 hPa 0,0 l/m 10,6 km/h (2 Bft) W-SW 240 2 min 0,000 mm 2,0 UV-I 603 W/m 12,5 C 15,3 C 19,3 km/h (3 Bft) 97,87 %
26.05.2019 09:28 17,2 C 18,9 C 28,9 C 72 % 1015,0 hPa 0,0 l/m 9,9 km/h (2 Bft) W-NW 282 2 min 0,000 mm 2,0 UV-I 603 W/m 12,1 C 15,6 C 19,3 km/h (3 Bft) 95,74 %
26.05.2019 09:30 17,1 C 18,9 C 28,3 C 72 % 1015,0 hPa 0,0 l/m 14,3 km/h (3 Bft) W-SW 258 2 min 0,000 mm 2,1 UV-I 609 W/m 12,0 C 13,9 C 22,5 km/h (4 Bft) 96,00 %
26.05.2019 09:32 16,9 C 18,9 C 28,3 C 71 % 1015,0 hPa 0,0 l/m 11,7 km/h (2 Bft) W-SW 252 2 min 0,000 mm 2,1 UV-I 611 W/m 11,6 C 14,6 C 19,3 km/h (3 Bft) 93,62 %
26.05.2019 09:34 16,9 C 18,9 C 28,3 C 72 % 1015,0 hPa 0,0 l/m 8,2 km/h (2 Bft) W-SW 250 2 min 0,000 mm 2,1 UV-I 609 W/m 11,8 C 16,0 C 14,5 km/h (3 Bft) 98,00 %
26.05.2019 09:36 16,9 C 18,9 C 28,9 C 72 % 1015,0 hPa 0,0 l/m 12,2 km/h (2 Bft) SW 217 2 min 0,000 mm 2,2 UV-I 607 W/m 11,8 C 14,4 C 17,7 km/h (3 Bft) 94,74 %
26.05.2019 09:38 17,1 C 18,9 C 29,4 C 73 % 1015,0 hPa 0,0 l/m 9,2 km/h (2 Bft) S 171 2 min 0,000 mm 2,2 UV-I 614 W/m 12,2 C 15,8 C 16,1 km/h (3 Bft) 97,87 %
26.05.2019 09:40 17,2 C 18,9 C 28,9 C 73 % 1015,1 hPa 0,0 l/m 16,5 km/h (3 Bft) SW 227 2 min 0,000 mm 2,2 UV-I 636 W/m 12,3 C 13,4 C 24,1 km/h (4 Bft) 98,00 %
26.05.2019 09:42 17,2 C 18,9 C 28,9 C 72 % 1015,0 hPa 0,0 l/m 11,5 km/h (2 Bft) W 271 2 min 0,000 mm 2,3 UV-I 643 W/m 12,1 C 15,0 C 20,9 km/h (4 Bft) 97,87 %
26.05.2019 09:44 17,3 C 18,9 C 30,0 C 72 % 1015,1 hPa 0,0 l/m 11,9 km/h (2 Bft) S-SW 197 2 min 0,000 mm 2,3 UV-I 658 W/m 12,2 C 15,0 C 19,3 km/h (3 Bft) 97,87 %
26.05.2019 09:46 17,4 C 18,9 C 31,1 C 73 % 1015,1 hPa 0,0 l/m 11,4 km/h (2 Bft) W-SW 257 2 min 0,000 mm 2,3 UV-I 655 W/m 12,5 C 15,2 C 17,7 km/h (3 Bft) 97,87 %
26.05.2019 09:48 17,6 C 18,9 C 31,1 C 72 % 1015,1 hPa 0,0 l/m 11,7 km/h (2 Bft) W-NW 284 2 min 0,000 mm 2,4 UV-I 673 W/m 12,5 C 15,4 C 16,1 km/h (3 Bft) 100,00 %
26.05.2019 09:50 17,7 C 18,9 C 31,1 C 72 % 1015,1 hPa 0,0 l/m 9,9 km/h (2 Bft) W-SW 240 2 min 0,000 mm 2,4 UV-I 646 W/m 12,6 C 16,1 C 17,7 km/h (3 Bft) 97,87 %
26.05.2019 09:52 17,7 C 18,9 C 31,1 C 71 % 1015,1 hPa 0,0 l/m 13,2 km/h (3 Bft) W 263 2 min 0,000 mm 2,5 UV-I 680 W/m 12,4 C 15,0 C 20,9 km/h (4 Bft) 100,00 %
26.05.2019 09:54 17,6 C 18,9 C 30,6 C 70 % 1015,1 hPa 0,0 l/m 14,4 km/h (3 Bft) W 261 2 min 0,000 mm 2,5 UV-I 689 W/m 12,1 C 14,5 C 20,9 km/h (4 Bft) 100,00 %
26.05.2019 09:56 17,5 C 18,9 C 30,6 C 71 % 1015,1 hPa 0,0 l/m 13,3 km/h (3 Bft) W-SW 258 2 min 0,000 mm 2,5 UV-I 670 W/m 12,2 C 14,7 C 19,3 km/h (3 Bft) 100,00 %
26.05.2019 09:58 17,6 C 18,9 C 30,6 C 71 % 1015,1 hPa 0,0 l/m 15,0 km/h (3 Bft) W 259 2 min 0,000 mm 2,5 UV-I 649 W/m 12,3 C 14,3 C 22,5 km/h (4 Bft) 100,00 %
26.05.2019 10:00 17,5 C 18,9 C 29,4 C 71 % 1015,1 hPa 0,0 l/m 14,3 km/h (3 Bft) SW 230 2 min 0,381 mm 2,5 UV-I 647 W/m 12,2 C 14,4 C 20,9 km/h (4 Bft) 100,00 %
26.05.2019 10:02 17,6 C 18,9 C 30,0 C 71 % 1015,1 hPa 0,0 l/m 11,9 km/h (2 Bft) SW 234 2 min 0,000 mm 2,6 UV-I 669 W/m 12,3 C 15,3 C 19,3 km/h (3 Bft) 100,00 %
26.05.2019 10:04 17,5 C 18,9 C 30,0 C 71 % 1015,0 hPa 0,0 l/m 12,3 km/h (3 Bft) W 266 2 min 0,000 mm 2,6 UV-I 693 W/m 12,2 C 15,0 C 20,9 km/h (4 Bft) 95,74 %
26.05.2019 10:06 17,4 C 18,9 C 30,6 C 70 % 1015,0 hPa 0,0 l/m 13,5 km/h (3 Bft) W-SW 254 2 min 0,000 mm 2,7 UV-I 718 W/m 11,9 C 14,5 C 19,3 km/h (3 Bft) 97,87 %
26.05.2019 10:08 17,4 C 18,9 C 30,6 C 70 % 1015,0 hPa 0,0 l/m 12,2 km/h (2 Bft) W-NW 288 2 min 0,000 mm 2,8 UV-I 723 W/m 11,9 C 15,0 C 16,1 km/h (3 Bft) 100,00 %
26.05.2019 10:10 17,4 C 18,9 C 31,1 C 71 % 1015,0 hPa 0,0 l/m 5,7 km/h (1 Bft) W-SW 254 2 min 0,000 mm 2,8 UV-I 724 W/m 12,1 C 17,4 C 9,7 km/h (2 Bft) 100,00 %
26.05.2019 10:12 17,6 C 18,9 C 31,1 C 72 % 1015,0 hPa 0,0 l/m 12,6 km/h (3 Bft) SW 236 2 min 0,000 mm 2,9 UV-I 726 W/m 12,5 C 15,1 C 22,5 km/h (4 Bft) 97,87 %
26.05.2019 10:14 17,7 C 18,9 C 31,1 C 70 % 1015,0 hPa 0,0 l/m 10,6 km/h (2 Bft) SW 234 2 min 0,000 mm 2,9 UV-I 719 W/m 12,2 C 15,9 C 19,3 km/h (3 Bft) 97,87 %
26.05.2019 10:16 17,8 C 18,9 C 31,7 C 71 % 1015,0 hPa 0,0 l/m 7,9 km/h (2 Bft) SW 229 2 min 0,000 mm 2,9 UV-I 715 W/m 12,5 C 17,1 C 20,9 km/h (4 Bft) 97,87 %
26.05.2019 10:18 17,9 C 18,9 C 31,7 C 70 % 1015,0 hPa 0,0 l/m 12,5 km/h (3 Bft) SW 225 2 min 0,000 mm 2,9 UV-I 698 W/m 12,3 C 15,4 C 19,3 km/h (3 Bft) 100,00 %
26.05.2019 10:20 17,9 C 18,9 C 31,7 C 70 % 1015,0 hPa 0,0 l/m 9,8 km/h (2 Bft) W-SW 242 2 min 0,000 mm 2,9 UV-I 665 W/m 12,3 C 16,4 C 16,1 km/h (3 Bft) 100,00 %
26.05.2019 10:22 18,0 C 18,9 C 32,2 C 70 % 1015,0 hPa 0,0 l/m 11,8 km/h (2 Bft) SW 232 2 min 0,000 mm 2,9 UV-I 702 W/m 12,4 C 15,8 C 19,3 km/h (3 Bft) 97,87 %
26.05.2019 10:24 18,0 C 18,9 C 31,7 C 70 % 1015,1 hPa 0,0 l/m 12,8 km/h (3 Bft) W-NW 302 2 min 0,000 mm 3,1 UV-I 747 W/m 12,4 C 15,5 C 20,9 km/h (4 Bft) 100,00 %
26.05.2019 10:26 17,9 C 18,9 C 32,2 C 70 % 1015,0 hPa 0,0 l/m 11,6 km/h (2 Bft) W-SW 241 2 min 0,000 mm 3,1 UV-I 730 W/m 12,3 C 15,7 C 20,9 km/h (4 Bft) 97,87 %
26.05.2019 10:28 18,0 C 18,9 C 32,2 C 70 % 1015,1 hPa 0,0 l/m 11,3 km/h (2 Bft) W-SW 237 2 min 0,000 mm 3,1 UV-I 732 W/m 12,4 C 16,0 C 19,3 km/h (3 Bft) 100,00 %
26.05.2019 10:30 18,1 C 18,9 C 32,2 C 69 % 1015,1 hPa 0,0 l/m 13,1 km/h (3 Bft) W 264 2 min 0,000 mm 3,1 UV-I 764 W/m 12,3 C 15,5 C 20,9 km/h (4 Bft) 100,00 %
26.05.2019 10:32 18,1 C 18,9 C 31,7 C 70 % 1015,1 hPa 0,0 l/m 13,5 km/h (3 Bft) W 269 2 min 0,000 mm 3,2 UV-I 759 W/m 12,5 C 15,4 C 19,3 km/h (3 Bft) 97,22 %
26.05.2019 10:34 18,2 C 18,9 C 32,8 C 69 % 1015,1 hPa 0,0 l/m 10,4 km/h (2 Bft) W-SW 242 2 min 0,000 mm 3,3 UV-I 783 W/m 12,4 C 16,5 C 16,1 km/h (3 Bft) 95,74 %
26.05.2019 10:36 18,1 C 18,9 C 32,2 C 70 % 1015,0 hPa 0,0 l/m 11,7 km/h (2 Bft) W-SW 238 2 min 0,000 mm 3,3 UV-I 790 W/m 12,5 C 15,9 C 24,1 km/h (4 Bft) 97,87 %
26.05.2019 10:38 18,2 C 18,9 C 31,7 C 70 % 1015,1 hPa 0,0 l/m 14,7 km/h (3 Bft) W 267 2 min 0,000 mm 3,3 UV-I 781 W/m 12,6 C 15,2 C 20,9 km/h (4 Bft) 98,00 %
26.05.2019 10:40 18,2 C 18,9 C 31,1 C 68 % 1015,0 hPa 0,0 l/m 12,0 km/h (2 Bft) SW 216 2 min 0,000 mm 3,3 UV-I 785 W/m 12,2 C 16,0 C 17,7 km/h (3 Bft) 93,62 %
26.05.2019 10:42 18,1 C 18,9 C 30,6 C 69 % 1015,0 hPa 0,0 l/m 15,2 km/h (3 Bft) SW 222 2 min 0,000 mm 3,2 UV-I 774 W/m 12,3 C 14,9 C 20,9 km/h (4 Bft) 97,87 %
26.05.2019 10:44 18,2 C 18,9 C 31,7 C 71 % 1015,0 hPa 0,0 l/m 7,0 km/h (2 Bft) W-SW 246 2 min 0,000 mm 3,4 UV-I 768 W/m 12,9 C 17,9 C 12,9 km/h (3 Bft) 95,74 %
26.05.2019 10:46 18,1 C 18,9 C 32,8 C 69 % 1015,0 hPa 0,0 l/m 4,8 km/h (1 Bft) W-NW 296 2 min 0,000 mm 3,5 UV-I 795 W/m 12,3 C 18,1 C 11,3 km/h (2 Bft) 97,87 %
26.05.2019 10:48 17,9 C 18,9 C 32,2 C 70 % 1015,0 hPa 0,0 l/m 8,7 km/h (2 Bft) W 266 2 min 0,000 mm 3,5 UV-I 798 W/m 12,3 C 16,8 C 12,9 km/h (3 Bft) 94,00 %
26.05.2019 10:50 18,2 C 18,9 C 32,8 C 71 % 1015,0 hPa 0,0 l/m 11,6 km/h (2 Bft) W-SW 245 2 min 0,000 mm 3,6 UV-I 807 W/m 12,9 C 16,1 C 17,7 km/h (3 Bft) 93,62 %
26.05.2019 10:52 18,2 C 18,9 C 32,8 C 69 % 1015,0 hPa 0,0 l/m 10,0 km/h (2 Bft) W-SW 240 2 min 0,000 mm 3,7 UV-I 839 W/m 12,4 C 16,7 C 19,3 km/h (3 Bft) 94,00 %
26.05.2019 10:54 18,3 C 18,9 C 32,8 C 70 % 1015,0 hPa 0,0 l/m 6,8 km/h (2 Bft) W 265 2 min 0,000 mm 3,3 UV-I 771 W/m 12,7 C 18,1 C 11,3 km/h (2 Bft) 93,62 %
26.05.2019 10:56 18,4 C 18,9 C 33,3 C 70 % 1015,0 hPa 0,0 l/m 9,8 km/h (2 Bft) SW 236 2 min 0,000 mm 3,7 UV-I 732 W/m 12,8 C 16,9 C 16,1 km/h (3 Bft) 91,49 %
26.05.2019 10:58 18,5 C 18,9 C 33,9 C 69 % 1015,0 hPa 0,0 l/m 8,9 km/h (2 Bft) SW 225 2 min 0,000 mm 3,7 UV-I 864 W/m 12,7 C 17,4 C 14,5 km/h (3 Bft) 94,29 %
26.05.2019 11:00 18,5 C 18,9 C 34,4 C 70 % 1014,9 hPa 0,0 l/m 10,8 km/h (2 Bft) SW 220 2 min 0,457 mm 3,8 UV-I 852 W/m 12,9 C 16,7 C 17,7 km/h (3 Bft) 89,36 %
26.05.2019 11:02 18,7 C 18,9 C 35,0 C 71 % 1015,0 hPa 0,0 l/m 7,4 km/h (2 Bft) SW 227 2 min 0,000 mm 3,8 UV-I 847 W/m 13,3 C 18,2 C 12,9 km/h (3 Bft) 93,75 %
26.05.2019 11:04 18,8 C 18,9 C 36,1 C 70 % 1014,9 hPa 0,0 l/m 6,6 km/h (2 Bft) N 5 2 min 0,000 mm 3,8 UV-I 856 W/m 13,2 C 18,7 C 12,9 km/h (3 Bft) 91,49 %
26.05.2019 11:06 18,8 C 18,9 C 36,7 C 69 % 1015,0 hPa 0,0 l/m 3,8 km/h (1 Bft) NW 309 2 min 0,000 mm 3,9 UV-I 886 W/m 13,0 C 18,8 C 8,0 km/h (2 Bft) 96,00 %
26.05.2019 11:08 18,9 C 18,9 C 34,4 C 69 % 1014,9 hPa 0,0 l/m 7,1 km/h (2 Bft) W 259 2 min 0,000 mm 3,4 UV-I 893 W/m 13,1 C 18,6 C 20,9 km/h (4 Bft) 95,74 %
26.05.2019 11:10 18,7 C 18,9 C 34,4 C 67 % 1015,0 hPa 0,0 l/m 12,8 km/h (3 Bft) W 279 2 min 0,000 mm 4,0 UV-I 893 W/m 12,4 C 16,3 C 17,7 km/h (3 Bft) 95,74 %
26.05.2019 11:12 18,6 C 18,9 C 33,9 C 68 % 1014,9 hPa 0,0 l/m 12,5 km/h (3 Bft) W 259 2 min 0,000 mm 3,9 UV-I 886 W/m 12,6 C 16,3 C 19,3 km/h (3 Bft) 93,62 %
26.05.2019 11:14 18,2 C 18,9 C 33,3 C 68 % 1014,9 hPa 0,0 l/m 9,5 km/h (2 Bft) W 265 2 min 0,000 mm 3,7 UV-I 879 W/m 12,2 C 16,8 C 12,9 km/h (3 Bft) 95,74 %
26.05.2019 11:16 18,1 C 18,9 C 31,1 C 70 % 1014,9 hPa 0,0 l/m 7,2 km/h (2 Bft) W-NW 293 2 min 0,000 mm 3,1 UV-I 663 W/m 12,5 C 17,7 C 11,3 km/h (2 Bft) 96,00 %
26.05.2019 11:18 18,0 C 18,9 C 28,3 C 70 % 1014,9 hPa 0,0 l/m 9,4 km/h (2 Bft) W 266 0 min 0,000 mm 2,8 UV-I 279 W/m 12,4 C 16,7 C 12,9 km/h (3 Bft) 98,00 %
26.05.2019 11:20 18,0 C 18,9 C 27,8 C 70 % 1015,0 hPa 0,0 l/m 9,0 km/h (2 Bft) S-SW 209 2 min 0,000 mm 3,5 UV-I 550 W/m 12,4 C 16,8 C 16,1 km/h (3 Bft) 97,87 %
26.05.2019 11:22 18,0 C 19,4 C 28,3 C 70 % 1014,9 hPa 0,0 l/m 9,2 km/h (2 Bft) SW 232 2 min 0,000 mm 3,6 UV-I 837 W/m 12,4 C 16,7 C 16,1 km/h (3 Bft) 97,87 %
26.05.2019 11:24 18,3 C 19,4 C 30,6 C 69 % 1014,9 hPa 0,0 l/m 9,6 km/h (2 Bft) SW 232 2 min 0,000 mm 4,1 UV-I 867 W/m 12,5 C 16,9 C 14,5 km/h (3 Bft) 97,87 %
26.05.2019 11:26 18,6 C 19,4 C 32,8 C 68 % 1014,9 hPa 0,0 l/m 8,9 km/h (2 Bft) S-SW 205 2 min 0,000 mm 4,2 UV-I 880 W/m 12,6 C 17,5 C 16,1 km/h (3 Bft) 97,14 %
26.05.2019 11:28 18,8 C 19,4 C 33,3 C 67 % 1014,9 hPa 0,0 l/m 8,9 km/h (2 Bft) W 261 2 min 0,000 mm 4,2 UV-I 924 W/m 12,5 C 17,7 C 16,1 km/h (3 Bft) 98,00 %
26.05.2019 11:30 18,8 C 19,4 C 35,6 C 71 % 1014,9 hPa 0,0 l/m 7,0 km/h (2 Bft) SW 219 2 min 0,000 mm 4,2 UV-I 960 W/m 13,4 C 18,5 C 9,7 km/h (2 Bft) 95,74 %
26.05.2019 11:32 19,0 C 19,4 C 35,0 C 68 % 1014,9 hPa 0,0 l/m 6,6 km/h (2 Bft) W-SW 238 2 min 0,000 mm 4,3 UV-I 976 W/m 13,0 C 18,9 C 12,9 km/h (3 Bft) 95,74 %
26.05.2019 11:34 19,2 C 19,4 C 35,6 C 68 % 1014,9 hPa 0,0 l/m 8,7 km/h (2 Bft) W-SW 243 2 min 0,000 mm 3,9 UV-I 984 W/m 13,1 C 18,2 C 14,5 km/h (3 Bft) 93,62 %
26.05.2019 11:36 19,2 C 19,4 C 36,1 C 66 % 1014,8 hPa 0,0 l/m 11,4 km/h (2 Bft) W-NW 302 2 min 0,000 mm 4,4 UV-I 1027 W/m 12,7 C 17,3 C 19,3 km/h (3 Bft) 98,00 %
26.05.2019 11:38 19,2 C 19,4 C 36,7 C 67 % 1014,8 hPa 0,0 l/m 7,2 km/h (2 Bft) W 277 2 min 0,000 mm 4,3 UV-I 978 W/m 12,9 C 18,9 C 14,5 km/h (3 Bft) 95,74 %
26.05.2019 11:40 19,2 C 19,4 C 37,2 C 69 % 1014,8 hPa 0,0 l/m 7,2 km/h (2 Bft) W 264 2 min 0,000 mm 4,5 UV-I 987 W/m 13,4 C 18,9 C 12,9 km/h (3 Bft) 95,74 %
26.05.2019 11:42 19,2 C 19,4 C 37,2 C 67 % 1014,8 hPa 0,0 l/m 7,9 km/h (2 Bft) W-SW 241 2 min 0,000 mm 4,5 UV-I 984 W/m 12,9 C 18,6 C 12,9 km/h (3 Bft) 97,87 %
26.05.2019 11:44 19,3 C 19,4 C 37,2 C 69 % 1014,8 hPa 0,0 l/m 7,8 km/h (2 Bft) W 274 2 min 0,000 mm 4,5 UV-I 938 W/m 13,5 C 18,7 C 12,9 km/h (3 Bft) 97,92 %
26.05.2019 11:46 19,2 C 19,4 C 36,1 C 68 % 1014,7 hPa 0,0 l/m 4,3 km/h (1 Bft) W-SW 254 2 min 0,000 mm 3,9 UV-I 965 W/m 13,1 C 19,2 C 11,3 km/h (2 Bft) 97,87 %
26.05.2019 11:48 19,1 C 19,4 C 32,8 C 66 % 1014,7 hPa 0,0 l/m 11,6 km/h (2 Bft) W 261 0 min 0,000 mm 2,9 UV-I 413 W/m 12,6 C 17,1 C 16,1 km/h (3 Bft) 96,00 %
26.05.2019 11:50 18,8 C 19,4 C 31,1 C 67 % 1014,7 hPa 0,0 l/m 7,3 km/h (2 Bft) W-SW 244 0 min 0,000 mm 3,4 UV-I 380 W/m 12,5 C 18,4 C 12,9 km/h (3 Bft) 97,87 %
26.05.2019 11:52 18,8 C 19,4 C 30,6 C 67 % 1014,7 hPa 0,0 l/m 9,4 km/h (2 Bft) W-SW 237 2 min 0,000 mm 4,0 UV-I 940 W/m 12,5 C 17,5 C 17,7 km/h (3 Bft) 97,37 %
26.05.2019 11:54 18,8 C 19,4 C 30,0 C 68 % 1014,6 hPa 0,0 l/m 5,3 km/h (1 Bft) W-NW 303 0 min 0,000 mm 3,4 UV-I 383 W/m 12,8 C 18,8 C 11,3 km/h (2 Bft) 95,74 %
26.05.2019 11:56 19,0 C 19,4 C 30,6 C 68 % 1014,6 hPa 0,0 l/m 5,1 km/h (1 Bft) W-NW 301 2 min 0,000 mm 3,6 UV-I 838 W/m 13,0 C 19,0 C 11,3 km/h (2 Bft) 96,23 %
26.05.2019 11:58 19,2 C 19,4 C 32,8 C 66 % 1014,6 hPa 0,0 l/m 3,8 km/h (1 Bft) NW 320 2 min 0,000 mm 4,5 UV-I 877 W/m 12,7 C 19,2 C 6,4 km/h (2 Bft) 97,87 %
26.05.2019 12:00 19,2 C 19,4 C 35,0 C 67 % 1014,6 hPa 0,0 l/m 5,3 km/h (1 Bft) W-NW 302 2 min 0,457 mm 4,7 UV-I 940 W/m 12,9 C 19,2 C 11,3 km/h (2 Bft) 95,74 %
26.05.2019 12:02 19,3 C 19,4 C 36,1 C 65 % 1014,6 hPa 0,0 l/m 3,5 km/h (1 Bft) W-NW 298 2 min 0,000 mm 4,7 UV-I 926 W/m 12,6 C 19,3 C 6,4 km/h (2 Bft) 100,00 %
26.05.2019 12:04 19,3 C 19,4 C 37,2 C 66 % 1014,6 hPa 0,0 l/m 5,2 km/h (1 Bft) N 355 2 min 0,000 mm 4,6 UV-I 982 W/m 12,8 C 19,3 C 11,3 km/h (2 Bft) 100,00 %
26.05.2019 12:06 19,4 C 19,4 C 37,8 C 68 % 1014,5 hPa 0,0 l/m 5,5 km/h (1 Bft) W-NW 296 2 min 0,000 mm 4,8 UV-I 978 W/m 13,3 C 19,4 C 11,3 km/h (2 Bft) 100,00 %
26.05.2019 12:08 19,7 C 19,4 C 37,2 C 66 % 1014,6 hPa 0,0 l/m 5,2 km/h (1 Bft) W-SW 254 2 min 0,000 mm 3,8 UV-I 968 W/m 13,2 C 19,7 C 11,3 km/h (2 Bft) 97,87 %
26.05.2019 12:10 19,6 C 19,4 C 37,8 C 64 % 1014,5 hPa 0,0 l/m 10,3 km/h (2 Bft) W-SW 244 2 min 0,000 mm 4,9 UV-I 1036 W/m 12,6 C 18,1 C 16,1 km/h (3 Bft) 100,00 %
26.05.2019 12:12 19,6 C 19,4 C 37,2 C 65 % 1014,5 hPa 0,0 l/m 7,7 km/h (2 Bft) W-NW 283 2 min 0,000 mm 4,6 UV-I 1018 W/m 12,8 C 19,1 C 14,5 km/h (3 Bft) 100,00 %
26.05.2019 12:14 19,8 C 19,4 C 37,8 C 67 % 1014,6 hPa 0,0 l/m 6,8 km/h (2 Bft) NW 309 2 min 0,000 mm 4,8 UV-I 989 W/m 13,5 C 19,6 C 12,9 km/h (3 Bft) 100,00 %
26.05.2019 12:16 19,8 C 19,4 C 38,3 C 65 % 1014,5 hPa 0,0 l/m 9,1 km/h (2 Bft) W 270 2 min 0,000 mm 4,9 UV-I 989 W/m 13,0 C 18,7 C 12,9 km/h (3 Bft) 100,00 %
26.05.2019 12:18 19,7 C 19,4 C 37,8 C 64 % 1014,5 hPa 0,0 l/m 4,9 km/h (1 Bft) W 278 2 min 0,000 mm 4,9 UV-I 969 W/m 12,7 C 19,7 C 12,9 km/h (3 Bft) 100,00 %
26.05.2019 12:20 19,6 C 19,4 C 36,7 C 63 % 1014,5 hPa 0,0 l/m 5,2 km/h (1 Bft) NW 304 2 min 0,000 mm 4,2 UV-I 911 W/m 12,4 C 19,6 C 9,7 km/h (2 Bft) 100,00 %
26.05.2019 12:22 19,4 C 19,4 C 37,2 C 66 % 1014,4 hPa 0,0 l/m 5,8 km/h (2 Bft) W 273 2 min 0,000 mm 4,4 UV-I 928 W/m 12,9 C 19,4 C 11,3 km/h (2 Bft) 97,44 %
26.05.2019 12:24 19,4 C 19,4 C 36,7 C 64 % 1014,5 hPa 0,0 l/m 8,4 km/h (2 Bft) W 263 2 min 0,000 mm 4,7 UV-I 934 W/m 12,4 C 18,6 C 16,1 km/h (3 Bft) 94,00 %
26.05.2019 12:26 19,6 C 19,4 C 35,6 C 64 % 1014,5 hPa 0,0 l/m 7,5 km/h (2 Bft) W-SW 252 2 min 0,000 mm 3,8 UV-I 795 W/m 12,6 C 19,1 C 12,9 km/h (3 Bft) 92,00 %
26.05.2019 12:28 19,4 C 19,4 C 33,9 C 64 % 1014,5 hPa 0,0 l/m 4,8 km/h (1 Bft) W-SW 247 0 min 0,000 mm 3,4 UV-I 440 W/m 12,4 C 19,4 C 8,0 km/h (2 Bft) 95,74 %
26.05.2019 12:30 19,5 C 19,4 C 33,9 C 66 % 1014,5 hPa 0,0 l/m 6,6 km/h (2 Bft) W-SW 244 2 min 0,000 mm 4,0 UV-I 887 W/m 13,0 C 19,4 C 12,9 km/h (3 Bft) 89,36 %
26.05.2019 12:32 19,8 C 19,4 C 34,4 C 66 % 1014,4 hPa 0,0 l/m 4,2 km/h (1 Bft) W-NW 299 2 min 0,000 mm 4,6 UV-I 643 W/m 13,3 C 19,8 C 9,7 km/h (2 Bft) 96,00 %
26.05.2019 12:34 19,7 C 19,4 C 32,2 C 65 % 1014,4 hPa 0,0 l/m 4,4 km/h (1 Bft) NW 313 0 min 0,000 mm 3,1 UV-I 410 W/m 12,9 C 19,7 C 9,7 km/h (2 Bft) 93,62 %
26.05.2019 12:36 19,3 C 19,4 C 29,4 C 65 % 1014,4 hPa 0,0 l/m 4,9 km/h (1 Bft) W-NW 285 0 min 0,000 mm 3,0 UV-I 293 W/m 12,6 C 19,3 C 8,0 km/h (2 Bft) 94,74 %
26.05.2019 12:38 19,2 C 19,4 C 29,4 C 64 % 1014,4 hPa 0,0 l/m 5,4 km/h (1 Bft) W-SW 244 0 min 0,000 mm 3,2 UV-I 304 W/m 12,2 C 19,2 C 11,3 km/h (2 Bft) 95,74 %
26.05.2019 12:40 19,3 C 19,4 C 30,6 C 67 % 1014,4 hPa 0,0 l/m 7,8 km/h (2 Bft) SW 216 0 min 0,000 mm 4,1 UV-I 304 W/m 13,0 C 18,7 C 12,9 km/h (3 Bft) 96,00 %
26.05.2019 12:42 19,6 C 19,4 C 32,8 C 67 % 1014,3 hPa 0,0 l/m 5,7 km/h (1 Bft) N-NW 340 2 min 0,000 mm 4,9 UV-I 928 W/m 13,3 C 19,6 C 9,7 km/h (2 Bft) 95,74 %
26.05.2019 12:44 19,8 C 19,4 C 35,0 C 66 % 1014,4 hPa 0,0 l/m 10,7 km/h (2 Bft) W 271 2 min 0,000 mm 5,1 UV-I 976 W/m 13,3 C 18,2 C 22,5 km/h (4 Bft) 93,62 %
26.05.2019 12:46 20,0 C 19,4 C 35,6 C 63 % 1014,3 hPa 0,0 l/m 8,8 km/h (2 Bft) W 279 2 min 0,000 mm 5,1 UV-I 976 W/m 12,7 C 19,1 C 12,9 km/h (3 Bft) 94,00 %
26.05.2019 12:48 20,2 C 19,4 C 37,2 C 64 % 1014,4 hPa 0,0 l/m 7,4 km/h (2 Bft) W-SW 249 2 min 0,000 mm 5,2 UV-I 995 W/m 13,2 C 19,8 C 12,9 km/h (3 Bft) 95,74 %
26.05.2019 12:50 20,3 C 19,4 C 37,8 C 64 % 1014,4 hPa 0,0 l/m 10,4 km/h (2 Bft) W-SW 244 2 min 0,000 mm 5,2 UV-I 994 W/m 13,3 C 18,8 C 16,1 km/h (3 Bft) 95,74 %
26.05.2019 12:52 20,2 C 19,4 C 37,2 C 61 % 1014,4 hPa 0,0 l/m 7,5 km/h (2 Bft) W 269 2 min 0,000 mm 4,9 UV-I 958 W/m 12,4 C 19,8 C 12,9 km/h (3 Bft) 94,74 %
26.05.2019 12:54 19,8 C 19,4 C 37,2 C 61 % 1014,4 hPa 0,0 l/m 4,0 km/h (1 Bft) W 259 2 min 0,000 mm 4,5 UV-I 830 W/m 12,1 C 19,8 C 9,7 km/h (2 Bft) 97,87 %
26.05.2019 12:56 19,7 C 20,0 C 36,7 C 64 % 1014,3 hPa 0,0 l/m 5,8 km/h (2 Bft) W-SW 252 2 min 0,000 mm 4,1 UV-I 767 W/m 12,7 C 19,7 C 11,3 km/h (2 Bft) 97,92 %
26.05.2019 12:58 19,8 C 19,4 C 34,4 C 65 % 1014,2 hPa 0,0 l/m 8,4 km/h (2 Bft) S-SW 203 2 min 0,000 mm 3,4 UV-I 765 W/m 13,0 C 19,0 C 11,3 km/h (2 Bft) 100,00 %
26.05.2019 13:00 19,6 C 19,4 C 32,2 C 63 % 1014,2 hPa 0,0 l/m 6,5 km/h (2 Bft) S 191 0 min 0,000 mm 2,4 UV-I 310 W/m 12,4 C 19,6 C 9,7 km/h (2 Bft) 95,74 %
26.05.2019 13:02 19,4 C 20,0 C 30,6 C 65 % 1014,2 hPa 0,0 l/m 5,2 km/h (1 Bft) SW 232 0 min 0,483 mm 2,3 UV-I 286 W/m 12,6 C 19,4 C 8,0 km/h (2 Bft) 100,00 %
26.05.2019 13:04 19,5 C 19,4 C 27,8 C 67 % 1014,2 hPa 0,0 l/m 8,2 km/h (2 Bft) W 269 0 min 0,000 mm 2,2 UV-I 253 W/m 13,2 C 18,7 C 12,9 km/h (3 Bft) 100,00 %
26.05.2019 13:06 19,5 C 20,0 C 26,7 C 65 % 1014,3 hPa 0,0 l/m 6,8 km/h (2 Bft) NW 305 0 min 0,000 mm 2,5 UV-I 308 W/m 12,7 C 19,3 C 14,5 km/h (3 Bft) 100,00 %
26.05.2019 13:08 19,3 C 20,0 C 26,7 C 64 % 1014,2 hPa 0,0 l/m 3,8 km/h (1 Bft) W-NW 293 0 min 0,000 mm 3,0 UV-I 387 W/m 12,3 C 19,3 C 9,7 km/h (2 Bft) 100,00 %
26.05.2019 13:10 19,6 C 20,0 C 30,6 C 65 % 1014,2 hPa 0,0 l/m 4,7 km/h (1 Bft) W-SW 254 2 min 0,000 mm 4,5 UV-I 691 W/m 12,8 C 19,6 C 9,7 km/h (2 Bft) 95,74 %
26.05.2019 13:12 19,7 C 20,0 C 30,0 C 64 % 1014,2 hPa 0,0 l/m 7,0 km/h (2 Bft) W-NW 290 2 min 0,000 mm 3,3 UV-I 716 W/m 12,7 C 19,5 C 12,9 km/h (3 Bft) 100,00 %
26.05.2019 13:14 19,5 C 20,0 C 31,1 C 64 % 1014,2 hPa 0,0 l/m 2,6 km/h (1 Bft) W-NW 290 0 min 0,000 mm 3,7 UV-I 364 W/m 12,5 C 19,5 C 8,0 km/h (2 Bft) 100,00 %
26.05.2019 13:16 19,8 C 20,0 C 34,4 C 68 % 1014,1 hPa 0,0 l/m 3,3 km/h (1 Bft) W-NW 298 2 min 0,000 mm 4,6 UV-I 944 W/m 13,7 C 19,8 C 4,8 km/h (1 Bft) 100,00 %
26.05.2019 13:18 20,1 C 20,0 C 35,6 C 64 % 1014,1 hPa 0,0 l/m 10,6 km/h (2 Bft) SW 227 2 min 0,000 mm 4,6 UV-I 982 W/m 13,1 C 18,6 C 17,7 km/h (3 Bft) 100,00 %
26.05.2019 13:20 20,2 C 20,0 C 34,4 C 64 % 1013,9 hPa 0,0 l/m 10,3 km/h (2 Bft) S-SW 210 2 min 0,000 mm 4,4 UV-I 995 W/m 13,2 C 18,8 C 14,5 km/h (3 Bft) 98,00 %
26.05.2019 13:22 20,3 C 20,0 C 35,6 C 63 % 1014,0 hPa 0,0 l/m 9,6 km/h (2 Bft) W-SW 247 2 min 0,000 mm 4,7 UV-I 999 W/m 13,0 C 19,1 C 14,5 km/h (3 Bft) 98,00 %
26.05.2019 13:24 20,4 C 20,0 C 36,7 C 62 % 1014,0 hPa 0,0 l/m 8,7 km/h (2 Bft) S-SW 209 2 min 0,000 mm 4,9 UV-I 1010 W/m 12,9 C 19,5 C 11,3 km/h (2 Bft) 100,00 %
26.05.2019 13:26 20,6 C 20,0 C 37,8 C 60 % 1013,9 hPa 0,0 l/m 7,3 km/h (2 Bft) NW 310 2 min 0,000 mm 4,8 UV-I 1016 W/m 12,6 C 20,2 C 11,3 km/h (2 Bft) 100,00 %
26.05.2019 13:28 20,5 C 20,0 C 38,9 C 62 % 1013,9 hPa 0,0 l/m 5,6 km/h (1 Bft) W 271 2 min 0,000 mm 4,8 UV-I 1014 W/m 13,0 C 20,5 C 11,3 km/h (2 Bft) 97,87 %
26.05.2019 13:30 20,5 C 20,0 C 36,1 C 61 % 1013,8 hPa 0,0 l/m 7,0 km/h (2 Bft) W 261 2 min 0,000 mm 4,1 UV-I 1037 W/m 12,7 C 20,3 C 12,9 km/h (3 Bft) 100,00 %
26.05.2019 13:32 20,5 C 20,0 C 37,2 C 62 % 1013,9 hPa 0,0 l/m 7,8 km/h (2 Bft) W-SW 248 2 min 0,000 mm 4,9 UV-I 1045 W/m 13,0 C 20,0 C 11,3 km/h (2 Bft) 100,00 %
26.05.2019 13:34 20,4 C 20,0 C 37,8 C 62 % 1013,8 hPa 0,0 l/m 4,1 km/h (1 Bft) NO 51 2 min 0,000 mm 4,8 UV-I 1075 W/m 12,9 C 20,4 C 9,7 km/h (2 Bft) 100,00 %
26.05.2019 13:36 20,6 C 20,0 C 39,4 C 62 % 1013,8 hPa 0,0 l/m 4,5 km/h (1 Bft) N 11 2 min 0,000 mm 4,8 UV-I 1107 W/m 13,1 C 20,6 C 12,9 km/h (3 Bft) 100,00 %
26.05.2019 13:38 20,9 C 20,0 C 39,4 C 60 % 1013,7 hPa 0,0 l/m 10,9 km/h (2 Bft) W 273 2 min 0,000 mm 4,8 UV-I 1041 W/m 12,8 C 19,4 C 19,3 km/h (3 Bft) 100,00 %
26.05.2019 13:40 20,8 C 20,0 C 39,4 C 63 % 1013,7 hPa 0,0 l/m 6,8 km/h (2 Bft) SW 224 2 min 0,000 mm 4,8 UV-I 988 W/m 13,5 C 20,7 C 14,5 km/h (3 Bft) 100,00 %
26.05.2019 13:42 21,1 C 20,0 C 40,6 C 62 % 1013,7 hPa 0,0 l/m 2,9 km/h (1 Bft) S-SW 210 2 min 0,000 mm 4,9 UV-I 977 W/m 13,5 C 21,1 C 9,7 km/h (2 Bft) 97,87 %
26.05.2019 13:44 20,8 C 20,0 C 40,6 C 60 % 1013,7 hPa 0,0 l/m 4,1 km/h (1 Bft) W 269 2 min 0,000 mm 4,9 UV-I 975 W/m 12,7 C 20,8 C 9,7 km/h (2 Bft) 100,00 %
26.05.2019 13:46 20,6 C 20,0 C 40,0 C 61 % 1013,6 hPa 0,0 l/m 3,5 km/h (1 Bft) O-NO 59 2 min 0,000 mm 4,7 UV-I 985 W/m 12,8 C 20,6 C 8,0 km/h (2 Bft) 100,00 %
26.05.2019 13:48 20,8 C 20,0 C 40,0 C 65 % 1013,6 hPa 0,0 l/m 6,6 km/h (2 Bft) N-NW 335 2 min 0,000 mm 4,7 UV-I 938 W/m 14,0 C 20,7 C 12,9 km/h (3 Bft) 100,00 %
26.05.2019 13:50 20,7 C 20,0 C 39,4 C 62 % 1013,6 hPa 0,0 l/m 5,8 km/h (2 Bft) N-NW 332 2 min 0,000 mm 4,7 UV-I 880 W/m 13,2 C 20,7 C 9,7 km/h (2 Bft) 100,00 %
26.05.2019 13:52 20,7 C 20,0 C 39,4 C 62 % 1013,6 hPa 0,0 l/m 4,1 km/h (1 Bft) N-NW 341 2 min 0,000 mm 4,7 UV-I 877 W/m 13,2 C 20,7 C 8,0 km/h (2 Bft) 97,87 %
26.05.2019 13:54 20,8 C 20,0 C 39,4 C 64 % 1013,6 hPa 0,0 l/m 4,3 km/h (1 Bft) W 280 2 min 0,000 mm 4,8 UV-I 885 W/m 13,7 C 20,8 C 6,4 km/h (2 Bft) 98,00 %
26.05.2019 13:56 20,8 C 20,0 C 39,4 C 63 % 1013,5 hPa 0,0 l/m 6,1 km/h (2 Bft) W 281 2 min 0,000 mm 4,7 UV-I 878 W/m 13,5 C 20,8 C 9,7 km/h (2 Bft) 95,74 %
26.05.2019 13:58 20,9 C 20,0 C 38,9 C 60 % 1013,4 hPa 0,0 l/m 7,5 km/h (2 Bft) W 272 2 min 0,000 mm 4,7 UV-I 880 W/m 12,8 C 20,5 C 12,9 km/h (3 Bft) 97,87 %
26.05.2019 14:00 20,9 C 20,0 C 39,4 C 60 % 1013,4 hPa 0,0 l/m 3,6 km/h (1 Bft) NW 317 2 min 0,508 mm 4,6 UV-I 867 W/m 12,8 C 20,9 C 6,4 km/h (2 Bft) 97,87 %
26.05.2019 14:02 20,8 C 20,0 C 37,2 C 61 % 1013,3 hPa 0,0 l/m 1,6 km/h (1 Bft) W-SW 248 2 min 0,000 mm 4,0 UV-I 861 W/m 13,0 C 20,8 C 3,2 km/h (1 Bft) 97,87 %
26.05.2019 14:04 20,9 C 20,0 C 37,8 C 63 % 1013,3 hPa 0,0 l/m 5,0 km/h (1 Bft) NW 325 2 min 0,000 mm 4,4 UV-I 866 W/m 13,6 C 20,9 C 16,1 km/h (3 Bft) 98,00 %
26.05.2019 14:06 20,9 C 20,0 C 37,8 C 59 % 1013,3 hPa 0,0 l/m 4,8 km/h (1 Bft) N-NW 337 2 min 0,000 mm 4,6 UV-I 864 W/m 12,6 C 20,9 C 9,7 km/h (2 Bft) 95,74 %
26.05.2019 14:08 20,9 C 20,0 C 38,3 C 61 % 1013,2 hPa 0,0 l/m 6,2 km/h (2 Bft) N 5 2 min 0,000 mm 4,6 UV-I 865 W/m 13,1 C 20,9 C 11,3 km/h (2 Bft) 97,14 %
26.05.2019 14:10 21,1 C 20,0 C 38,3 C 59 % 1013,2 hPa 0,0 l/m 6,0 km/h (2 Bft) W-SW 242 2 min 0,000 mm 4,6 UV-I 863 W/m 12,8 C 21,1 C 12,9 km/h (3 Bft) 97,87 %
26.05.2019 14:12 20,9 C 20,0 C 38,3 C 57 % 1013,2 hPa 0,0 l/m 7,3 km/h (2 Bft) W 279 2 min 0,000 mm 4,6 UV-I 864 W/m 12,1 C 20,6 C 14,5 km/h (3 Bft) 95,83 %
26.05.2019 14:14 20,8 C 20,0 C 38,9 C 60 % 1013,1 hPa 0,0 l/m 3,7 km/h (1 Bft) NW 309 2 min 0,000 mm 4,6 UV-I 880 W/m 12,7 C 20,8 C 6,4 km/h (2 Bft) 95,74 %
26.05.2019 14:16 21,1 C 20,0 C 37,8 C 59 % 1013,1 hPa 0,0 l/m 5,7 km/h (1 Bft) W-SW 254 2 min 0,000 mm 3,9 UV-I 858 W/m 12,8 C 21,1 C 16,1 km/h (3 Bft) 98,00 %
26.05.2019 14:18 21,2 C 20,0 C 36,1 C 59 % 1013,1 hPa 0,0 l/m 5,2 km/h (1 Bft) W-NW 288 0 min 0,000 mm 3,6 UV-I 323 W/m 12,9 C 21,2 C 14,5 km/h (3 Bft) 95,74 %
26.05.2019 14:20 21,2 C 20,0 C 37,2 C 59 % 1013,1 hPa 0,0 l/m 7,3 km/h (2 Bft) W-NW 294 2 min 0,000 mm 4,3 UV-I 816 W/m 12,9 C 20,9 C 14,5 km/h (3 Bft) 97,87 %
26.05.2019 14:22 21,2 C 20,0 C 37,2 C 60 % 1013,2 hPa 0,0 l/m 8,8 km/h (2 Bft) NW 312 2 min 0,000 mm 4,4 UV-I 921 W/m 13,1 C 20,3 C 16,1 km/h (3 Bft) 96,00 %
26.05.2019 14:24 21,1 C 20,0 C 37,8 C 57 % 1013,1 hPa 0,0 l/m 5,5 km/h (1 Bft) W-SW 240 2 min 0,000 mm 4,5 UV-I 912 W/m 12,2 C 21,1 C 11,3 km/h (2 Bft) 97,87 %
26.05.2019 14:26 21,2 C 20,0 C 38,9 C 62 % 1013,1 hPa 0,0 l/m 5,1 km/h (1 Bft) N-NO 24 2 min 0,000 mm 4,5 UV-I 917 W/m 13,6 C 21,2 C 8,0 km/h (2 Bft) 96,00 %
26.05.2019 14:28 21,2 C 20,0 C 38,9 C 60 % 1013,1 hPa 0,0 l/m 5,6 km/h (1 Bft) N-NW 332 2 min 0,000 mm 4,3 UV-I 877 W/m 13,1 C 21,2 C 12,9 km/h (3 Bft) 97,87 %
26.05.2019 14:30 21,3 C 20,0 C 36,1 C 61 % 1013,1 hPa 0,0 l/m 7,1 km/h (2 Bft) N 5 2 min 0,000 mm 3,4 UV-I 935 W/m 13,5 C 21,0 C 12,9 km/h (3 Bft) 95,74 %
26.05.2019 14:32 21,0 C 20,0 C 33,3 C 61 % 1013,1 hPa 0,0 l/m 7,9 km/h (2 Bft) NW 306 2 min 0,000 mm 2,8 UV-I 705 W/m 13,2 C 20,4 C 12,9 km/h (3 Bft) 97,14 %
26.05.2019 14:34 20,8 C 20,6 C 35,0 C 63 % 1013,1 hPa 0,0 l/m 7,7 km/h (2 Bft) N 5 2 min 0,000 mm 4,2 UV-I 681 W/m 13,5 C 20,3 C 14,5 km/h (3 Bft) 95,74 %
26.05.2019 14:36 21,1 C 20,0 C 36,1 C 63 % 1013,0 hPa 0,0 l/m 6,5 km/h (2 Bft) NW 320 2 min 0,000 mm 4,3 UV-I 936 W/m 13,8 C 21,1 C 12,9 km/h (3 Bft) 94,00 %
26.05.2019 14:38 21,6 C 20,6 C 37,8 C 61 % 1013,0 hPa 0,0 l/m 5,0 km/h (1 Bft) W-SW 254 2 min 0,000 mm 4,2 UV-I 902 W/m 13,7 C 21,6 C 11,3 km/h (2 Bft) 98,00 %
26.05.2019 14:40 21,5 C 20,6 C 38,9 C 56 % 1013,0 hPa 0,0 l/m 6,5 km/h (2 Bft) S 185 2 min 0,000 mm 4,2 UV-I 888 W/m 12,3 C 21,5 C 11,3 km/h (2 Bft) 97,87 %
26.05.2019 14:42 21,6 C 20,6 C 37,8 C 58 % 1013,0 hPa 0,0 l/m 7,8 km/h (2 Bft) NW 312 2 min 0,000 mm 4,0 UV-I 838 W/m 13,0 C 21,1 C 16,1 km/h (3 Bft) 97,87 %
26.05.2019 14:44 21,7 C 20,6 C 36,1 C 58 % 1013,0 hPa 0,0 l/m 8,8 km/h (2 Bft) W 271 2 min 0,000 mm 3,5 UV-I 882 W/m 13,1 C 20,9 C 19,3 km/h (3 Bft) 97,87 %
26.05.2019 14:46 21,8 C 20,6 C 33,9 C 57 % 1012,9 hPa 0,0 l/m 8,2 km/h (2 Bft) NW 312 2 min 0,000 mm 3,2 UV-I 815 W/m 12,9 C 21,2 C 19,3 km/h (3 Bft) 95,74 %
26.05.2019 14:48 21,7 C 20,6 C 31,7 C 55 % 1013,0 hPa 0,0 l/m 6,9 km/h (2 Bft) W-SW 237 0 min 0,000 mm 2,9 UV-I 262 W/m 12,3 C 21,5 C 12,9 km/h (3 Bft) 94,00 %
26.05.2019 14:50 21,3 C 20,6 C 33,3 C 58 % 1012,9 hPa 0,0 l/m 4,3 km/h (1 Bft) N-NW 327 2 min 0,000 mm 3,8 UV-I 550 W/m 12,7 C 21,3 C 11,3 km/h (2 Bft) 97,87 %
26.05.2019 14:52 21,3 C 20,6 C 35,0 C 58 % 1012,9 hPa 0,0 l/m 6,9 km/h (2 Bft) W 274 2 min 0,000 mm 4,0 UV-I 892 W/m 12,7 C 21,1 C 14,5 km/h (3 Bft) 100,00 %
26.05.2019 14:54 21,3 C 20,6 C 36,7 C 57 % 1012,9 hPa 0,0 l/m 3,7 km/h (1 Bft) N-NO 24 2 min 0,000 mm 4,0 UV-I 895 W/m 12,4 C 21,3 C 9,7 km/h (2 Bft) 100,00 %
26.05.2019 14:56 21,4 C 20,6 C 38,3 C 60 % 1012,8 hPa 0,0 l/m 4,6 km/h (1 Bft) N-NO 28 2 min 0,000 mm 4,0 UV-I 890 W/m 13,3 C 21,4 C 8,0 km/h (2 Bft) 100,00 %
26.05.2019 14:58 21,6 C 20,6 C 39,4 C 57 % 1012,7 hPa 0,0 l/m 3,6 km/h (1 Bft) N-NO 33 2 min 0,000 mm 4,0 UV-I 871 W/m 12,7 C 21,6 C 6,4 km/h (2 Bft) 100,00 %
26.05.2019 15:00 21,7 C 20,6 C 40,0 C 57 % 1012,7 hPa 0,0 l/m 3,8 km/h (1 Bft) W-SW 251 2 min 0,000 mm 3,9 UV-I 871 W/m 12,8 C 21,7 C 8,0 km/h (2 Bft) 100,00 %
26.05.2019 15:02 21,8 C 20,6 C 39,4 C 57 % 1012,7 hPa 0,0 l/m 6,5 km/h (2 Bft) W-SW 257 2 min 0,508 mm 3,9 UV-I 862 W/m 12,9 C 21,8 C 12,9 km/h (3 Bft) 100,00 %
26.05.2019 15:04 21,8 C 20,6 C 39,4 C 54 % 1012,7 hPa 0,0 l/m 6,3 km/h (2 Bft) NW 321 2 min 0,000 mm 3,9 UV-I 864 W/m 12,1 C 21,8 C 9,7 km/h (2 Bft) 97,37 %
26.05.2019 15:06 21,8 C 20,6 C 40,0 C 58 % 1012,7 hPa 0,0 l/m 2,4 km/h (1 Bft) N-NW 342 2 min 0,000 mm 4,0 UV-I 879 W/m 13,2 C 21,8 C 4,8 km/h (1 Bft) 100,00 %
26.05.2019 15:08 21,8 C 20,6 C 41,1 C 58 % 1012,6 hPa 0,0 l/m 3,1 km/h (1 Bft) S-SW 211 2 min 0,000 mm 3,9 UV-I 864 W/m 13,2 C 21,8 C 8,0 km/h (2 Bft) 100,00 %
26.05.2019 15:10 21,9 C 20,6 C 40,0 C 55 % 1012,6 hPa 0,0 l/m 9,6 km/h (2 Bft) W-SW 254 2 min 0,000 mm 3,8 UV-I 853 W/m 12,4 C 20,9 C 14,5 km/h (3 Bft) 100,00 %
26.05.2019 15:12 22,2 C 20,6 C 40,0 C 55 % 1012,6 hPa 0,0 l/m 6,2 km/h (2 Bft) W 265 2 min 0,000 mm 3,8 UV-I 836 W/m 12,7 C 22,2 C 11,3 km/h (2 Bft) 100,00 %
26.05.2019 15:14 22,3 C 20,6 C 40,0 C 55 % 1012,7 hPa 0,0 l/m 6,4 km/h (2 Bft) N-NO 26 2 min 0,000 mm 3,7 UV-I 816 W/m 12,8 C 22,3 C 11,3 km/h (2 Bft) 100,00 %
26.05.2019 15:16 22,3 C 20,6 C 39,4 C 56 % 1012,7 hPa 0,0 l/m 5,5 km/h (1 Bft) N-NO 13 2 min 0,000 mm 3,7 UV-I 807 W/m 13,1 C 22,3 C 12,9 km/h (3 Bft) 100,00 %
26.05.2019 15:18 22,3 C 20,6 C 39,4 C 61 % 1012,7 hPa 0,0 l/m 3,7 km/h (1 Bft) N-NW 327 2 min 0,000 mm 3,6 UV-I 810 W/m 14,4 C 22,3 C 6,4 km/h (2 Bft) 98,00 %
26.05.2019 15:20 22,2 C 20,6 C 39,4 C 55 % 1012,6 hPa 0,0 l/m 3,2 km/h (1 Bft) NW 319 2 min 0,000 mm 3,6 UV-I 799 W/m 12,7 C 22,2 C 4,8 km/h (1 Bft) 97,87 %
26.05.2019 15:22 22,1 C 20,6 C 39,4 C 58 % 1012,6 hPa 0,0 l/m 6,6 km/h (2 Bft) NW 314 2 min 0,000 mm 3,6 UV-I 778 W/m 13,4 C 22,0 C 12,9 km/h (3 Bft) 98,00 %
26.05.2019 15:24 21,8 C 20,6 C 38,3 C 54 % 1012,6 hPa 0,0 l/m 6,8 km/h (2 Bft) N-NO 29 2 min 0,000 mm 3,5 UV-I 781 W/m 12,1 C 21,7 C 16,1 km/h (3 Bft) 97,87 %
26.05.2019 15:26 21,8 C 20,6 C 37,8 C 60 % 1012,6 hPa 0,0 l/m 6,7 km/h (2 Bft) N 10 2 min 0,000 mm 3,5 UV-I 777 W/m 13,7 C 21,7 C 16,1 km/h (3 Bft) 97,44 %
26.05.2019 15:28 22,1 C 20,6 C 38,9 C 59 % 1012,5 hPa 0,0 l/m 5,1 km/h (1 Bft) W 263 2 min 0,000 mm 3,4 UV-I 765 W/m 13,7 C 22,1 C 9,7 km/h (2 Bft) 98,00 %
26.05.2019 15:30 22,4 C 20,6 C 38,9 C 54 % 1012,5 hPa 0,0 l/m 4,5 km/h (1 Bft) SW 219 2 min 0,000 mm 3,4 UV-I 762 W/m 12,6 C 22,4 C 11,3 km/h (2 Bft) 97,87 %
26.05.2019 15:32 22,3 C 20,6 C 37,8 C 54 % 1012,5 hPa 0,0 l/m 12,5 km/h (3 Bft) SW 236 2 min 0,000 mm 3,4 UV-I 765 W/m 12,5 C 20,6 C 19,3 km/h (3 Bft) 95,74 %
26.05.2019 15:34 22,2 C 20,6 C 37,2 C 54 % 1012,5 hPa 0,0 l/m 8,7 km/h (2 Bft) W 268 2 min 0,000 mm 3,3 UV-I 762 W/m 12,4 C 21,4 C 14,5 km/h (3 Bft) 97,87 %
26.05.2019 15:36 22,2 C 20,6 C 37,2 C 54 % 1012,4 hPa 0,0 l/m 7,9 km/h (2 Bft) W 277 2 min 0,000 mm 3,2 UV-I 745 W/m 12,4 C 21,7 C 12,9 km/h (3 Bft) 95,74 %
26.05.2019 15:38 22,3 C 20,6 C 37,8 C 54 % 1012,4 hPa 0,0 l/m 5,8 km/h (2 Bft) W 262 2 min 0,000 mm 3,2 UV-I 737 W/m 12,5 C 22,3 C 9,7 km/h (2 Bft) 97,87 %
26.05.2019 15:40 22,2 C 20,6 C 37,8 C 56 % 1012,4 hPa 0,0 l/m 5,8 km/h (2 Bft) W-NW 286 2 min 0,000 mm 3,2 UV-I 760 W/m 13,0 C 22,2 C 14,5 km/h (3 Bft) 97,87 %
26.05.2019 15:42 21,9 C 20,6 C 37,8 C 54 % 1012,4 hPa 0,0 l/m 4,7 km/h (1 Bft) N-NW 332 2 min 0,000 mm 3,2 UV-I 764 W/m 12,2 C 21,9 C 9,7 km/h (2 Bft) 95,74 %
26.05.2019 15:44 22,0 C 20,6 C 38,3 C 56 % 1012,4 hPa 0,0 l/m 3,0 km/h (1 Bft) N 360 2 min 0,000 mm 3,1 UV-I 754 W/m 12,8 C 22,0 C 6,4 km/h (2 Bft) 93,62 %
26.05.2019 15:46 22,1 C 20,6 C 38,3 C 59 % 1012,4 hPa 0,0 l/m 6,2 km/h (2 Bft) N-NW 340 2 min 0,000 mm 3,1 UV-I 761 W/m 13,7 C 22,1 C 9,7 km/h (2 Bft) 95,74 %
26.05.2019 15:48 22,3 C 20,6 C 38,9 C 54 % 1012,4 hPa 0,0 l/m 7,2 km/h (2 Bft) W 270 2 min 0,000 mm 3,1 UV-I 773 W/m 12,5 C 22,0 C 14,5 km/h (3 Bft) 94,00 %
26.05.2019 15:50 22,3 C 20,6 C 38,3 C 58 % 1012,4 hPa 0,0 l/m 7,3 km/h (2 Bft) W-SW 238 2 min 0,000 mm 3,1 UV-I 775 W/m 13,6 C 22,0 C 12,9 km/h (3 Bft) 93,62 %
26.05.2019 15:52 22,4 C 20,6 C 38,9 C 54 % 1012,4 hPa 0,0 l/m 5,6 km/h (1 Bft) W-SW 251 2 min 0,000 mm 3,0 UV-I 761 W/m 12,6 C 22,4 C 8,0 km/h (2 Bft) 98,00 %
26.05.2019 15:54 22,5 C 20,6 C 38,9 C 53 % 1012,4 hPa 0,0 l/m 5,0 km/h (1 Bft) N-NW 329 2 min 0,000 mm 3,0 UV-I 749 W/m 12,4 C 22,5 C 11,3 km/h (2 Bft) 97,14 %
26.05.2019 15:56 22,3 C 20,6 C 38,9 C 56 % 1012,4 hPa 0,0 l/m 5,7 km/h (1 Bft) N-NO 29 2 min 0,000 mm 3,0 UV-I 745 W/m 13,1 C 22,3 C 8,0 km/h (2 Bft) 93,62 %
26.05.2019 15:58 22,4 C 20,6 C 39,4 C 56 % 1012,4 hPa 0,0 l/m 2,5 km/h (1 Bft) SW 227 2 min 0,000 mm 2,9 UV-I 734 W/m 13,2 C 22,4 C 11,3 km/h (2 Bft) 97,87 %
26.05.2019 16:00 22,4 C 20,6 C 37,2 C 50 % 1012,4 hPa 0,0 l/m 7,6 km/h (2 Bft) W-SW 250 2 min 0,508 mm 2,6 UV-I 739 W/m 11,5 C 22,0 C 12,9 km/h (3 Bft) 98,11 %
26.05.2019 16:02 22,3 C 20,6 C 34,4 C 52 % 1012,3 hPa 0,0 l/m 4,6 km/h (1 Bft) W 267 0 min 0,000 mm 2,1 UV-I 207 W/m 12,0 C 22,3 C 6,4 km/h (2 Bft) 97,87 %
26.05.2019 16:04 22,2 C 20,6 C 33,3 C 53 % 1012,4 hPa 0,0 l/m 3,1 km/h (1 Bft) W-NW 290 2 min 0,000 mm 2,1 UV-I 396 W/m 12,2 C 22,2 C 4,8 km/h (1 Bft) 95,74 %
26.05.2019 16:06 21,9 C 20,6 C 32,8 C 55 % 1012,3 hPa 0,0 l/m 4,0 km/h (1 Bft) N-NO 33 0 min 0,000 mm 2,1 UV-I 280 W/m 12,4 C 21,9 C 8,0 km/h (2 Bft) 97,92 %
26.05.2019 16:08 21,9 C 20,6 C 34,4 C 55 % 1012,4 hPa 0,0 l/m 4,8 km/h (1 Bft) N-NW 333 2 min 0,000 mm 2,5 UV-I 732 W/m 12,4 C 21,9 C 11,3 km/h (2 Bft) 97,87 %
26.05.2019 16:10 22,1 C 20,6 C 35,6 C 56 % 1012,5 hPa 0,0 l/m 6,9 km/h (2 Bft) N 9 2 min 0,000 mm 2,6 UV-I 761 W/m 12,9 C 21,9 C 11,3 km/h (2 Bft) 95,74 %
26.05.2019 16:12 22,1 C 20,6 C 36,1 C 59 % 1012,4 hPa 0,0 l/m 5,5 km/h (1 Bft) N-NO 28 2 min 0,000 mm 2,6 UV-I 748 W/m 13,7 C 22,1 C 12,9 km/h (3 Bft) 93,62 %
26.05.2019 16:14 22,2 C 20,6 C 37,2 C 56 % 1012,3 hPa 0,0 l/m 3,8 km/h (1 Bft) NO 39 2 min 0,000 mm 2,6 UV-I 733 W/m 13,0 C 22,2 C 4,8 km/h (1 Bft) 93,62 %
26.05.2019 16:16 22,2 C 20,6 C 37,8 C 53 % 1012,3 hPa 0,0 l/m 6,1 km/h (2 Bft) W-NW 303 2 min 0,000 mm 2,5 UV-I 704 W/m 12,2 C 22,2 C 11,3 km/h (2 Bft) 94,00 %
26.05.2019 16:18 22,1 C 20,6 C 37,2 C 53 % 1012,3 hPa 0,0 l/m 3,2 km/h (1 Bft) NO 51 2 min 0,000 mm 2,3 UV-I 686 W/m 12,1 C 22,1 C 6,4 km/h (2 Bft) 93,62 %
26.05.2019 16:20 21,9 C 20,6 C 33,3 C 58 % 1012,3 hPa 0,0 l/m 5,5 km/h (1 Bft) N 11 2 min 0,000 mm 1,7 UV-I 604 W/m 13,3 C 21,9 C 8,0 km/h (2 Bft) 94,29 %
26.05.2019 16:22 21,6 C 20,6 C 31,1 C 56 % 1012,3 hPa 0,0 l/m 5,6 km/h (1 Bft) NW 309 0 min 0,000 mm 1,8 UV-I 199 W/m 12,4 C 21,6 C 9,7 km/h (2 Bft) 98,00 %
26.05.2019 16:24 21,4 C 20,6 C 29,4 C 54 % 1012,4 hPa 0,0 l/m 4,7 km/h (1 Bft) NW 309 2 min 0,000 mm 1,8 UV-I 468 W/m 11,7 C 21,4 C 11,3 km/h (2 Bft) 95,74 %
26.05.2019 16:26 21,4 C 20,6 C 30,6 C 56 % 1012,3 hPa 0,0 l/m 2,5 km/h (1 Bft) N-NW 336 0 min 0,000 mm 2,0 UV-I 298 W/m 12,3 C 21,4 C 4,8 km/h (1 Bft) 95,74 %
26.05.2019 16:28 21,6 C 20,6 C 32,8 C 57 % 1012,3 hPa 0,0 l/m 6,1 km/h (2 Bft) NO 44 2 min 0,000 mm 2,2 UV-I 676 W/m 12,7 C 21,6 C 12,9 km/h (3 Bft) 95,74 %
26.05.2019 16:30 21,7 C 21,1 C 33,9 C 58 % 1012,3 hPa 0,0 l/m 7,8 km/h (2 Bft) NO 37 2 min 0,000 mm 2,2 UV-I 662 W/m 13,1 C 21,2 C 12,9 km/h (3 Bft) 96,00 %
26.05.2019 16:32 21,8 C 21,1 C 35,0 C 60 % 1012,2 hPa 0,0 l/m 9,4 km/h (2 Bft) N-NO 25 2 min 0,000 mm 2,2 UV-I 645 W/m 13,7 C 20,8 C 14,5 km/h (3 Bft) 95,74 %
26.05.2019 16:34 21,9 C 21,1 C 35,0 C 60 % 1012,2 hPa 0,0 l/m 11,0 km/h (2 Bft) N 5 2 min 0,000 mm 2,2 UV-I 635 W/m 13,8 C 20,5 C 14,5 km/h (3 Bft) 92,00 %
26.05.2019 16:36 21,9 C 21,1 C 35,6 C 60 % 1012,2 hPa 0,0 l/m 8,4 km/h (2 Bft) N-NO 21 2 min 0,000 mm 2,1 UV-I 611 W/m 13,8 C 21,2 C 12,9 km/h (3 Bft) 95,74 %
26.05.2019 16:38 21,8 C 21,1 C 35,0 C 58 % 1012,2 hPa 0,0 l/m 7,3 km/h (2 Bft) NO 38 2 min 0,000 mm 2,1 UV-I 598 W/m 13,2 C 21,5 C 12,9 km/h (3 Bft) 93,62 %
26.05.2019 16:40 21,9 C 21,1 C 35,6 C 56 % 1012,2 hPa 0,0 l/m 2,9 km/h (1 Bft) NO 38 2 min 0,000 mm 2,1 UV-I 590 W/m 12,7 C 21,9 C 6,4 km/h (2 Bft) 93,62 %
26.05.2019 16:42 22,0 C 21,1 C 36,1 C 55 % 1012,2 hPa 0,0 l/m 2,0 km/h (1 Bft) NO 41 2 min 0,000 mm 2,0 UV-I 588 W/m 12,5 C 22,0 C 3,2 km/h (1 Bft) 94,87 %
26.05.2019 16:44 22,1 C 21,1 C 36,7 C 55 % 1012,2 hPa 0,0 l/m 2,7 km/h (1 Bft) SW 217 2 min 0,000 mm 2,0 UV-I 581 W/m 12,6 C 22,1 C 4,8 km/h (1 Bft) 94,00 %
26.05.2019 16:46 22,2 C 21,1 C 36,7 C 54 % 1012,1 hPa 0,0 l/m 4,0 km/h (1 Bft) W 279 2 min 0,000 mm 2,0 UV-I 578 W/m 12,4 C 22,2 C 6,4 km/h (2 Bft) 95,74 %
26.05.2019 16:48 22,4 C 21,1 C 36,7 C 53 % 1012,1 hPa 0,0 l/m 7,0 km/h (2 Bft) W-SW 244 2 min 0,000 mm 2,0 UV-I 578 W/m 12,3 C 22,2 C 12,9 km/h (3 Bft) 97,87 %
26.05.2019 16:50 22,4 C 21,1 C 35,0 C 51 % 1012,1 hPa 0,0 l/m 10,2 km/h (2 Bft) W-NW 303 2 min 0,000 mm 1,9 UV-I 513 W/m 11,8 C 21,2 C 16,1 km/h (3 Bft) 95,74 %
26.05.2019 16:52 22,4 C 21,1 C 34,4 C 53 % 1012,2 hPa 0,0 l/m 6,6 km/h (2 Bft) W-SW 240 2 min 0,000 mm 1,8 UV-I 563 W/m 12,3 C 22,3 C 12,9 km/h (3 Bft) 98,00 %
26.05.2019 16:54 22,5 C 21,1 C 34,4 C 52 % 1012,2 hPa 0,0 l/m 7,3 km/h (2 Bft) W-SW 254 2 min 0,000 mm 1,8 UV-I 554 W/m 12,1 C 22,2 C 12,9 km/h (3 Bft) 97,87 %
26.05.2019 16:56 22,5 C 21,1 C 33,9 C 52 % 1012,1 hPa 0,0 l/m 11,3 km/h (2 Bft) W-SW 252 2 min 0,000 mm 1,8 UV-I 542 W/m 12,1 C 21,1 C 16,1 km/h (3 Bft) 93,62 %
26.05.2019 16:58 22,3 C 21,1 C 33,9 C 52 % 1012,1 hPa 0,0 l/m 9,2 km/h (2 Bft) NW 304 2 min 0,000 mm 1,8 UV-I 535 W/m 12,0 C 21,4 C 14,5 km/h (3 Bft) 91,49 %
26.05.2019 17:00 22,4 C 21,1 C 33,9 C 53 % 1012,2 hPa 0,0 l/m 5,0 km/h (1 Bft) W-SW 244 2 min 0,000 mm 1,7 UV-I 531 W/m 12,3 C 22,4 C 11,3 km/h (2 Bft) 95,74 %
26.05.2019 17:02 22,3 C 21,1 C 34,4 C 52 % 1012,1 hPa 0,0 l/m 6,7 km/h (2 Bft) W-NW 292 2 min 0,381 mm 1,7 UV-I 526 W/m 12,0 C 22,2 C 9,7 km/h (2 Bft) 97,37 %
26.05.2019 17:04 22,3 C 21,1 C 34,4 C 51 % 1012,1 hPa 0,0 l/m 5,0 km/h (1 Bft) W 262 2 min 0,000 mm 1,7 UV-I 520 W/m 11,7 C 22,3 C 11,3 km/h (2 Bft) 95,74 %
26.05.2019 17:06 22,1 C 21,1 C 32,8 C 51 % 1012,2 hPa 0,0 l/m 6,9 km/h (2 Bft) NW 311 2 min 0,000 mm 1,5 UV-I 519 W/m 11,5 C 21,9 C 12,9 km/h (3 Bft) 100,00 %
26.05.2019 17:08 21,9 C 21,1 C 32,8 C 51 % 1012,2 hPa 0,0 l/m 4,7 km/h (1 Bft) W-NW 298 2 min 0,000 mm 1,5 UV-I 514 W/m 11,3 C 21,9 C 11,3 km/h (2 Bft) 97,87 %
26.05.2019 17:10 22,0 C 21,1 C 32,8 C 53 % 1012,2 hPa 0,0 l/m 4,2 km/h (1 Bft) NW 308 2 min 0,000 mm 1,5 UV-I 496 W/m 12,0 C 22,0 C 8,0 km/h (2 Bft) 97,87 %
26.05.2019 17:12 22,3 C 21,1 C 33,9 C 53 % 1012,1 hPa 0,0 l/m 5,6 km/h (1 Bft) S-SW 211 2 min 0,000 mm 1,5 UV-I 493 W/m 12,2 C 22,3 C 16,1 km/h (3 Bft) 98,00 %
26.05.2019 17:14 22,4 C 21,1 C 33,3 C 52 % 1012,1 hPa 0,0 l/m 7,3 km/h (2 Bft) W 269 2 min 0,000 mm 1,5 UV-I 491 W/m 12,1 C 22,1 C 16,1 km/h (3 Bft) 97,87 %
26.05.2019 17:16 22,6 C 21,1 C 33,3 C 54 % 1012,1 hPa 0,0 l/m 9,9 km/h (2 Bft) W 268 2 min 0,000 mm 1,5 UV-I 485 W/m 12,8 C 21,5 C 16,1 km/h (3 Bft) 97,87 %
26.05.2019 17:18 22,6 C 21,1 C 32,8 C 52 % 1012,2 hPa 0,0 l/m 8,0 km/h (2 Bft) S-SW 204 2 min 0,000 mm 1,4 UV-I 485 W/m 12,2 C 22,1 C 12,9 km/h (3 Bft) 97,44 %
26.05.2019 17:20 22,4 C 21,1 C 32,8 C 51 % 1012,2 hPa 0,0 l/m 11,1 km/h (2 Bft) W-SW 245 2 min 0,000 mm 1,4 UV-I 481 W/m 11,8 C 21,0 C 14,5 km/h (3 Bft) 96,23 %
26.05.2019 17:22 22,3 C 21,1 C 32,2 C 53 % 1012,2 hPa 0,0 l/m 10,9 km/h (2 Bft) W-SW 253 2 min 0,000 mm 1,4 UV-I 471 W/m 12,2 C 20,9 C 16,1 km/h (3 Bft) 97,87 %
26.05.2019 17:24 22,2 C 21,1 C 32,8 C 51 % 1012,2 hPa 0,0 l/m 8,3 km/h (2 Bft) W 277 2 min 0,000 mm 1,3 UV-I 461 W/m 11,6 C 21,6 C 11,3 km/h (2 Bft) 97,87 %
26.05.2019 17:26 22,2 C 21,1 C 32,8 C 52 % 1012,2 hPa 0,0 l/m 4,9 km/h (1 Bft) W-NW 298 2 min 0,000 mm 1,3 UV-I 453 W/m 11,9 C 22,2 C 9,7 km/h (2 Bft) 98,00 %
26.05.2019 17:28 22,1 C 21,1 C 33,3 C 53 % 1012,2 hPa 0,0 l/m 5,3 km/h (1 Bft) S 169 2 min 0,000 mm 1,3 UV-I 446 W/m 12,1 C 22,1 C 8,0 km/h (2 Bft) 100,00 %
26.05.2019 17:30 22,1 C 21,1 C 33,9 C 53 % 1012,1 hPa 0,0 l/m 4,0 km/h (1 Bft) SW 227 2 min 0,000 mm 1,3 UV-I 441 W/m 12,1 C 22,1 C 8,0 km/h (2 Bft) 100,00 %
26.05.2019 17:32 22,1 C 21,1 C 34,4 C 55 % 1012,2 hPa 0,0 l/m 3,4 km/h (1 Bft) W 274 2 min 0,000 mm 1,2 UV-I 442 W/m 12,6 C 22,1 C 9,7 km/h (2 Bft) 97,87 %
26.05.2019 17:34 22,2 C 21,1 C 33,9 C 53 % 1012,2 hPa 0,0 l/m 5,5 km/h (1 Bft) N-NO 19 2 min 0,000 mm 1,2 UV-I 438 W/m 12,2 C 22,2 C 9,7 km/h (2 Bft) 97,87 %
26.05.2019 17:36 22,3 C 21,1 C 33,3 C 54 % 1012,1 hPa 0,0 l/m 7,0 km/h (2 Bft) N 355 2 min 0,000 mm 1,2 UV-I 431 W/m 12,5 C 22,1 C 12,9 km/h (3 Bft) 100,00 %
26.05.2019 17:38 22,2 C 21,1 C 33,3 C 54 % 1012,1 hPa 0,0 l/m 5,6 km/h (1 Bft) NW 317 2 min 0,000 mm 1,2 UV-I 426 W/m 12,4 C 22,2 C 8,0 km/h (2 Bft) 100,00 %
26.05.2019 17:40 22,2 C 21,1 C 32,8 C 55 % 1012,1 hPa 0,0 l/m 5,5 km/h (1 Bft) NO 40 2 min 0,000 mm 1,1 UV-I 416 W/m 12,7 C 22,2 C 11,3 km/h (2 Bft) 100,00 %
26.05.2019 17:42 22,2 C 21,1 C 31,1 C 54 % 1012,1 hPa 0,0 l/m 3,4 km/h (1 Bft) W-SW 248 2 min 0,000 mm 1,0 UV-I 364 W/m 12,4 C 22,2 C 6,4 km/h (2 Bft) 100,00 %
26.05.2019 17:44 22,0 C 21,1 C 28,9 C 52 % 1012,1 hPa 0,0 l/m 3,4 km/h (1 Bft) NW 311 0 min 0,000 mm 0,9 UV-I 109 W/m 11,7 C 22,0 C 6,4 km/h (2 Bft) 100,00 %
26.05.2019 17:46 21,8 C 21,1 C 27,2 C 55 % 1012,1 hPa 0,0 l/m 5,1 km/h (1 Bft) W 261 0 min 0,000 mm 0,9 UV-I 213 W/m 12,4 C 21,8 C 11,3 km/h (2 Bft) 100,00 %
26.05.2019 17:48 21,7 C 21,1 C 27,2 C 53 % 1012,2 hPa 0,0 l/m 9,5 km/h (2 Bft) W-SW 248 0 min 0,000 mm 1,0 UV-I 189 W/m 11,7 C 20,7 C 14,5 km/h (3 Bft) 100,00 %
26.05.2019 17:50 21,7 C 21,1 C 28,3 C 53 % 1012,1 hPa 0,0 l/m 6,6 km/h (2 Bft) W 267 2 min 0,000 mm 1,0 UV-I 392 W/m 11,7 C 21,6 C 11,3 km/h (2 Bft) 98,00 %
26.05.2019 17:52 21,8 C 21,1 C 29,4 C 52 % 1012,0 hPa 0,0 l/m 2,4 km/h (1 Bft) W 267 2 min 0,000 mm 1,0 UV-I 388 W/m 11,5 C 21,8 C 4,8 km/h (1 Bft) 94,74 %
26.05.2019 17:54 21,9 C 21,1 C 30,0 C 52 % 1012,0 hPa 0,0 l/m 4,8 km/h (1 Bft) W-SW 255 2 min 0,000 mm 0,9 UV-I 382 W/m 11,6 C 21,9 C 9,7 km/h (2 Bft) 95,74 %
26.05.2019 17:56 21,9 C 21,1 C 30,6 C 52 % 1012,0 hPa 0,0 l/m 2,8 km/h (1 Bft) W-SW 250 2 min 0,000 mm 0,9 UV-I 380 W/m 11,6 C 21,9 C 4,8 km/h (1 Bft) 100,00 %
26.05.2019 17:58 21,9 C 21,1 C 31,7 C 52 % 1011,9 hPa 0,0 l/m 4,6 km/h (1 Bft) S-SW 211 2 min 0,000 mm 0,9 UV-I 372 W/m 11,6 C 21,9 C 8,0 km/h (2 Bft) 100,00 %
26.05.2019 18:00 21,8 C 21,1 C 32,2 C 52 % 1011,9 hPa 0,0 l/m 2,8 km/h (1 Bft) S-SW 205 2 min 0,000 mm 0,9 UV-I 364 W/m 11,5 C 21,8 C 4,8 km/h (1 Bft) 100,00 %
26.05.2019 18:02 22,0 C 21,1 C 32,2 C 56 % 1011,9 hPa 0,0 l/m 2,4 km/h (1 Bft) N-NW 331 2 min 0,279 mm 0,8 UV-I 358 W/m 12,8 C 22,0 C 4,8 km/h (1 Bft) 100,00 %
26.05.2019 18:04 22,1 C 21,1 C 31,7 C 55 % 1011,9 hPa 0,0 l/m 5,9 km/h (2 Bft) N 355 2 min 0,000 mm 0,8 UV-I 349 W/m 12,6 C 22,1 C 11,3 km/h (2 Bft) 95,74 %
26.05.2019 18:06 22,1 C 21,1 C 31,1 C 57 % 1011,9 hPa 0,0 l/m 5,2 km/h (1 Bft) N-NO 32 2 min 0,000 mm 0,8 UV-I 346 W/m 13,2 C 22,1 C 9,7 km/h (2 Bft) 98,00 %
26.05.2019 18:08 22,1 C 21,1 C 30,6 C 56 % 1011,9 hPa 0,0 l/m 6,9 km/h (2 Bft) N 350 2 min 0,000 mm 0,8 UV-I 343 W/m 12,9 C 21,9 C 12,9 km/h (3 Bft) 100,00 %
26.05.2019 18:10 22,1 C 21,1 C 30,6 C 55 % 1011,9 hPa 0,0 l/m 3,4 km/h (1 Bft) N-NO 20 2 min 0,000 mm 0,8 UV-I 338 W/m 12,6 C 22,1 C 6,4 km/h (2 Bft) 97,87 %
26.05.2019 18:12 22,1 C 21,1 C 30,6 C 58 % 1011,9 hPa 0,0 l/m 4,2 km/h (1 Bft) NW 310 2 min 0,000 mm 0,7 UV-I 328 W/m 13,4 C 22,1 C 9,7 km/h (2 Bft) 97,87 %
26.05.2019 18:14 22,0 C 21,1 C 30,0 C 54 % 1011,9 hPa 0,0 l/m 4,2 km/h (1 Bft) NW 306 2 min 0,000 mm 0,7 UV-I 324 W/m 12,3 C 22,0 C 6,4 km/h (2 Bft) 97,87 %
26.05.2019 18:16 22,1 C 21,1 C 30,0 C 53 % 1011,9 hPa 0,0 l/m 4,5 km/h (1 Bft) NW 311 2 min 0,000 mm 0,7 UV-I 321 W/m 12,1 C 22,1 C 6,4 km/h (2 Bft) 98,00 %
26.05.2019 18:18 22,1 C 21,1 C 30,0 C 54 % 1012,0 hPa 0,0 l/m 3,6 km/h (1 Bft) W-NW 301 2 min 0,000 mm 0,7 UV-I 315 W/m 12,3 C 22,1 C 8,0 km/h (2 Bft) 93,62 %
26.05.2019 18:20 22,1 C 21,1 C 30,6 C 52 % 1011,9 hPa 0,0 l/m 2,7 km/h (1 Bft) W 269 2 min 0,000 mm 0,7 UV-I 310 W/m 11,8 C 22,1 C 4,8 km/h (1 Bft) 95,74 %
26.05.2019 18:22 22,1 C 21,1 C 30,0 C 53 % 1011,9 hPa 0,0 l/m 4,3 km/h (1 Bft) NW 310 2 min 0,000 mm 0,6 UV-I 302 W/m 12,1 C 22,1 C 6,4 km/h (2 Bft) 98,00 %
26.05.2019 18:24 22,1 C 21,1 C 30,0 C 53 % 1011,9 hPa 0,0 l/m 4,2 km/h (1 Bft) N-NW 342 2 min 0,000 mm 0,6 UV-I 301 W/m 12,1 C 22,1 C 6,4 km/h (2 Bft) 97,87 %
26.05.2019 18:26 21,9 C 21,1 C 29,4 C 52 % 1011,9 hPa 0,0 l/m 5,0 km/h (1 Bft) NW 306 2 min 0,000 mm 0,6 UV-I 299 W/m 11,6 C 21,9 C 8,0 km/h (2 Bft) 97,87 %
26.05.2019 18:28 22,0 C 21,1 C 29,4 C 56 % 1011,9 hPa 0,0 l/m 4,3 km/h (1 Bft) N 355 2 min 0,000 mm 0,6 UV-I 294 W/m 12,8 C 22,0 C 9,7 km/h (2 Bft) 95,74 %
26.05.2019 18:30 21,8 C 21,1 C 28,9 C 59 % 1011,9 hPa 0,0 l/m 7,7 km/h (2 Bft) N-NO 32 2 min 0,000 mm 0,3 UV-I 286 W/m 13,4 C 21,3 C 12,9 km/h (3 Bft) 95,74 %
26.05.2019 18:32 21,7 C 21,1 C 28,9 C 56 % 1011,8 hPa 0,0 l/m 2,8 km/h (1 Bft) NO 42 2 min 0,000 mm 0,0 UV-I 278 W/m 12,5 C 21,7 C 6,4 km/h (2 Bft) 91,49 %
26.05.2019 18:34 21,7 C 21,1 C 27,8 C 58 % 1011,8 hPa 0,0 l/m 7,9 km/h (2 Bft) NW 319 2 min 0,000 mm 0,5 UV-I 203 W/m 13,1 C 21,2 C 12,9 km/h (3 Bft) 97,44 %
26.05.2019 18:36 21,6 C 21,1 C 27,2 C 58 % 1011,8 hPa 0,0 l/m 5,3 km/h (1 Bft) N-NO 26 2 min 0,000 mm 0,5 UV-I 259 W/m 13,0 C 21,6 C 11,3 km/h (2 Bft) 94,00 %
26.05.2019 18:38 21,5 C 21,1 C 26,7 C 58 % 1011,8 hPa 0,0 l/m 5,8 km/h (2 Bft) N-NO 28 2 min 0,000 mm 0,5 UV-I 262 W/m 12,9 C 21,5 C 8,0 km/h (2 Bft) 95,74 %
26.05.2019 18:40 21,3 C 21,1 C 26,1 C 59 % 1011,8 hPa 0,0 l/m 4,4 km/h (1 Bft) N 349 2 min 0,000 mm 0,5 UV-I 200 W/m 13,0 C 21,3 C 6,4 km/h (2 Bft) 95,74 %
26.05.2019 18:42 21,3 C 21,1 C 26,7 C 61 % 1011,8 hPa 0,0 l/m 5,9 km/h (2 Bft) N 5 2 min 0,000 mm 0,5 UV-I 253 W/m 13,5 C 21,3 C 9,7 km/h (2 Bft) 96,00 %
26.05.2019 18:44 21,3 C 21,1 C 26,7 C 59 % 1011,8 hPa 0,0 l/m 5,5 km/h (1 Bft) N-NO 16 2 min 0,000 mm 0,3 UV-I 246 W/m 13,0 C 21,3 C 8,0 km/h (2 Bft) 97,87 %
26.05.2019 18:46 21,2 C 21,1 C 25,6 C 60 % 1011,8 hPa 0,0 l/m 5,8 km/h (2 Bft) N-NO 18 0 min 0,000 mm 0,0 UV-I 166 W/m 13,1 C 21,2 C 8,0 km/h (2 Bft) 93,62 %
26.05.2019 18:48 21,1 C 21,1 C 25,6 C 59 % 1011,7 hPa 0,0 l/m 5,5 km/h (1 Bft) N 9 0 min 0,000 mm 0,0 UV-I 162 W/m 12,8 C 21,1 C 8,0 km/h (2 Bft) 93,62 %
26.05.2019 18:50 21,0 C 21,1 C 25,6 C 59 % 1011,8 hPa 0,0 l/m 5,6 km/h (1 Bft) N-NW 345 2 min 0,000 mm 0,0 UV-I 234 W/m 12,7 C 21,0 C 8,0 km/h (2 Bft) 97,56 %
26.05.2019 18:52 21,1 C 21,1 C 26,1 C 59 % 1011,7 hPa 0,0 l/m 6,4 km/h (2 Bft) N 355 2 min 0,000 mm 0,0 UV-I 225 W/m 12,8 C 21,1 C 11,3 km/h (2 Bft) 96,00 %
26.05.2019 18:54 21,2 C 21,1 C 25,6 C 58 % 1011,7 hPa 0,0 l/m 4,7 km/h (1 Bft) N-NO 15 2 min 0,000 mm 0,0 UV-I 205 W/m 12,6 C 21,2 C 8,0 km/h (2 Bft) 97,87 %
26.05.2019 18:56 21,2 C 21,1 C 25,6 C 57 % 1011,7 hPa 0,0 l/m 3,9 km/h (1 Bft) N 360 2 min 0,000 mm 0,0 UV-I 208 W/m 12,3 C 21,2 C 8,0 km/h (2 Bft) 97,87 %
26.05.2019 18:58 21,3 C 21,1 C 25,6 C 56 % 1011,7 hPa 0,0 l/m 4,5 km/h (1 Bft) N-NO 20 2 min 0,000 mm 0,0 UV-I 172 W/m 12,2 C 21,3 C 6,4 km/h (2 Bft) 97,87 %
26.05.2019 19:00 21,3 C 21,1 C 25,0 C 58 % 1011,7 hPa 0,0 l/m 5,1 km/h (1 Bft) N-NO 22 2 min 0,000 mm 0,0 UV-I 203 W/m 12,7 C 21,3 C 6,4 km/h (2 Bft) 100,00 %
26.05.2019 19:02 21,2 C 21,1 C 25,0 C 59 % 1011,7 hPa 0,0 l/m 4,4 km/h (1 Bft) N 9 2 min 0,204 mm 0,0 UV-I 200 W/m 12,9 C 21,2 C 6,4 km/h (2 Bft) 100,00 %
26.05.2019 19:04 21,2 C 21,1 C 25,0 C 60 % 1011,7 hPa 0,0 l/m 4,1 km/h (1 Bft) N-NO 25 2 min 0,000 mm 0,0 UV-I 196 W/m 13,1 C 21,2 C 8,0 km/h (2 Bft) 100,00 %
26.05.2019 19:06 21,3 C 21,1 C 25,0 C 58 % 1011,7 hPa 0,0 l/m 3,7 km/h (1 Bft) N-NO 22 2 min 0,000 mm 0,0 UV-I 190 W/m 12,7 C 21,3 C 8,0 km/h (2 Bft) 97,87 %
26.05.2019 19:08 21,3 C 21,1 C 25,0 C 57 % 1011,7 hPa 0,0 l/m 3,4 km/h (1 Bft) N-NO 24 2 min 0,000 mm 0,0 UV-I 186 W/m 12,4 C 21,3 C 6,4 km/h (2 Bft) 100,00 %
26.05.2019 19:10 21,3 C 21,1 C 25,0 C 59 % 1011,7 hPa 0,0 l/m 3,7 km/h (1 Bft) N-NO 23 2 min 0,000 mm 0,0 UV-I 180 W/m 13,0 C 21,3 C 4,8 km/h (1 Bft) 100,00 %
26.05.2019 19:12 21,3 C 21,1 C 24,4 C 58 % 1011,7 hPa 0,0 l/m 2,8 km/h (1 Bft) N-NO 23 2 min 0,000 mm 0,0 UV-I 176 W/m 12,7 C 21,3 C 4,8 km/h (1 Bft) 100,00 %
26.05.2019 19:14 21,3 C 21,1 C 24,4 C 56 % 1011,7 hPa 0,0 l/m 4,1 km/h (1 Bft) N-NO 23 2 min 0,000 mm 0,0 UV-I 169 W/m 12,2 C 21,3 C 6,4 km/h (2 Bft) 100,00 %
26.05.2019 19:16 21,3 C 21,1 C 23,9 C 55 % 1011,7 hPa 0,0 l/m 3,1 km/h (1 Bft) N-NO 28 2 min 0,000 mm 0,0 UV-I 164 W/m 11,9 C 21,3 C 4,8 km/h (1 Bft) 98,00 %
26.05.2019 19:18 21,3 C 21,1 C 23,9 C 58 % 1011,7 hPa 0,0 l/m 2,3 km/h (1 Bft) N-NO 23 2 min 0,000 mm 0,0 UV-I 158 W/m 12,7 C 21,3 C 3,2 km/h (1 Bft) 98,00 %
26.05.2019 19:20 21,3 C 21,1 C 23,3 C 57 % 1011,7 hPa 0,0 l/m 1,6 km/h (1 Bft) N-NO 23 2 min 0,000 mm 0,0 UV-I 144 W/m 12,4 C 21,3 C 3,2 km/h (1 Bft) 97,87 %
26.05.2019 19:22 21,3 C 21,1 C 23,3 C 57 % 1011,7 hPa 0,0 l/m 2,1 km/h (1 Bft) N-NO 23 2 min 0,000 mm 0,0 UV-I 143 W/m 12,4 C 21,3 C 3,2 km/h (1 Bft) 97,87 %
26.05.2019 19:24 21,4 C 21,1 C 22,8 C 56 % 1011,7 hPa 0,0 l/m 1,7 km/h (1 Bft) W-NW 290 2 min 0,000 mm 0,0 UV-I 138 W/m 12,3 C 21,4 C 4,8 km/h (1 Bft) 100,00 %
26.05.2019 19:26 21,4 C 21,1 C 22,8 C 56 % 1011,7 hPa 0,0 l/m 1,6 km/h (1 Bft) W-NW 289 2 min 0,000 mm 0,0 UV-I 135 W/m 12,3 C 21,4 C 4,8 km/h (1 Bft) 100,00 %
26.05.2019 19:28 21,3 C 21,1 C 22,8 C 58 % 1011,7 hPa 0,0 l/m 3,9 km/h (1 Bft) N-NW 348 2 min 0,000 mm 0,0 UV-I 121 W/m 12,7 C 21,3 C 6,4 km/h (2 Bft) 97,14 %
26.05.2019 19:30 21,1 C 21,1 C 22,2 C 57 % 1011,7 hPa 0,0 l/m 3,0 km/h (1 Bft) N 349 2 min 0,000 mm 0,0 UV-I 120 W/m 12,2 C 21,1 C 4,8 km/h (1 Bft) 100,00 %
26.05.2019 19:32 21,0 C 21,1 C 22,2 C 60 % 1011,8 hPa 0,0 l/m 4,0 km/h (1 Bft) N 355 2 min 0,000 mm 0,0 UV-I 119 W/m 12,9 C 21,0 C 6,4 km/h (2 Bft) 97,87 %
26.05.2019 19:34 20,9 C 21,1 C 21,7 C 59 % 1011,7 hPa 0,0 l/m 3,0 km/h (1 Bft) N 355 2 min 0,000 mm 0,0 UV-I 100 W/m 12,6 C 20,9 C 4,8 km/h (1 Bft) 100,00 %
26.05.2019 19:36 20,8 C 21,1 C 21,1 C 60 % 1011,6 hPa 0,0 l/m 4,0 km/h (1 Bft) N 5 0 min 0,000 mm 0,0 UV-I 65 W/m 12,7 C 20,8 C 6,4 km/h (2 Bft) 100,00 %
26.05.2019 19:38 20,6 C 21,1 C 20,6 C 59 % 1011,7 hPa 0,0 l/m 3,3 km/h (1 Bft) N 5 0 min 0,000 mm 0,0 UV-I 56 W/m 12,3 C 20,6 C 4,8 km/h (1 Bft) 100,00 %
26.05.2019 19:40 20,6 C 21,1 C 20,6 C 58 % 1011,7 hPa 0,0 l/m 3,9 km/h (1 Bft) N 5 2 min 0,000 mm 0,0 UV-I 88 W/m 12,0 C 20,6 C 4,8 km/h (1 Bft) 97,87 %
26.05.2019 19:42 20,6 C 21,1 C 20,6 C 59 % 1011,6 hPa 0,0 l/m 3,0 km/h (1 Bft) N 5 2 min 0,000 mm 0,0 UV-I 105 W/m 12,3 C 20,6 C 4,8 km/h (1 Bft) 100,00 %
26.05.2019 19:44 20,6 C 21,1 C 20,6 C 58 % 1011,6 hPa 0,0 l/m 2,5 km/h (1 Bft) N 5 2 min 0,000 mm 0,0 UV-I 101 W/m 12,0 C 20,6 C 3,2 km/h (1 Bft) 100,00 %
26.05.2019 19:46 20,6 C 21,1 C 20,0 C 59 % 1011,6 hPa 0,0 l/m 3,1 km/h (1 Bft) N 5 2 min 0,000 mm 0,0 UV-I 97 W/m 12,3 C 20,6 C 4,8 km/h (1 Bft) 97,87 %
26.05.2019 19:48 20,7 C 21,1 C 20,0 C 59 % 1011,6 hPa 0,0 l/m 2,3 km/h (1 Bft) N 5 2 min 0,000 mm 0,0 UV-I 95 W/m 12,4 C 20,7 C 4,8 km/h (1 Bft) 97,87 %
26.05.2019 19:50 20,7 C 21,1 C 20,0 C 59 % 1011,6 hPa 0,0 l/m 1,6 km/h (1 Bft) N 5 2 min 0,000 mm 0,0 UV-I 90 W/m 12,4 C 20,7 C 3,2 km/h (1 Bft) 97,92 %
26.05.2019 19:52 20,8 C 21,1 C 20,0 C 58 % 1011,6 hPa 0,0 l/m 1,4 km/h (1 Bft) N 5 2 min 0,000 mm 0,0 UV-I 87 W/m 12,2 C 20,8 C 3,2 km/h (1 Bft) 95,74 %
26.05.2019 19:54 20,8 C 21,1 C 20,0 C 58 % 1011,6 hPa 0,0 l/m 0,6 km/h (0 Bft) N 5 2 min 0,000 mm 0,0 UV-I 84 W/m 12,2 C 20,8 C 1,6 km/h (1 Bft) 100,00 %
26.05.2019 19:56 20,8 C 21,1 C 20,0 C 58 % 1011,6 hPa 0,0 l/m 0,3 km/h (0 Bft) N 5 2 min 0,000 mm 0,0 UV-I 80 W/m 12,2 C 20,8 C 1,6 km/h (1 Bft) 100,00 %
26.05.2019 19:58 20,9 C 21,1 C 20,0 C 57 % 1011,6 hPa 0,0 l/m 1,3 km/h (1 Bft) N 5 2 min 0,000 mm 0,0 UV-I 76 W/m 12,1 C 20,9 C 4,8 km/h (1 Bft) 97,37 %
26.05.2019 20:00 20,8 C 21,1 C 19,4 C 56 % 1011,7 hPa 0,0 l/m 2,9 km/h (1 Bft) N 5 2 min 0,101 mm 0,0 UV-I 72 W/m 11,7 C 20,8 C 6,4 km/h (2 Bft) 100,00 %
26.05.2019 20:02 20,8 C 21,1 C 18,9 C 58 % 1011,6 hPa 0,0 l/m 2,2 km/h (1 Bft) N 5 2 min 0,000 mm 0,0 UV-I 70 W/m 12,2 C 20,8 C 3,2 km/h (1 Bft) 95,74 %
26.05.2019 20:04 20,7 C 21,1 C 18,9 C 57 % 1011,6 hPa 0,0 l/m 2,0 km/h (1 Bft) N 5 2 min 0,000 mm 0,0 UV-I 67 W/m 11,9 C 20,7 C 4,8 km/h (1 Bft) 95,74 %
26.05.2019 20:06 20,7 C 21,1 C 18,3 C 57 % 1011,6 hPa 0,0 l/m 2,4 km/h (1 Bft) N 5 2 min 0,000 mm 0,0 UV-I 63 W/m 11,9 C 20,7 C 3,2 km/h (1 Bft) 95,74 %
26.05.2019 20:08 20,6 C 21,1 C 18,3 C 58 % 1011,6 hPa 0,0 l/m 1,8 km/h (1 Bft) N 5 2 min 0,000 mm 0,0 UV-I 59 W/m 12,0 C 20,6 C 3,2 km/h (1 Bft) 96,00 %
26.05.2019 20:10 20,5 C 21,1 C 17,8 C 58 % 1011,6 hPa 0,0 l/m 2,1 km/h (1 Bft) N 5 2 min 0,000 mm 0,0 UV-I 55 W/m 11,9 C 20,5 C 3,2 km/h (1 Bft) 93,62 %
26.05.2019 20:12 20,4 C 21,1 C 17,2 C 58 % 1011,6 hPa 0,0 l/m 1,6 km/h (1 Bft) N 5 2 min 0,000 mm 0,0 UV-I 52 W/m 11,9 C 20,4 C 3,2 km/h (1 Bft) 93,62 %
26.05.2019 20:14 20,4 C 21,1 C 17,2 C 59 % 1011,5 hPa 0,0 l/m 1,7 km/h (1 Bft) N 5 2 min 0,000 mm 0,0 UV-I 50 W/m 12,1 C 20,4 C 3,2 km/h (1 Bft) 95,74 %
26.05.2019 20:16 20,4 C 21,1 C 16,7 C 58 % 1011,5 hPa 0,0 l/m 0,8 km/h (0 Bft) N 5 2 min 0,000 mm 0,0 UV-I 47 W/m 11,9 C 20,4 C 1,6 km/h (1 Bft) 95,74 %
26.05.2019 20:18 20,4 C 21,1 C 16,7 C 59 % 1011,5 hPa 0,0 l/m 0,0 km/h (0 Bft) N 5 2 min 0,000 mm 0,0 UV-I 45 W/m 12,1 C 20,4 C 0,0 km/h (0 Bft) 93,62 %
26.05.2019 20:20 20,4 C 21,1 C 16,1 C 60 % 1011,5 hPa 0,0 l/m 0,0 km/h (0 Bft) N 5 2 min 0,000 mm 0,0 UV-I 42 W/m 12,4 C 20,4 C 0,0 km/h (0 Bft) 91,49 %
26.05.2019 20:22 20,4 C 21,1 C 16,1 C 59 % 1011,6 hPa 0,0 l/m 0,0 km/h (0 Bft) N 5 2 min 0,000 mm 0,0 UV-I 40 W/m 12,1 C 20,4 C 1,6 km/h (1 Bft) 96,00 %
26.05.2019 20:24 20,1 C 21,1 C 16,1 C 66 % 1011,6 hPa 0,0 l/m 0,0 km/h (0 Bft) N 5 2 min 0,000 mm 0,0 UV-I 39 W/m 13,5 C 20,1 C 0,0 km/h (0 Bft) 94,74 %
26.05.2019 20:26 19,4 C 21,1 C 15,6 C 70 % 1011,5 hPa 0,0 l/m 0,0 km/h (0 Bft) N 5 2 min 0,000 mm 0,0 UV-I 36 W/m 13,8 C 19,4 C 0,0 km/h (0 Bft) 95,83 %
26.05.2019 20:29 18,8 C 21,1 C 15,6 C 74 % 1011,5 hPa 0,0 l/m 0,2 km/h (0 Bft) N 5 3 min 0,000 mm 0,0 UV-I 29 W/m 14,1 C 18,8 C 1,6 km/h (1 Bft) 97,14 %
26.05.2019 20:30 18,7 C 21,1 C 15,6 C 74 % 1011,6 hPa 0,0 l/m 0,0 km/h (0 Bft) N 5 1 min 0,000 mm 0,0 UV-I 23 W/m 14,0 C 18,7 C 0,0 km/h (0 Bft) 100,00 %
26.05.2019 20:32 18,6 C 21,1 C 15,6 C 73 % 1011,5 hPa 0,0 l/m 0,2 km/h (0 Bft) N 5 2 min 0,000 mm 0,0 UV-I 21 W/m 13,7 C 18,6 C 1,6 km/h (1 Bft) 97,87 %
26.05.2019 20:34 18,6 C 21,1 C 15,0 C 70 % 1011,5 hPa 0,0 l/m 0,0 km/h (0 Bft) N 5 2 min 0,000 mm 0,0 UV-I 18 W/m 13,0 C 18,6 C 0,0 km/h (0 Bft) 97,87 %
26.05.2019 20:36 18,4 C 21,1 C 15,0 C 69 % 1011,5 hPa 0,0 l/m 0,0 km/h (0 Bft) N 5 2 min 0,000 mm 0,0 UV-I 17 W/m 12,6 C 18,4 C 0,0 km/h (0 Bft) 97,87 %
26.05.2019 20:38 18,3 C 21,1 C 15,0 C 70 % 1011,5 hPa 0,0 l/m 0,0 km/h (0 Bft) N 5 0 min 0,000 mm 0,0 UV-I 14 W/m 12,7 C 18,3 C 0,0 km/h (0 Bft) 95,74 %
26.05.2019 20:40 18,2 C 21,1 C 15,0 C 72 % 1011,5 hPa 0,0 l/m 0,0 km/h (0 Bft) N 5 0 min 0,000 mm 0,0 UV-I 12 W/m 13,1 C 18,2 C 0,0 km/h (0 Bft) 97,87 %
26.05.2019 20:42 18,0 C 21,1 C 14,4 C 74 % 1011,5 hPa 0,0 l/m 0,0 km/h (0 Bft) N 5 0 min 0,000 mm 0,0 UV-I 11 W/m 13,3 C 18,0 C 0,0 km/h (0 Bft) 93,62 %
26.05.2019 20:44 17,9 C 21,1 C 14,4 C 75 % 1011,5 hPa 0,0 l/m 0,0 km/h (0 Bft) N 5 0 min 0,000 mm 0,0 UV-I 11 W/m 13,4 C 17,9 C 0,0 km/h (0 Bft) 93,62 %
26.05.2019 20:46 17,8 C 21,1 C 14,4 C 76 % 1011,5 hPa 0,0 l/m 0,0 km/h (0 Bft) N 5 0 min 0,000 mm 0,0 UV-I 9 W/m 13,5 C 17,8 C 0,0 km/h (0 Bft) 95,74 %
26.05.2019 20:48 17,7 C 21,1 C 14,4 C 76 % 1011,5 hPa 0,0 l/m 0,0 km/h (0 Bft) N 5 0 min 0,000 mm 0,0 UV-I 9 W/m 13,4 C 17,7 C 0,0 km/h (0 Bft) 97,87 %
26.05.2019 20:50 17,6 C 21,1 C 14,4 C 76 % 1011,5 hPa 0,0 l/m 0,5 km/h (0 Bft) N 5 0 min 0,000 mm 0,0 UV-I 7 W/m 13,3 C 17,6 C 3,2 km/h (1 Bft) 97,87 %
26.05.2019 20:52 17,4 C 21,1 C 14,4 C 78 % 1011,5 hPa 0,0 l/m 1,7 km/h (1 Bft) N 5 0 min 0,000 mm 0,0 UV-I 7 W/m 13,5 C 17,4 C 3,2 km/h (1 Bft) 97,37 %
26.05.2019 20:54 17,3 C 21,1 C 14,4 C 78 % 1011,6 hPa 0,0 l/m 2,2 km/h (1 Bft) N 5 0 min 0,000 mm 0,0 UV-I 7 W/m 13,4 C 17,3 C 3,2 km/h (1 Bft) 98,00 %
26.05.2019 20:56 17,2 C 21,1 C 14,4 C 78 % 1011,6 hPa 0,0 l/m 3,1 km/h (1 Bft) N 5 0 min 0,000 mm 0,0 UV-I 5 W/m 13,3 C 17,2 C 3,2 km/h (1 Bft) 96,00 %
26.05.2019 20:58 17,1 C 21,1 C 14,4 C 79 % 1011,6 hPa 0,0 l/m 3,3 km/h (1 Bft) N 5 0 min 0,000 mm 0,0 UV-I 5 W/m 13,4 C 17,1 C 4,8 km/h (1 Bft) 97,87 %
26.05.2019 21:00 16,9 C 21,1 C 14,4 C 79 % 1011,6 hPa 0,0 l/m 3,4 km/h (1 Bft) N 5 0 min 0,000 mm 0,0 UV-I 5 W/m 13,2 C 16,9 C 4,8 km/h (1 Bft) 97,87 %
26.05.2019 21:02 16,8 C 21,1 C 13,9 C 78 % 1011,6 hPa 0,0 l/m 3,5 km/h (1 Bft) N-NO 15 0 min 0,026 mm 0,0 UV-I 5 W/m 12,9 C 16,8 C 4,8 km/h (1 Bft) 95,74 %
26.05.2019 21:04 16,9 C 21,1 C 13,9 C 78 % 1011,7 hPa 0,0 l/m 3,3 km/h (1 Bft) N-NO 15 0 min 0,000 mm 0,0 UV-I 1 W/m 13,0 C 16,9 C 4,8 km/h (1 Bft) 98,00 %
26.05.2019 21:06 17,0 C 21,1 C 13,9 C 76 % 1011,7 hPa 0,0 l/m 3,2 km/h (1 Bft) N-NO 15 0 min 0,000 mm 0,0 UV-I 0 W/m 12,7 C 17,0 C 4,8 km/h (1 Bft) 97,44 %
26.05.2019 21:08 16,9 C 21,1 C 13,9 C 78 % 1011,7 hPa 0,0 l/m 3,1 km/h (1 Bft) N-NO 15 0 min 0,000 mm 0,0 UV-I 0 W/m 13,0 C 16,9 C 3,2 km/h (1 Bft) 97,87 %
26.05.2019 21:10 16,8 C 21,1 C 13,9 C 78 % 1011,7 hPa 0,0 l/m 2,8 km/h (1 Bft) N-NO 15 0 min 0,000 mm 0,0 UV-I 0 W/m 12,9 C 16,8 C 3,2 km/h (1 Bft) 95,74 %
26.05.2019 21:12 16,8 C 21,1 C 13,9 C 77 % 1011,7 hPa 0,0 l/m 1,8 km/h (1 Bft) N-NO 15 0 min 0,000 mm 0,0 UV-I 0 W/m 12,7 C 16,8 C 3,2 km/h (1 Bft) 97,87 %
26.05.2019 21:14 16,9 C 21,1 C 13,9 C 77 % 1011,7 hPa 0,0 l/m 1,7 km/h (1 Bft) N-NO 15 0 min 0,000 mm 0,0 UV-I 0 W/m 12,8 C 16,9 C 3,2 km/h (1 Bft) 98,00 %
26.05.2019 21:16 16,9 C 21,1 C 13,9 C 76 % 1011,7 hPa 0,0 l/m 1,8 km/h (1 Bft) N-NO 15 0 min 0,000 mm 0,0 UV-I 0 W/m 12,6 C 16,9 C 3,2 km/h (1 Bft) 97,87 %
26.05.2019 21:18 17,1 C 21,1 C 13,9 C 74 % 1011,7 hPa 0,0 l/m 1,8 km/h (1 Bft) N-NO 15 0 min 0,000 mm 0,0 UV-I 0 W/m 12,4 C 17,1 C 3,2 km/h (1 Bft) 95,74 %
26.05.2019 21:20 17,1 C 21,1 C 13,9 C 73 % 1011,8 hPa 0,0 l/m 2,3 km/h (1 Bft) N-NO 15 0 min 0,000 mm 0,0 UV-I 0 W/m 12,2 C 17,1 C 3,2 km/h (1 Bft) 93,62 %
26.05.2019 21:22 17,1 C 21,1 C 13,9 C 73 % 1011,8 hPa 0,0 l/m 2,3 km/h (1 Bft) N-NO 15 0 min 0,000 mm 0,0 UV-I 0 W/m 12,2 C 17,1 C 3,2 km/h (1 Bft) 95,74 %
26.05.2019 21:24 17,0 C 21,1 C 13,9 C 74 % 1011,8 hPa 0,0 l/m 3,3 km/h (1 Bft) N-NO 15 0 min 0,000 mm 0,0 UV-I 0 W/m 12,3 C 17,0 C 4,8 km/h (1 Bft) 98,00 %
26.05.2019 21:26 16,8 C 21,1 C 13,9 C 76 % 1011,8 hPa 0,0 l/m 3,2 km/h (1 Bft) N-NO 15 0 min 0,000 mm 0,0 UV-I 0 W/m 12,5 C 16,8 C 3,2 km/h (1 Bft) 95,74 %
26.05.2019 21:28 16,6 C 21,1 C 13,9 C 80 % 1011,8 hPa 0,0 l/m 3,0 km/h (1 Bft) N-NO 16 0 min 0,000 mm 0,0 UV-I 0 W/m 13,1 C 16,6 C 3,2 km/h (1 Bft) 97,37 %
26.05.2019 21:30 16,4 C 21,1 C 13,9 C 80 % 1011,8 hPa 0,0 l/m 3,3 km/h (1 Bft) NO 42 0 min 0,000 mm 0,0 UV-I 0 W/m 12,9 C 16,4 C 4,8 km/h (1 Bft) 95,74 %
26.05.2019 21:32 16,4 C 21,1 C 13,9 C 78 % 1011,8 hPa 0,0 l/m 4,5 km/h (1 Bft) O-SO 118 0 min 0,000 mm 0,0 UV-I 0 W/m 12,6 C 16,4 C 6,4 km/h (2 Bft) 91,49 %
26.05.2019 21:34 16,6 C 21,1 C 13,9 C 76 % 1011,8 hPa 0,0 l/m 3,9 km/h (1 Bft) O-SO 118 0 min 0,000 mm 0,0 UV-I 0 W/m 12,3 C 16,6 C 4,8 km/h (1 Bft) 95,74 %
26.05.2019 21:36 16,8 C 21,1 C 13,9 C 75 % 1011,8 hPa 0,0 l/m 2,8 km/h (1 Bft) O-SO 118 0 min 0,000 mm 0,0 UV-I 0 W/m 12,3 C 16,8 C 4,8 km/h (1 Bft) 95,74 %
26.05.2019 21:38 16,9 C 21,1 C 13,9 C 75 % 1011,8 hPa 0,0 l/m 2,7 km/h (1 Bft) O-SO 118 0 min 0,000 mm 0,0 UV-I 0 W/m 12,4 C 16,9 C 3,2 km/h (1 Bft) 93,62 %
26.05.2019 21:40 17,0 C 21,1 C 13,9 C 74 % 1011,8 hPa 0,0 l/m 2,4 km/h (1 Bft) O-SO 118 0 min 0,000 mm 0,0 UV-I 0 W/m 12,3 C 17,0 C 3,2 km/h (1 Bft) 95,74 %
26.05.2019 21:42 17,1 C 21,1 C 13,9 C 74 % 1011,8 hPa 0,0 l/m 3,2 km/h (1 Bft) O-SO 118 0 min 0,000 mm 0,0 UV-I 0 W/m 12,4 C 17,1 C 4,8 km/h (1 Bft) 91,67 %
26.05.2019 21:44 17,1 C 21,1 C 14,4 C 74 % 1011,8 hPa 0,0 l/m 2,9 km/h (1 Bft) O-SO 118 0 min 0,000 mm 0,0 UV-I 0 W/m 12,4 C 17,1 C 4,8 km/h (1 Bft) 97,87 %
26.05.2019 21:46 17,1 C 20,6 C 14,4 C 73 % 1011,8 hPa 0,0 l/m 2,7 km/h (1 Bft) O-SO 118 0 min 0,000 mm 0,0 UV-I 0 W/m 12,2 C 17,1 C 3,2 km/h (1 Bft) 95,74 %
26.05.2019 21:48 17,1 C 21,1 C 14,4 C 73 % 1011,7 hPa 0,0 l/m 1,8 km/h (1 Bft) O-SO 118 0 min 0,000 mm 0,0 UV-I 0 W/m 12,2 C 17,1 C 3,2 km/h (1 Bft) 97,87 %
26.05.2019 21:50 17,1 C 21,1 C 14,4 C 74 % 1011,7 hPa 0,0 l/m 1,6 km/h (1 Bft) O-SO 118 0 min 0,000 mm 0,0 UV-I 0 W/m 12,4 C 17,1 C 3,2 km/h (1 Bft) 98,00 %
26.05.2019 21:52 17,2 C 20,6 C 14,4 C 74 % 1011,6 hPa 0,0 l/m 1,5 km/h (1 Bft) O-SO 118 0 min 0,000 mm 0,0 UV-I 0 W/m 12,5 C 17,2 C 3,2 km/h (1 Bft) 97,87 %
26.05.2019 21:54 17,2 C 21,1 C 14,4 C 74 % 1011,7 hPa 0,0 l/m 1,6 km/h (1 Bft) O-SO 118 0 min 0,000 mm 0,0 UV-I 0 W/m 12,5 C 17,2 C 1,6 km/h (1 Bft) 100,00 %
26.05.2019 21:56 17,2 C 20,6 C 14,4 C 74 % 1011,7 hPa 0,0 l/m 1,6 km/h (1 Bft) O-SO 118 0 min 0,000 mm 0,0 UV-I 0 W/m 12,5 C 17,2 C 3,2 km/h (1 Bft) 97,87 %
26.05.2019 21:58 17,2 C 20,6 C 15,0 C 75 % 1011,7 hPa 0,0 l/m 1,7 km/h (1 Bft) O-SO 118 0 min 0,000 mm 0,0 UV-I 0 W/m 12,7 C 17,2 C 3,2 km/h (1 Bft) 100,00 %
26.05.2019 22:00 17,2 C 20,6 C 15,0 C 75 % 1011,6 hPa 0,0 l/m 1,7 km/h (1 Bft) O-SO 118 0 min 0,000 mm 0,0 UV-I 0 W/m 12,7 C 17,2 C 3,2 km/h (1 Bft) 100,00 %
26.05.2019 22:02 17,1 C 21,1 C 15,0 C 76 % 1011,6 hPa 0,0 l/m 1,8 km/h (1 Bft) O-SO 118 0 min 0,025 mm 0,0 UV-I 0 W/m 12,8 C 17,1 C 3,2 km/h (1 Bft) 95,74 %
26.05.2019 22:04 16,9 C 21,1 C 15,0 C 76 % 1011,6 hPa 0,0 l/m 1,9 km/h (1 Bft) O-SO 118 0 min 0,000 mm 0,0 UV-I 0 W/m 12,6 C 16,9 C 3,2 km/h (1 Bft) 100,00 %
26.05.2019 22:06 17,0 C 20,6 C 15,0 C 76 % 1011,6 hPa 0,0 l/m 1,7 km/h (1 Bft) O-SO 118 0 min 0,000 mm 0,0 UV-I 0 W/m 12,7 C 17,0 C 3,2 km/h (1 Bft) 97,87 %
26.05.2019 22:08 17,2 C 20,6 C 15,0 C 76 % 1011,5 hPa 0,0 l/m 1,4 km/h (1 Bft) O-SO 118 0 min 0,000 mm 0,0 UV-I 0 W/m 12,9 C 17,2 C 1,6 km/h (1 Bft) 96,00 %
26.05.2019 22:10 17,1 C 20,6 C 15,0 C 76 % 1011,6 hPa 0,0 l/m 0,9 km/h (0 Bft) O-SO 118 0 min 0,000 mm 0,0 UV-I 0 W/m 12,8 C 17,1 C 1,6 km/h (1 Bft) 98,00 %
26.05.2019 22:12 17,1 C 20,6 C 15,0 C 77 % 1011,5 hPa 0,0 l/m 0,4 km/h (0 Bft) O-SO 118 0 min 0,000 mm 0,0 UV-I 0 W/m 13,0 C 17,1 C 1,6 km/h (1 Bft) 95,74 %
26.05.2019 22:14 17,1 C 20,6 C 15,0 C 76 % 1011,6 hPa 0,0 l/m 0,8 km/h (0 Bft) O-SO 118 0 min 0,000 mm 0,0 UV-I 0 W/m 12,8 C 17,1 C 1,6 km/h (1 Bft) 97,87 %
26.05.2019 22:16 17,2 C 20,6 C 15,0 C 75 % 1011,6 hPa 0,0 l/m 1,5 km/h (1 Bft) O-SO 118 0 min 0,000 mm 0,0 UV-I 0 W/m 12,7 C 17,2 C 3,2 km/h (1 Bft) 97,87 %
26.05.2019 22:18 17,2 C 20,6 C 15,0 C 74 % 1011,7 hPa 0,0 l/m 2,5 km/h (1 Bft) O-SO 118 0 min 0,000 mm 0,0 UV-I 0 W/m 12,5 C 17,2 C 3,2 km/h (1 Bft) 97,56 %
26.05.2019 22:20 17,1 C 20,6 C 15,0 C 73 % 1011,6 hPa 0,0 l/m 2,3 km/h (1 Bft) O-SO 118 0 min 0,000 mm 0,0 UV-I 0 W/m 12,2 C 17,1 C 3,2 km/h (1 Bft) 95,83 %
26.05.2019 22:22 17,1 C 20,6 C 15,0 C 74 % 1011,6 hPa 0,0 l/m 2,1 km/h (1 Bft) O-SO 118 0 min 0,000 mm 0,0 UV-I 0 W/m 12,4 C 17,1 C 3,2 km/h (1 Bft) 97,87 %
26.05.2019 22:24 17,0 C 20,6 C 15,0 C 74 % 1011,7 hPa 0,0 l/m 2,8 km/h (1 Bft) O-SO 118 0 min 0,000 mm 0,0 UV-I 0 W/m 12,3 C 17,0 C 3,2 km/h (1 Bft) 97,87 %
26.05.2019 22:26 16,9 C 20,6 C 15,0 C 75 % 1011,7 hPa 0,0 l/m 2,9 km/h (1 Bft) O-SO 118 0 min 0,000 mm 0,0 UV-I 0 W/m 12,4 C 16,9 C 4,8 km/h (1 Bft) 98,00 %
26.05.2019 22:28 16,9 C 20,6 C 15,0 C 76 % 1011,7 hPa 0,0 l/m 2,4 km/h (1 Bft) O-SO 118 0 min 0,000 mm 0,0 UV-I 0 W/m 12,6 C 16,9 C 3,2 km/h (1 Bft) 94,00 %
26.05.2019 22:30 16,9 C 20,6 C 15,0 C 77 % 1011,7 hPa 0,0 l/m 1,8 km/h (1 Bft) O-SO 118 0 min 0,000 mm 0,0 UV-I 0 W/m 12,8 C 16,9 C 3,2 km/h (1 Bft) 95,74 %
26.05.2019 22:32 16,8 C 20,6 C 15,0 C 78 % 1011,7 hPa 0,0 l/m 1,8 km/h (1 Bft) O-SO 118 0 min 0,000 mm 0,0 UV-I 0 W/m 12,9 C 16,8 C 3,2 km/h (1 Bft) 95,74 %
26.05.2019 22:34 16,6 C 20,6 C 15,0 C 79 % 1011,7 hPa 0,0 l/m 1,8 km/h (1 Bft) O-SO 118 0 min 0,000 mm 0,0 UV-I 0 W/m 12,9 C 16,6 C 3,2 km/h (1 Bft) 94,29 %
26.05.2019 22:36 16,7 C 20,6 C 14,4 C 78 % 1011,7 hPa 0,0 l/m 1,1 km/h (1 Bft) O-SO 118 0 min 0,000 mm 0,0 UV-I 0 W/m 12,8 C 16,7 C 1,6 km/h (1 Bft) 98,08 %
26.05.2019 22:38 16,8 C 20,6 C 14,4 C 77 % 1011,7 hPa 0,0 l/m 1,3 km/h (1 Bft) O-SO 118 0 min 0,000 mm 0,0 UV-I 0 W/m 12,7 C 16,8 C 1,6 km/h (1 Bft) 95,74 %
26.05.2019 22:40 16,8 C 20,6 C 14,4 C 77 % 1011,6 hPa 0,0 l/m 2,1 km/h (1 Bft) O-SO 118 0 min 0,000 mm 0,0 UV-I 0 W/m 12,7 C 16,8 C 3,2 km/h (1 Bft) 95,74 %
26.05.2019 22:42 16,7 C 20,6 C 14,4 C 76 % 1011,6 hPa 0,0 l/m 3,8 km/h (1 Bft) SO 146 0 min 0,000 mm 0,0 UV-I 0 W/m 12,4 C 16,7 C 6,4 km/h (2 Bft) 98,00 %
26.05.2019 22:44 16,6 C 20,6 C 15,0 C 75 % 1011,6 hPa 0,0 l/m 3,5 km/h (1 Bft) S-SO 147 0 min 0,000 mm 0,0 UV-I 0 W/m 12,1 C 16,6 C 4,8 km/h (1 Bft) 100,00 %
26.05.2019 22:46 16,7 C 20,6 C 15,0 C 74 % 1011,6 hPa 0,0 l/m 2,4 km/h (1 Bft) S-SO 148 0 min 0,000 mm 0,0 UV-I 0 W/m 12,0 C 16,7 C 3,2 km/h (1 Bft) 100,00 %
26.05.2019 22:48 16,8 C 20,6 C 15,0 C 74 % 1011,7 hPa 0,0 l/m 2,5 km/h (1 Bft) S-SO 148 0 min 0,000 mm 0,0 UV-I 0 W/m 12,1 C 16,8 C 3,2 km/h (1 Bft) 95,74 %
26.05.2019 22:50 17,1 C 20,6 C 15,0 C 72 % 1011,7 hPa 0,0 l/m 3,6 km/h (1 Bft) S-SO 155 0 min 0,000 mm 0,0 UV-I 0 W/m 12,0 C 17,1 C 4,8 km/h (1 Bft) 97,87 %
26.05.2019 22:52 17,2 C 20,6 C 15,0 C 72 % 1011,6 hPa 0,0 l/m 2,8 km/h (1 Bft) S-SO 155 0 min 0,000 mm 0,0 UV-I 0 W/m 12,1 C 17,2 C 4,8 km/h (1 Bft) 100,00 %
26.05.2019 22:54 17,3 C 20,6 C 15,0 C 72 % 1011,7 hPa 0,0 l/m 2,7 km/h (1 Bft) S-SO 156 0 min 0,000 mm 0,0 UV-I 0 W/m 12,2 C 17,3 C 3,2 km/h (1 Bft) 100,00 %
26.05.2019 22:56 17,3 C 20,6 C 14,4 C 72 % 1011,6 hPa 0,0 l/m 2,2 km/h (1 Bft) S-SO 156 0 min 0,000 mm 0,0 UV-I 0 W/m 12,2 C 17,3 C 3,2 km/h (1 Bft) 93,62 %
26.05.2019 22:58 17,3 C 20,6 C 14,4 C 72 % 1011,7 hPa 0,0 l/m 1,3 km/h (1 Bft) S-SO 156 0 min 0,000 mm 0,0 UV-I 0 W/m 12,2 C 17,3 C 3,2 km/h (1 Bft) 95,74 %
26.05.2019 23:00 17,2 C 20,6 C 14,4 C 73 % 1011,6 hPa 0,0 l/m 2,2 km/h (1 Bft) S-SO 156 0 min 0,000 mm 0,0 UV-I 0 W/m 12,3 C 17,2 C 3,2 km/h (1 Bft) 97,87 %
26.05.2019 23:02 17,1 C 20,6 C 13,9 C 73 % 1011,6 hPa 0,0 l/m 2,0 km/h (1 Bft) S-SO 156 0 min 0,025 mm 0,0 UV-I 0 W/m 12,2 C 17,1 C 3,2 km/h (1 Bft) 93,62 %
26.05.2019 23:04 16,9 C 20,6 C 13,9 C 74 % 1011,6 hPa 0,0 l/m 2,0 km/h (1 Bft) S-SO 156 0 min 0,000 mm 0,0 UV-I 0 W/m 12,2 C 16,9 C 3,2 km/h (1 Bft) 94,87 %
26.05.2019 23:06 16,7 C 20,6 C 13,9 C 75 % 1011,6 hPa 0,0 l/m 1,6 km/h (1 Bft) S-SO 156 0 min 0,000 mm 0,0 UV-I 0 W/m 12,2 C 16,7 C 3,2 km/h (1 Bft) 96,00 %
26.05.2019 23:08 16,6 C 20,6 C 13,3 C 75 % 1011,6 hPa 0,0 l/m 1,5 km/h (1 Bft) S-SO 156 0 min 0,000 mm 0,0 UV-I 0 W/m 12,1 C 16,6 C 3,2 km/h (1 Bft) 96,00 %
26.05.2019 23:10 16,5 C 20,6 C 13,3 C 75 % 1011,6 hPa 0,0 l/m 1,5 km/h (1 Bft) S-SO 156 0 min 0,000 mm 0,0 UV-I 0 W/m 12,1 C 16,5 C 3,2 km/h (1 Bft) 97,37 %
26.05.2019 23:12 16,4 C 20,6 C 12,8 C 77 % 1011,6 hPa 0,0 l/m 1,3 km/h (1 Bft) S-SO 156 0 min 0,000 mm 0,0 UV-I 0 W/m 12,4 C 16,4 C 1,6 km/h (1 Bft) 96,23 %
26.05.2019 23:14 16,3 C 20,6 C 12,8 C 77 % 1011,6 hPa 0,0 l/m 1,2 km/h (1 Bft) S-SO 156 0 min 0,000 mm 0,0 UV-I 0 W/m 12,3 C 16,3 C 1,6 km/h (1 Bft) 96,00 %
26.05.2019 23:16 16,2 C 20,6 C 12,8 C 78 % 1011,6 hPa 0,0 l/m 1,4 km/h (1 Bft) S-SO 156 0 min 0,000 mm 0,0 UV-I 0 W/m 12,4 C 16,2 C 3,2 km/h (1 Bft) 93,62 %
26.05.2019 23:19 16,2 C 20,6 C 12,8 C 78 % 1011,7 hPa 0,0 l/m 1,8 km/h (1 Bft) S-SO 156 0 min 0,000 mm 0,0 UV-I 0 W/m 12,4 C 16,2 C 4,8 km/h (1 Bft) 100,00 %
26.05.2019 23:20 16,2 C 20,6 C 12,8 C 78 % 1011,7 hPa 0,0 l/m 2,2 km/h (1 Bft) S-SO 156 0 min 0,000 mm 0,0 UV-I 0 W/m 12,4 C 16,2 C 3,2 km/h (1 Bft) 96,15 %
26.05.2019 23:22 16,2 C 20,6 C 12,8 C 78 % 1011,6 hPa 0,0 l/m 2,3 km/h (1 Bft) S-SO 156 0 min 0,000 mm 0,0 UV-I 0 W/m 12,4 C 16,2 C 3,2 km/h (1 Bft) 100,00 %
26.05.2019 23:24 16,2 C 20,6 C 12,8 C 78 % 1011,6 hPa 0,0 l/m 2,6 km/h (1 Bft) S-SO 156 0 min 0,000 mm 0,0 UV-I 0 W/m 12,4 C 16,2 C 4,8 km/h (1 Bft) 100,00 %
26.05.2019 23:26 16,1 C 20,6 C 12,8 C 78 % 1011,6 hPa 0,0 l/m 2,5 km/h (1 Bft) S-SO 156 0 min 0,000 mm 0,0 UV-I 0 W/m 12,3 C 16,1 C 4,8 km/h (1 Bft) 95,74 %
26.05.2019 23:28 16,1 C 20,6 C 12,8 C 79 % 1011,6 hPa 0,0 l/m 2,9 km/h (1 Bft) S-SO 157 0 min 0,000 mm 0,0 UV-I 0 W/m 12,5 C 16,1 C 4,8 km/h (1 Bft) 100,00 %
26.05.2019 23:30 16,1 C 20,6 C 12,8 C 78 % 1011,6 hPa 0,0 l/m 5,1 km/h (1 Bft) S-SO 168 0 min 0,000 mm 0,0 UV-I 0 W/m 12,3 C 16,1 C 9,7 km/h (2 Bft) 97,87 %
26.05.2019 23:32 16,3 C 20,6 C 12,8 C 77 % 1011,6 hPa 0,0 l/m 3,9 km/h (1 Bft) S 175 0 min 0,000 mm 0,0 UV-I 0 W/m 12,3 C 16,3 C 6,4 km/h (2 Bft) 95,74 %
26.05.2019 23:34 16,4 C 20,6 C 12,8 C 77 % 1011,6 hPa 0,0 l/m 3,1 km/h (1 Bft) S 175 0 min 0,000 mm 0,0 UV-I 0 W/m 12,4 C 16,4 C 4,8 km/h (1 Bft) 95,74 %
26.05.2019 23:36 16,4 C 20,6 C 12,8 C 77 % 1011,5 hPa 0,0 l/m 3,3 km/h (1 Bft) S 175 0 min 0,000 mm 0,0 UV-I 0 W/m 12,4 C 16,4 C 4,8 km/h (1 Bft) 100,00 %
26.05.2019 23:38 16,4 C 20,6 C 12,8 C 77 % 1011,5 hPa 0,0 l/m 2,4 km/h (1 Bft) S 175 0 min 0,000 mm 0,0 UV-I 0 W/m 12,4 C 16,4 C 4,8 km/h (1 Bft) 97,92 %
26.05.2019 23:40 16,4 C 20,6 C 12,8 C 77 % 1011,5 hPa 0,0 l/m 1,4 km/h (1 Bft) S 175 0 min 0,000 mm 0,0 UV-I 0 W/m 12,4 C 16,4 C 3,2 km/h (1 Bft) 97,87 %
26.05.2019 23:42 16,3 C 20,6 C 12,8 C 78 % 1011,5 hPa 0,0 l/m 2,0 km/h (1 Bft) S 175 0 min 0,000 mm 0,0 UV-I 0 W/m 12,5 C 16,3 C 3,2 km/h (1 Bft) 100,00 %
26.05.2019 23:44 16,2 C 20,6 C 12,8 C 78 % 1011,5 hPa 0,0 l/m 2,2 km/h (1 Bft) S 175 0 min 0,000 mm 0,0 UV-I 0 W/m 12,4 C 16,2 C 3,2 km/h (1 Bft) 97,87 %
26.05.2019 23:46 16,1 C 20,6 C 12,8 C 78 % 1011,5 hPa 0,0 l/m 2,0 km/h (1 Bft) S 175 0 min 0,000 mm 0,0 UV-I 0 W/m 12,3 C 16,1 C 3,2 km/h (1 Bft) 100,00 %
26.05.2019 23:48 16,1 C 20,6 C 12,8 C 79 % 1011,5 hPa 0,0 l/m 1,7 km/h (1 Bft) S 175 0 min 0,000 mm 0,0 UV-I 0 W/m 12,5 C 16,1 C 3,2 km/h (1 Bft) 100,00 %
26.05.2019 23:50 16,1 C 20,6 C 12,8 C 79 % 1011,5 hPa 0,0 l/m 2,8 km/h (1 Bft) S 175 0 min 0,000 mm 0,0 UV-I 0 W/m 12,5 C 16,1 C 4,8 km/h (1 Bft) 97,87 %
26.05.2019 23:52 16,1 C 20,6 C 12,8 C 79 % 1011,5 hPa 0,0 l/m 2,7 km/h (1 Bft) S 175 0 min 0,000 mm 0,0 UV-I 0 W/m 12,5 C 16,1 C 4,8 km/h (1 Bft) 97,87 %
26.05.2019 23:54 16,1 C 20,6 C 12,8 C 79 % 1011,4 hPa 0,0 l/m 3,1 km/h (1 Bft) S 175 0 min 0,000 mm 0,0 UV-I 0 W/m 12,5 C 16,1 C 4,8 km/h (1 Bft) 100,00 %
26.05.2019 23:56 16,2 C 20,6 C 12,8 C 79 % 1011,5 hPa 0,0 l/m 3,6 km/h (1 Bft) S 175 0 min 0,000 mm 0,0 UV-I 0 W/m 12,6 C 16,2 C 4,8 km/h (1 Bft) 100,00 %
26.05.2019 23:58 16,2 C 20,6 C 13,3 C 79 % 1011,5 hPa 0,0 l/m 4,8 km/h (1 Bft) S-SW 194 0 min 0,000 mm 0,0 UV-I 0 W/m 12,6 C 16,2 C 6,4 km/h (2 Bft) 97,14 %
_ Min-Zeit 05:06 00:00 05:00 16:00 23:54 - 20:18 - - - - - - 06:00 06:02 20:18 00:56
Minimum _ 13,0 C 18,9 C 11,7 C 50 % 1011,4 hPa - 0,0 km/h (0 Bft) - - - - - - 11,1 C 9,5 C 0,0 km/h (0 Bft) 89,36 %
_ Max-Zeit 16:56 16:30 15:08 04:54 09:40 00:00 07:50 - - 20:29 14:00 12:48 13:36 15:18 15:54 07:14 00:00
Maximum _ 22,6 C 21,1 C 41,1 C 90 % 1015,1 hPa 0,0 l/m 20,0 km/h
W-SW (4 Bft)
- - 3 min 0,508 mm 5,2 UV-I 1107 W/m 14,4 C 22,5 C 27,4 km/h
W-SW (4 Bft)
100,00 %
Durchschnitt _ 17,6 C 19,8 C 22,7 C 72 % 1013,4 hPa #0,0 l/m 7,1 km/h (2 Bft) W-SW - #12:58 h #4,978 mm 2,7 UV-I 475 W/m 12,2 C 16,6 C 11,7 km/h (2 Bft) 97,19 %